<?xml version="1.0" encoding="UTF-8" standalone="no" ?>
<gpx xmlns="http://www.topografix.com/GPX/1/1" xmlns:xsi="http://www.w3.org/2001/XMLSchema-instance" xsi:schemaLocation="http://www.topografix.com/GPX/1/1 http://www.topografix.com/GPX/1/1/gpx.xsd" version="1.1" creator="VisuGPX - https://www.visugpx.com">
  <metadata>
    <name>VTT du mercredi 16 avril (à 6)</name>
    <desc><![CDATA[avec Patrick, JF, Christine, Jacques, Ghyslaine et Christian. Beau circuit sur terrain très sec, en grande partie dans les bois.]]></desc>
  </metadata>
  <trk>
    <name><![CDATA[Untitled]]></name>
    <trkseg>
      <trkpt lat="47.68624" lon="6.04549">
        <ele>230.60000610352</ele>
        <time>2014-04-16T07:35:18.000Z</time>
      </trkpt>
      <trkpt lat="47.68624" lon="6.04549">
        <ele>230.60000610352</ele>
        <time>2014-04-16T07:35:19.000Z</time>
      </trkpt>
      <trkpt lat="47.68627" lon="6.04544">
        <ele>230.60000610352</ele>
        <time>2014-04-16T07:36:26.000Z</time>
      </trkpt>
      <trkpt lat="47.68629" lon="6.0454">
        <ele>230.39999389648</ele>
        <time>2014-04-16T07:36:28.000Z</time>
      </trkpt>
      <trkpt lat="47.6863" lon="6.04539">
        <ele>230.39999389648</ele>
        <time>2014-04-16T07:36:29.000Z</time>
      </trkpt>
      <trkpt lat="47.68631" lon="6.04532">
        <ele>230</ele>
        <time>2014-04-16T07:36:34.000Z</time>
      </trkpt>
      <trkpt lat="47.68629" lon="6.04527">
        <ele>229.60000610352</ele>
        <time>2014-04-16T07:36:36.000Z</time>
      </trkpt>
      <trkpt lat="47.68625" lon="6.04524">
        <ele>229.19999694824</ele>
        <time>2014-04-16T07:36:38.000Z</time>
      </trkpt>
      <trkpt lat="47.68616" lon="6.04517">
        <ele>228.19999694824</ele>
        <time>2014-04-16T07:36:41.000Z</time>
      </trkpt>
      <trkpt lat="47.68613" lon="6.04514">
        <ele>227.80000305176</ele>
        <time>2014-04-16T07:36:42.000Z</time>
      </trkpt>
      <trkpt lat="47.68609" lon="6.04512">
        <ele>227.39999389648</ele>
        <time>2014-04-16T07:36:43.000Z</time>
      </trkpt>
      <trkpt lat="47.68604" lon="6.04509">
        <ele>227</ele>
        <time>2014-04-16T07:36:44.000Z</time>
      </trkpt>
      <trkpt lat="47.686" lon="6.04506">
        <ele>226.60000610352</ele>
        <time>2014-04-16T07:36:45.000Z</time>
      </trkpt>
      <trkpt lat="47.68594" lon="6.04502">
        <ele>226</ele>
        <time>2014-04-16T07:36:46.000Z</time>
      </trkpt>
      <trkpt lat="47.68576" lon="6.04488">
        <ele>224.19999694824</ele>
        <time>2014-04-16T07:36:49.000Z</time>
      </trkpt>
      <trkpt lat="47.68569" lon="6.04484">
        <ele>223.39999389648</ele>
        <time>2014-04-16T07:36:50.000Z</time>
      </trkpt>
      <trkpt lat="47.68562" lon="6.04479">
        <ele>222.80000305176</ele>
        <time>2014-04-16T07:36:51.000Z</time>
      </trkpt>
      <trkpt lat="47.68555" lon="6.04474">
        <ele>222</ele>
        <time>2014-04-16T07:36:52.000Z</time>
      </trkpt>
      <trkpt lat="47.68547" lon="6.04469">
        <ele>221.39999389648</ele>
        <time>2014-04-16T07:36:53.000Z</time>
      </trkpt>
      <trkpt lat="47.6854" lon="6.04463">
        <ele>221</ele>
        <time>2014-04-16T07:36:54.000Z</time>
      </trkpt>
      <trkpt lat="47.68533" lon="6.04458">
        <ele>220.39999389648</ele>
        <time>2014-04-16T07:36:55.000Z</time>
      </trkpt>
      <trkpt lat="47.68525" lon="6.04452">
        <ele>219.80000305176</ele>
        <time>2014-04-16T07:36:56.000Z</time>
      </trkpt>
      <trkpt lat="47.68517" lon="6.04447">
        <ele>219.19999694824</ele>
        <time>2014-04-16T07:36:57.000Z</time>
      </trkpt>
      <trkpt lat="47.68509" lon="6.04442">
        <ele>218.60000610352</ele>
        <time>2014-04-16T07:36:58.000Z</time>
      </trkpt>
      <trkpt lat="47.685" lon="6.04438">
        <ele>218</ele>
        <time>2014-04-16T07:36:59.000Z</time>
      </trkpt>
      <trkpt lat="47.68491" lon="6.04435">
        <ele>217.39999389648</ele>
        <time>2014-04-16T07:37:00.000Z</time>
      </trkpt>
      <trkpt lat="47.68482" lon="6.04432">
        <ele>217</ele>
        <time>2014-04-16T07:37:01.000Z</time>
      </trkpt>
      <trkpt lat="47.68472" lon="6.04432">
        <ele>216.39999389648</ele>
        <time>2014-04-16T07:37:02.000Z</time>
      </trkpt>
      <trkpt lat="47.68453" lon="6.04432">
        <ele>215.60000610352</ele>
        <time>2014-04-16T07:37:04.000Z</time>
      </trkpt>
      <trkpt lat="47.68445" lon="6.04432">
        <ele>215.39999389648</ele>
        <time>2014-04-16T07:37:05.000Z</time>
      </trkpt>
      <trkpt lat="47.68438" lon="6.04431">
        <ele>215</ele>
        <time>2014-04-16T07:37:06.000Z</time>
      </trkpt>
      <trkpt lat="47.68431" lon="6.04431">
        <ele>214.80000305176</ele>
        <time>2014-04-16T07:37:07.000Z</time>
      </trkpt>
      <trkpt lat="47.68425" lon="6.04431">
        <ele>214.60000610352</ele>
        <time>2014-04-16T07:37:08.000Z</time>
      </trkpt>
      <trkpt lat="47.68419" lon="6.04432">
        <ele>214.39999389648</ele>
        <time>2014-04-16T07:37:09.000Z</time>
      </trkpt>
      <trkpt lat="47.68413" lon="6.04432">
        <ele>214.19999694824</ele>
        <time>2014-04-16T07:37:10.000Z</time>
      </trkpt>
      <trkpt lat="47.68408" lon="6.04432">
        <ele>214.19999694824</ele>
        <time>2014-04-16T07:37:11.000Z</time>
      </trkpt>
      <trkpt lat="47.68403" lon="6.0443">
        <ele>214</ele>
        <time>2014-04-16T07:37:12.000Z</time>
      </trkpt>
      <trkpt lat="47.68398" lon="6.04425">
        <ele>213.60000610352</ele>
        <time>2014-04-16T07:37:13.000Z</time>
      </trkpt>
      <trkpt lat="47.68396" lon="6.04417">
        <ele>213.39999389648</ele>
        <time>2014-04-16T07:37:14.000Z</time>
      </trkpt>
      <trkpt lat="47.68396" lon="6.04409">
        <ele>213</ele>
        <time>2014-04-16T07:37:15.000Z</time>
      </trkpt>
      <trkpt lat="47.68396" lon="6.04401">
        <ele>212.80000305176</ele>
        <time>2014-04-16T07:37:16.000Z</time>
      </trkpt>
      <trkpt lat="47.68394" lon="6.04394">
        <ele>212.39999389648</ele>
        <time>2014-04-16T07:37:17.000Z</time>
      </trkpt>
      <trkpt lat="47.68395" lon="6.04357">
        <ele>211.80000305176</ele>
        <time>2014-04-16T07:37:22.000Z</time>
      </trkpt>
      <trkpt lat="47.68395" lon="6.04349">
        <ele>211.60000610352</ele>
        <time>2014-04-16T07:37:23.000Z</time>
      </trkpt>
      <trkpt lat="47.68394" lon="6.04334">
        <ele>211.19999694824</ele>
        <time>2014-04-16T07:37:25.000Z</time>
      </trkpt>
      <trkpt lat="47.68394" lon="6.04326">
        <ele>211</ele>
        <time>2014-04-16T07:37:26.000Z</time>
      </trkpt>
      <trkpt lat="47.68394" lon="6.04318">
        <ele>210.80000305176</ele>
        <time>2014-04-16T07:37:27.000Z</time>
      </trkpt>
      <trkpt lat="47.68394" lon="6.0431">
        <ele>210.60000610352</ele>
        <time>2014-04-16T07:37:28.000Z</time>
      </trkpt>
      <trkpt lat="47.68393" lon="6.04302">
        <ele>210.60000610352</ele>
        <time>2014-04-16T07:37:29.000Z</time>
      </trkpt>
      <trkpt lat="47.68392" lon="6.04265">
        <ele>209.60000610352</ele>
        <time>2014-04-16T07:37:34.000Z</time>
      </trkpt>
      <trkpt lat="47.68392" lon="6.04261">
        <ele>209.60000610352</ele>
        <time>2014-04-16T07:37:35.000Z</time>
      </trkpt>
      <trkpt lat="47.68392" lon="6.04256">
        <ele>209.39999389648</ele>
        <time>2014-04-16T07:37:36.000Z</time>
      </trkpt>
      <trkpt lat="47.68392" lon="6.04253">
        <ele>209.39999389648</ele>
        <time>2014-04-16T07:37:37.000Z</time>
      </trkpt>
      <trkpt lat="47.68391" lon="6.04251">
        <ele>209.19999694824</ele>
        <time>2014-04-16T07:37:38.000Z</time>
      </trkpt>
      <trkpt lat="47.6839" lon="6.04248">
        <ele>209.19999694824</ele>
        <time>2014-04-16T07:37:39.000Z</time>
      </trkpt>
      <trkpt lat="47.68387" lon="6.04246">
        <ele>209.19999694824</ele>
        <time>2014-04-16T07:37:40.000Z</time>
      </trkpt>
      <trkpt lat="47.68379" lon="6.04242">
        <ele>209</ele>
        <time>2014-04-16T07:37:43.000Z</time>
      </trkpt>
      <trkpt lat="47.68374" lon="6.0424">
        <ele>208.80000305176</ele>
        <time>2014-04-16T07:37:45.000Z</time>
      </trkpt>
      <trkpt lat="47.68364" lon="6.04222">
        <ele>208.19999694824</ele>
        <time>2014-04-16T07:37:50.000Z</time>
      </trkpt>
      <trkpt lat="47.68356" lon="6.04201">
        <ele>208</ele>
        <time>2014-04-16T07:37:55.000Z</time>
      </trkpt>
      <trkpt lat="47.68354" lon="6.04174">
        <ele>207.60000610352</ele>
        <time>2014-04-16T07:38:01.000Z</time>
      </trkpt>
      <trkpt lat="47.68361" lon="6.04157">
        <ele>207.19999694824</ele>
        <time>2014-04-16T07:38:05.000Z</time>
      </trkpt>
      <trkpt lat="47.68376" lon="6.04155">
        <ele>207</ele>
        <time>2014-04-16T07:38:09.000Z</time>
      </trkpt>
      <trkpt lat="47.68395" lon="6.04157">
        <ele>206.80000305176</ele>
        <time>2014-04-16T07:38:14.000Z</time>
      </trkpt>
      <trkpt lat="47.68426" lon="6.04158">
        <ele>206.60000610352</ele>
        <time>2014-04-16T07:38:22.000Z</time>
      </trkpt>
      <trkpt lat="47.68443" lon="6.04161">
        <ele>207</ele>
        <time>2014-04-16T07:38:27.000Z</time>
      </trkpt>
      <trkpt lat="47.68447" lon="6.04161">
        <ele>207</ele>
        <time>2014-04-16T07:38:28.000Z</time>
      </trkpt>
      <trkpt lat="47.6845" lon="6.04161">
        <ele>207.19999694824</ele>
        <time>2014-04-16T07:38:29.000Z</time>
      </trkpt>
      <trkpt lat="47.68454" lon="6.04162">
        <ele>207.19999694824</ele>
        <time>2014-04-16T07:38:30.000Z</time>
      </trkpt>
      <trkpt lat="47.68457" lon="6.04163">
        <ele>207.39999389648</ele>
        <time>2014-04-16T07:38:31.000Z</time>
      </trkpt>
      <trkpt lat="47.6848" lon="6.04164">
        <ele>208</ele>
        <time>2014-04-16T07:38:37.000Z</time>
      </trkpt>
      <trkpt lat="47.68509" lon="6.04166">
        <ele>208.80000305176</ele>
        <time>2014-04-16T07:38:44.000Z</time>
      </trkpt>
      <trkpt lat="47.68536" lon="6.04173">
        <ele>209.80000305176</ele>
        <time>2014-04-16T07:38:51.000Z</time>
      </trkpt>
      <trkpt lat="47.68544" lon="6.04175">
        <ele>210</ele>
        <time>2014-04-16T07:38:53.000Z</time>
      </trkpt>
      <trkpt lat="47.68559" lon="6.04179">
        <ele>210.19999694824</ele>
        <time>2014-04-16T07:38:57.000Z</time>
      </trkpt>
      <trkpt lat="47.68586" lon="6.04187">
        <ele>210.60000610352</ele>
        <time>2014-04-16T07:39:04.000Z</time>
      </trkpt>
      <trkpt lat="47.68612" lon="6.04194">
        <ele>211.80000305176</ele>
        <time>2014-04-16T07:39:11.000Z</time>
      </trkpt>
      <trkpt lat="47.6864" lon="6.04201">
        <ele>212.80000305176</ele>
        <time>2014-04-16T07:39:18.000Z</time>
      </trkpt>
      <trkpt lat="47.68669" lon="6.0421">
        <ele>213.80000305176</ele>
        <time>2014-04-16T07:39:26.000Z</time>
      </trkpt>
      <trkpt lat="47.68695" lon="6.04216">
        <ele>213.80000305176</ele>
        <time>2014-04-16T07:39:33.000Z</time>
      </trkpt>
      <trkpt lat="47.68724" lon="6.04223">
        <ele>213.60000610352</ele>
        <time>2014-04-16T07:39:41.000Z</time>
      </trkpt>
      <trkpt lat="47.6875" lon="6.04227">
        <ele>213.19999694824</ele>
        <time>2014-04-16T07:39:48.000Z</time>
      </trkpt>
      <trkpt lat="47.68784" lon="6.04231">
        <ele>213</ele>
        <time>2014-04-16T07:39:57.000Z</time>
      </trkpt>
      <trkpt lat="47.68813" lon="6.04232">
        <ele>212.80000305176</ele>
        <time>2014-04-16T07:40:05.000Z</time>
      </trkpt>
      <trkpt lat="47.68837" lon="6.04236">
        <ele>212.80000305176</ele>
        <time>2014-04-16T07:40:12.000Z</time>
      </trkpt>
      <trkpt lat="47.6886" lon="6.04237">
        <ele>212.60000610352</ele>
        <time>2014-04-16T07:40:19.000Z</time>
      </trkpt>
      <trkpt lat="47.6888" lon="6.04241">
        <ele>212.80000305176</ele>
        <time>2014-04-16T07:40:25.000Z</time>
      </trkpt>
      <trkpt lat="47.68897" lon="6.04245">
        <ele>213.19999694824</ele>
        <time>2014-04-16T07:40:30.000Z</time>
      </trkpt>
      <trkpt lat="47.689" lon="6.04246">
        <ele>213.19999694824</ele>
        <time>2014-04-16T07:40:31.000Z</time>
      </trkpt>
      <trkpt lat="47.68902" lon="6.04247">
        <ele>213.19999694824</ele>
        <time>2014-04-16T07:40:32.000Z</time>
      </trkpt>
      <trkpt lat="47.68905" lon="6.04247">
        <ele>213.19999694824</ele>
        <time>2014-04-16T07:40:33.000Z</time>
      </trkpt>
      <trkpt lat="47.68907" lon="6.04248">
        <ele>213.39999389648</ele>
        <time>2014-04-16T07:40:34.000Z</time>
      </trkpt>
      <trkpt lat="47.6891" lon="6.04249">
        <ele>213.39999389648</ele>
        <time>2014-04-16T07:40:37.000Z</time>
      </trkpt>
      <trkpt lat="47.68917" lon="6.0425">
        <ele>213.39999389648</ele>
        <time>2014-04-16T07:40:56.000Z</time>
      </trkpt>
      <trkpt lat="47.68919" lon="6.04247">
        <ele>213.19999694824</ele>
        <time>2014-04-16T07:40:57.000Z</time>
      </trkpt>
      <trkpt lat="47.68924" lon="6.04238">
        <ele>212.80000305176</ele>
        <time>2014-04-16T07:40:59.000Z</time>
      </trkpt>
      <trkpt lat="47.68937" lon="6.04203">
        <ele>211.39999389648</ele>
        <time>2014-04-16T07:41:05.000Z</time>
      </trkpt>
      <trkpt lat="47.6894" lon="6.04196">
        <ele>211.19999694824</ele>
        <time>2014-04-16T07:41:06.000Z</time>
      </trkpt>
      <trkpt lat="47.68952" lon="6.04166">
        <ele>210.60000610352</ele>
        <time>2014-04-16T07:41:11.000Z</time>
      </trkpt>
      <trkpt lat="47.6897" lon="6.04118">
        <ele>209</ele>
        <time>2014-04-16T07:41:19.000Z</time>
      </trkpt>
      <trkpt lat="47.68993" lon="6.04064">
        <ele>209.60000610352</ele>
        <time>2014-04-16T07:41:29.000Z</time>
      </trkpt>
      <trkpt lat="47.69006" lon="6.04031">
        <ele>209.60000610352</ele>
        <time>2014-04-16T07:41:36.000Z</time>
      </trkpt>
      <trkpt lat="47.69021" lon="6.03993">
        <ele>209</ele>
        <time>2014-04-16T07:41:44.000Z</time>
      </trkpt>
      <trkpt lat="47.69036" lon="6.03956">
        <ele>207.39999389648</ele>
        <time>2014-04-16T07:41:52.000Z</time>
      </trkpt>
      <trkpt lat="47.69049" lon="6.03925">
        <ele>206.19999694824</ele>
        <time>2014-04-16T07:41:59.000Z</time>
      </trkpt>
      <trkpt lat="47.69051" lon="6.0392">
        <ele>206</ele>
        <time>2014-04-16T07:42:00.000Z</time>
      </trkpt>
      <trkpt lat="47.69053" lon="6.03916">
        <ele>206</ele>
        <time>2014-04-16T07:42:01.000Z</time>
      </trkpt>
      <trkpt lat="47.69055" lon="6.03911">
        <ele>205.80000305176</ele>
        <time>2014-04-16T07:42:02.000Z</time>
      </trkpt>
      <trkpt lat="47.69056" lon="6.03907">
        <ele>205.80000305176</ele>
        <time>2014-04-16T07:42:03.000Z</time>
      </trkpt>
      <trkpt lat="47.69071" lon="6.0387">
        <ele>205</ele>
        <time>2014-04-16T07:42:10.000Z</time>
      </trkpt>
      <trkpt lat="47.69092" lon="6.03817">
        <ele>206</ele>
        <time>2014-04-16T07:42:19.000Z</time>
      </trkpt>
      <trkpt lat="47.69107" lon="6.03778">
        <ele>207.80000305176</ele>
        <time>2014-04-16T07:42:25.000Z</time>
      </trkpt>
      <trkpt lat="47.6911" lon="6.03771">
        <ele>208</ele>
        <time>2014-04-16T07:42:26.000Z</time>
      </trkpt>
      <trkpt lat="47.69112" lon="6.03764">
        <ele>208.39999389648</ele>
        <time>2014-04-16T07:42:27.000Z</time>
      </trkpt>
      <trkpt lat="47.69113" lon="6.03757">
        <ele>208.80000305176</ele>
        <time>2014-04-16T07:42:28.000Z</time>
      </trkpt>
      <trkpt lat="47.69115" lon="6.0375">
        <ele>209</ele>
        <time>2014-04-16T07:42:29.000Z</time>
      </trkpt>
      <trkpt lat="47.69122" lon="6.03725">
        <ele>209.60000610352</ele>
        <time>2014-04-16T07:42:33.000Z</time>
      </trkpt>
      <trkpt lat="47.69131" lon="6.03687">
        <ele>211.80000305176</ele>
        <time>2014-04-16T07:42:40.000Z</time>
      </trkpt>
      <trkpt lat="47.69139" lon="6.03654">
        <ele>214.19999694824</ele>
        <time>2014-04-16T07:42:47.000Z</time>
      </trkpt>
      <trkpt lat="47.69143" lon="6.03646">
        <ele>214.80000305176</ele>
        <time>2014-04-16T07:42:50.000Z</time>
      </trkpt>
      <trkpt lat="47.69145" lon="6.03646">
        <ele>214.80000305176</ele>
        <time>2014-04-16T07:42:51.000Z</time>
      </trkpt>
      <trkpt lat="47.69156" lon="6.03649">
        <ele>214.60000610352</ele>
        <time>2014-04-16T07:42:56.000Z</time>
      </trkpt>
      <trkpt lat="47.6916" lon="6.03653">
        <ele>214.19999694824</ele>
        <time>2014-04-16T07:42:58.000Z</time>
      </trkpt>
      <trkpt lat="47.69162" lon="6.03656">
        <ele>214</ele>
        <time>2014-04-16T07:42:59.000Z</time>
      </trkpt>
      <trkpt lat="47.69163" lon="6.03658">
        <ele>213.80000305176</ele>
        <time>2014-04-16T07:43:00.000Z</time>
      </trkpt>
      <trkpt lat="47.69166" lon="6.0366">
        <ele>213.80000305176</ele>
        <time>2014-04-16T07:43:01.000Z</time>
      </trkpt>
      <trkpt lat="47.69168" lon="6.03662">
        <ele>213.60000610352</ele>
        <time>2014-04-16T07:43:02.000Z</time>
      </trkpt>
      <trkpt lat="47.69174" lon="6.03668">
        <ele>213.19999694824</ele>
        <time>2014-04-16T07:43:05.000Z</time>
      </trkpt>
      <trkpt lat="47.69176" lon="6.0367">
        <ele>213.19999694824</ele>
        <time>2014-04-16T07:43:06.000Z</time>
      </trkpt>
      <trkpt lat="47.69179" lon="6.0367">
        <ele>213.39999389648</ele>
        <time>2014-04-16T07:43:07.000Z</time>
      </trkpt>
      <trkpt lat="47.69181" lon="6.03671">
        <ele>213.39999389648</ele>
        <time>2014-04-16T07:43:08.000Z</time>
      </trkpt>
      <trkpt lat="47.69183" lon="6.0367">
        <ele>213.39999389648</ele>
        <time>2014-04-16T07:43:09.000Z</time>
      </trkpt>
      <trkpt lat="47.69186" lon="6.03669">
        <ele>213.60000610352</ele>
        <time>2014-04-16T07:43:10.000Z</time>
      </trkpt>
      <trkpt lat="47.69192" lon="6.03663">
        <ele>214.39999389648</ele>
        <time>2014-04-16T07:43:13.000Z</time>
      </trkpt>
      <trkpt lat="47.69194" lon="6.0366">
        <ele>214.80000305176</ele>
        <time>2014-04-16T07:43:14.000Z</time>
      </trkpt>
      <trkpt lat="47.69196" lon="6.03658">
        <ele>215.19999694824</ele>
        <time>2014-04-16T07:43:15.000Z</time>
      </trkpt>
      <trkpt lat="47.69197" lon="6.03656">
        <ele>215.60000610352</ele>
        <time>2014-04-16T07:43:16.000Z</time>
      </trkpt>
      <trkpt lat="47.69199" lon="6.03653">
        <ele>216.19999694824</ele>
        <time>2014-04-16T07:43:17.000Z</time>
      </trkpt>
      <trkpt lat="47.69207" lon="6.03647">
        <ele>217.60000610352</ele>
        <time>2014-04-16T07:43:21.000Z</time>
      </trkpt>
      <trkpt lat="47.69209" lon="6.03646">
        <ele>217.80000305176</ele>
        <time>2014-04-16T07:43:22.000Z</time>
      </trkpt>
      <trkpt lat="47.69211" lon="6.03645">
        <ele>218.19999694824</ele>
        <time>2014-04-16T07:43:23.000Z</time>
      </trkpt>
      <trkpt lat="47.69213" lon="6.03645">
        <ele>218.39999389648</ele>
        <time>2014-04-16T07:43:24.000Z</time>
      </trkpt>
      <trkpt lat="47.69215" lon="6.03644">
        <ele>218.60000610352</ele>
        <time>2014-04-16T07:43:25.000Z</time>
      </trkpt>
      <trkpt lat="47.69221" lon="6.03645">
        <ele>219</ele>
        <time>2014-04-16T07:43:28.000Z</time>
      </trkpt>
      <trkpt lat="47.69223" lon="6.03646">
        <ele>219</ele>
        <time>2014-04-16T07:43:29.000Z</time>
      </trkpt>
      <trkpt lat="47.69228" lon="6.03647">
        <ele>219.39999389648</ele>
        <time>2014-04-16T07:43:31.000Z</time>
      </trkpt>
      <trkpt lat="47.6923" lon="6.03647">
        <ele>219.60000610352</ele>
        <time>2014-04-16T07:43:32.000Z</time>
      </trkpt>
      <trkpt lat="47.69233" lon="6.03647">
        <ele>219.80000305176</ele>
        <time>2014-04-16T07:43:33.000Z</time>
      </trkpt>
      <trkpt lat="47.69236" lon="6.03647">
        <ele>220</ele>
        <time>2014-04-16T07:43:34.000Z</time>
      </trkpt>
      <trkpt lat="47.69238" lon="6.03647">
        <ele>220.19999694824</ele>
        <time>2014-04-16T07:43:35.000Z</time>
      </trkpt>
      <trkpt lat="47.69256" lon="6.03639">
        <ele>222.39999389648</ele>
        <time>2014-04-16T07:43:42.000Z</time>
      </trkpt>
      <trkpt lat="47.69258" lon="6.03638">
        <ele>222.60000610352</ele>
        <time>2014-04-16T07:43:43.000Z</time>
      </trkpt>
      <trkpt lat="47.6926" lon="6.03636">
        <ele>222.80000305176</ele>
        <time>2014-04-16T07:43:44.000Z</time>
      </trkpt>
      <trkpt lat="47.69263" lon="6.03634">
        <ele>223.19999694824</ele>
        <time>2014-04-16T07:43:45.000Z</time>
      </trkpt>
      <trkpt lat="47.69264" lon="6.03633">
        <ele>223.39999389648</ele>
        <time>2014-04-16T07:43:46.000Z</time>
      </trkpt>
      <trkpt lat="47.69266" lon="6.03631">
        <ele>223.60000610352</ele>
        <time>2014-04-16T07:43:47.000Z</time>
      </trkpt>
      <trkpt lat="47.6927" lon="6.03627">
        <ele>224.19999694824</ele>
        <time>2014-04-16T07:43:49.000Z</time>
      </trkpt>
      <trkpt lat="47.69283" lon="6.03618">
        <ele>225.60000610352</ele>
        <time>2014-04-16T07:43:55.000Z</time>
      </trkpt>
      <trkpt lat="47.69285" lon="6.03615">
        <ele>225.80000305176</ele>
        <time>2014-04-16T07:43:56.000Z</time>
      </trkpt>
      <trkpt lat="47.69286" lon="6.03613">
        <ele>226</ele>
        <time>2014-04-16T07:43:57.000Z</time>
      </trkpt>
      <trkpt lat="47.69285" lon="6.03611">
        <ele>226.19999694824</ele>
        <time>2014-04-16T07:43:58.000Z</time>
      </trkpt>
      <trkpt lat="47.69284" lon="6.03611">
        <ele>226</ele>
        <time>2014-04-16T07:43:59.000Z</time>
      </trkpt>
      <trkpt lat="47.69283" lon="6.03613">
        <ele>225.80000305176</ele>
        <time>2014-04-16T07:44:00.000Z</time>
      </trkpt>
      <trkpt lat="47.69274" lon="6.03621">
        <ele>224.80000305176</ele>
        <time>2014-04-16T07:44:05.000Z</time>
      </trkpt>
      <trkpt lat="47.69275" lon="6.03624">
        <ele>224.60000610352</ele>
        <time>2014-04-16T07:44:06.000Z</time>
      </trkpt>
      <trkpt lat="47.6928" lon="6.0362">
        <ele>225.19999694824</ele>
        <time>2014-04-16T07:44:09.000Z</time>
      </trkpt>
      <trkpt lat="47.69283" lon="6.03613">
        <ele>226</ele>
        <time>2014-04-16T07:44:11.000Z</time>
      </trkpt>
      <trkpt lat="47.6929" lon="6.03607">
        <ele>226.80000305176</ele>
        <time>2014-04-16T07:44:14.000Z</time>
      </trkpt>
      <trkpt lat="47.69299" lon="6.03593">
        <ele>228</ele>
        <time>2014-04-16T07:44:20.000Z</time>
      </trkpt>
      <trkpt lat="47.69309" lon="6.03579">
        <ele>229</ele>
        <time>2014-04-16T07:44:27.000Z</time>
      </trkpt>
      <trkpt lat="47.69322" lon="6.03568">
        <ele>230</ele>
        <time>2014-04-16T07:44:34.000Z</time>
      </trkpt>
      <trkpt lat="47.69324" lon="6.03567">
        <ele>230.19999694824</ele>
        <time>2014-04-16T07:44:35.000Z</time>
      </trkpt>
      <trkpt lat="47.69326" lon="6.03566">
        <ele>230.19999694824</ele>
        <time>2014-04-16T07:44:36.000Z</time>
      </trkpt>
      <trkpt lat="47.69328" lon="6.03565">
        <ele>230.39999389648</ele>
        <time>2014-04-16T07:44:37.000Z</time>
      </trkpt>
      <trkpt lat="47.6933" lon="6.03564">
        <ele>230.60000610352</ele>
        <time>2014-04-16T07:44:38.000Z</time>
      </trkpt>
      <trkpt lat="47.69341" lon="6.03559">
        <ele>231</ele>
        <time>2014-04-16T07:44:43.000Z</time>
      </trkpt>
      <trkpt lat="47.69353" lon="6.03553">
        <ele>231.39999389648</ele>
        <time>2014-04-16T07:44:49.000Z</time>
      </trkpt>
      <trkpt lat="47.69354" lon="6.03552">
        <ele>231.39999389648</ele>
        <time>2014-04-16T07:44:50.000Z</time>
      </trkpt>
      <trkpt lat="47.69356" lon="6.03552">
        <ele>231.39999389648</ele>
        <time>2014-04-16T07:44:51.000Z</time>
      </trkpt>
      <trkpt lat="47.69358" lon="6.03551">
        <ele>231.39999389648</ele>
        <time>2014-04-16T07:44:52.000Z</time>
      </trkpt>
      <trkpt lat="47.6936" lon="6.0355">
        <ele>231.39999389648</ele>
        <time>2014-04-16T07:44:53.000Z</time>
      </trkpt>
      <trkpt lat="47.69371" lon="6.03543">
        <ele>231.80000305176</ele>
        <time>2014-04-16T07:44:59.000Z</time>
      </trkpt>
      <trkpt lat="47.69374" lon="6.0354">
        <ele>232</ele>
        <time>2014-04-16T07:45:01.000Z</time>
      </trkpt>
      <trkpt lat="47.69375" lon="6.03538">
        <ele>232</ele>
        <time>2014-04-16T07:45:02.000Z</time>
      </trkpt>
      <trkpt lat="47.69377" lon="6.03537">
        <ele>232</ele>
        <time>2014-04-16T07:45:03.000Z</time>
      </trkpt>
      <trkpt lat="47.69378" lon="6.03536">
        <ele>232</ele>
        <time>2014-04-16T07:45:04.000Z</time>
      </trkpt>
      <trkpt lat="47.6938" lon="6.03534">
        <ele>232.19999694824</ele>
        <time>2014-04-16T07:45:05.000Z</time>
      </trkpt>
      <trkpt lat="47.69383" lon="6.03532">
        <ele>232.19999694824</ele>
        <time>2014-04-16T07:45:07.000Z</time>
      </trkpt>
      <trkpt lat="47.69392" lon="6.03524">
        <ele>232.39999389648</ele>
        <time>2014-04-16T07:45:13.000Z</time>
      </trkpt>
      <trkpt lat="47.69404" lon="6.03512">
        <ele>232.60000610352</ele>
        <time>2014-04-16T07:45:21.000Z</time>
      </trkpt>
      <trkpt lat="47.69417" lon="6.03502">
        <ele>232.60000610352</ele>
        <time>2014-04-16T07:45:28.000Z</time>
      </trkpt>
      <trkpt lat="47.6942" lon="6.035">
        <ele>232.80000305176</ele>
        <time>2014-04-16T07:45:30.000Z</time>
      </trkpt>
      <trkpt lat="47.69421" lon="6.03499">
        <ele>232.80000305176</ele>
        <time>2014-04-16T07:45:31.000Z</time>
      </trkpt>
      <trkpt lat="47.69423" lon="6.03497">
        <ele>232.80000305176</ele>
        <time>2014-04-16T07:45:32.000Z</time>
      </trkpt>
      <trkpt lat="47.69424" lon="6.03495">
        <ele>232.80000305176</ele>
        <time>2014-04-16T07:45:33.000Z</time>
      </trkpt>
      <trkpt lat="47.69426" lon="6.03493">
        <ele>232.80000305176</ele>
        <time>2014-04-16T07:45:34.000Z</time>
      </trkpt>
      <trkpt lat="47.69427" lon="6.03491">
        <ele>232.80000305176</ele>
        <time>2014-04-16T07:45:35.000Z</time>
      </trkpt>
      <trkpt lat="47.6944" lon="6.03479">
        <ele>233.19999694824</ele>
        <time>2014-04-16T07:45:43.000Z</time>
      </trkpt>
      <trkpt lat="47.69446" lon="6.03473">
        <ele>233.39999389648</ele>
        <time>2014-04-16T07:45:47.000Z</time>
      </trkpt>
      <trkpt lat="47.69448" lon="6.03471">
        <ele>233.39999389648</ele>
        <time>2014-04-16T07:45:48.000Z</time>
      </trkpt>
      <trkpt lat="47.69449" lon="6.03469">
        <ele>233.60000610352</ele>
        <time>2014-04-16T07:45:49.000Z</time>
      </trkpt>
      <trkpt lat="47.69451" lon="6.03467">
        <ele>233.60000610352</ele>
        <time>2014-04-16T07:45:50.000Z</time>
      </trkpt>
      <trkpt lat="47.69452" lon="6.03465">
        <ele>233.80000305176</ele>
        <time>2014-04-16T07:45:51.000Z</time>
      </trkpt>
      <trkpt lat="47.69465" lon="6.0345">
        <ele>234.39999389648</ele>
        <time>2014-04-16T07:45:59.000Z</time>
      </trkpt>
      <trkpt lat="47.6947" lon="6.03442">
        <ele>234.80000305176</ele>
        <time>2014-04-16T07:46:03.000Z</time>
      </trkpt>
      <trkpt lat="47.69472" lon="6.0344">
        <ele>235</ele>
        <time>2014-04-16T07:46:04.000Z</time>
      </trkpt>
      <trkpt lat="47.69473" lon="6.03437">
        <ele>235</ele>
        <time>2014-04-16T07:46:05.000Z</time>
      </trkpt>
      <trkpt lat="47.69475" lon="6.03435">
        <ele>235.19999694824</ele>
        <time>2014-04-16T07:46:06.000Z</time>
      </trkpt>
      <trkpt lat="47.69486" lon="6.03418">
        <ele>235.80000305176</ele>
        <time>2014-04-16T07:46:14.000Z</time>
      </trkpt>
      <trkpt lat="47.69499" lon="6.03397">
        <ele>236.80000305176</ele>
        <time>2014-04-16T07:46:21.000Z</time>
      </trkpt>
      <trkpt lat="47.69517" lon="6.03368">
        <ele>235.60000610352</ele>
        <time>2014-04-16T07:46:28.000Z</time>
      </trkpt>
      <trkpt lat="47.6952" lon="6.03363">
        <ele>235.39999389648</ele>
        <time>2014-04-16T07:46:29.000Z</time>
      </trkpt>
      <trkpt lat="47.69523" lon="6.03358">
        <ele>235</ele>
        <time>2014-04-16T07:46:30.000Z</time>
      </trkpt>
      <trkpt lat="47.69526" lon="6.03353">
        <ele>234.80000305176</ele>
        <time>2014-04-16T07:46:31.000Z</time>
      </trkpt>
      <trkpt lat="47.69529" lon="6.03348">
        <ele>234.39999389648</ele>
        <time>2014-04-16T07:46:32.000Z</time>
      </trkpt>
      <trkpt lat="47.69533" lon="6.03342">
        <ele>234.19999694824</ele>
        <time>2014-04-16T07:46:33.000Z</time>
      </trkpt>
      <trkpt lat="47.69542" lon="6.03324">
        <ele>234</ele>
        <time>2014-04-16T07:46:36.000Z</time>
      </trkpt>
      <trkpt lat="47.69545" lon="6.03318">
        <ele>234</ele>
        <time>2014-04-16T07:46:37.000Z</time>
      </trkpt>
      <trkpt lat="47.69562" lon="6.03282">
        <ele>234.39999389648</ele>
        <time>2014-04-16T07:46:44.000Z</time>
      </trkpt>
      <trkpt lat="47.69576" lon="6.0325">
        <ele>235.19999694824</ele>
        <time>2014-04-16T07:46:51.000Z</time>
      </trkpt>
      <trkpt lat="47.69593" lon="6.03218">
        <ele>236</ele>
        <time>2014-04-16T07:47:00.000Z</time>
      </trkpt>
      <trkpt lat="47.69596" lon="6.03199">
        <ele>236.39999389648</ele>
        <time>2014-04-16T07:47:05.000Z</time>
      </trkpt>
      <trkpt lat="47.69591" lon="6.03178">
        <ele>236.60000610352</ele>
        <time>2014-04-16T07:47:11.000Z</time>
      </trkpt>
      <trkpt lat="47.69585" lon="6.03147">
        <ele>237</ele>
        <time>2014-04-16T07:47:19.000Z</time>
      </trkpt>
      <trkpt lat="47.69581" lon="6.0312">
        <ele>236.60000610352</ele>
        <time>2014-04-16T07:47:25.000Z</time>
      </trkpt>
      <trkpt lat="47.69574" lon="6.0308">
        <ele>236.19999694824</ele>
        <time>2014-04-16T07:47:33.000Z</time>
      </trkpt>
      <trkpt lat="47.69569" lon="6.03048">
        <ele>235.60000610352</ele>
        <time>2014-04-16T07:47:39.000Z</time>
      </trkpt>
      <trkpt lat="47.69566" lon="6.03015">
        <ele>235.19999694824</ele>
        <time>2014-04-16T07:47:45.000Z</time>
      </trkpt>
      <trkpt lat="47.69563" lon="6.02979">
        <ele>234.80000305176</ele>
        <time>2014-04-16T07:47:52.000Z</time>
      </trkpt>
      <trkpt lat="47.69562" lon="6.0294">
        <ele>234.80000305176</ele>
        <time>2014-04-16T07:47:59.000Z</time>
      </trkpt>
      <trkpt lat="47.69561" lon="6.02935">
        <ele>234.80000305176</ele>
        <time>2014-04-16T07:48:00.000Z</time>
      </trkpt>
      <trkpt lat="47.69561" lon="6.02912">
        <ele>235.19999694824</ele>
        <time>2014-04-16T07:48:04.000Z</time>
      </trkpt>
      <trkpt lat="47.69558" lon="6.02869">
        <ele>236.19999694824</ele>
        <time>2014-04-16T07:48:12.000Z</time>
      </trkpt>
      <trkpt lat="47.69557" lon="6.02864">
        <ele>236.39999389648</ele>
        <time>2014-04-16T07:48:13.000Z</time>
      </trkpt>
      <trkpt lat="47.69557" lon="6.02859">
        <ele>236.39999389648</ele>
        <time>2014-04-16T07:48:14.000Z</time>
      </trkpt>
      <trkpt lat="47.69557" lon="6.02854">
        <ele>236.39999389648</ele>
        <time>2014-04-16T07:48:15.000Z</time>
      </trkpt>
      <trkpt lat="47.69557" lon="6.02849">
        <ele>236.60000610352</ele>
        <time>2014-04-16T07:48:16.000Z</time>
      </trkpt>
      <trkpt lat="47.69554" lon="6.02828">
        <ele>236.80000305176</ele>
        <time>2014-04-16T07:48:20.000Z</time>
      </trkpt>
      <trkpt lat="47.69546" lon="6.02794">
        <ele>237.39999389648</ele>
        <time>2014-04-16T07:48:27.000Z</time>
      </trkpt>
      <trkpt lat="47.69541" lon="6.02776">
        <ele>237.80000305176</ele>
        <time>2014-04-16T07:48:32.000Z</time>
      </trkpt>
      <trkpt lat="47.6954" lon="6.02772">
        <ele>237.80000305176</ele>
        <time>2014-04-16T07:48:33.000Z</time>
      </trkpt>
      <trkpt lat="47.69539" lon="6.02769">
        <ele>238</ele>
        <time>2014-04-16T07:48:34.000Z</time>
      </trkpt>
      <trkpt lat="47.69538" lon="6.02765">
        <ele>238</ele>
        <time>2014-04-16T07:48:35.000Z</time>
      </trkpt>
      <trkpt lat="47.69537" lon="6.02761">
        <ele>238.19999694824</ele>
        <time>2014-04-16T07:48:36.000Z</time>
      </trkpt>
      <trkpt lat="47.69529" lon="6.02732">
        <ele>238.60000610352</ele>
        <time>2014-04-16T07:48:43.000Z</time>
      </trkpt>
      <trkpt lat="47.69529" lon="6.02716">
        <ele>238.60000610352</ele>
        <time>2014-04-16T07:48:46.000Z</time>
      </trkpt>
      <trkpt lat="47.69531" lon="6.02711">
        <ele>238.39999389648</ele>
        <time>2014-04-16T07:48:47.000Z</time>
      </trkpt>
      <trkpt lat="47.69541" lon="6.02698">
        <ele>238.19999694824</ele>
        <time>2014-04-16T07:48:50.000Z</time>
      </trkpt>
      <trkpt lat="47.69549" lon="6.02688">
        <ele>238</ele>
        <time>2014-04-16T07:48:52.000Z</time>
      </trkpt>
      <trkpt lat="47.69553" lon="6.02682">
        <ele>238.39999389648</ele>
        <time>2014-04-16T07:48:53.000Z</time>
      </trkpt>
      <trkpt lat="47.69559" lon="6.0267">
        <ele>239</ele>
        <time>2014-04-16T07:48:55.000Z</time>
      </trkpt>
      <trkpt lat="47.69562" lon="6.02664">
        <ele>239.39999389648</ele>
        <time>2014-04-16T07:48:56.000Z</time>
      </trkpt>
      <trkpt lat="47.69564" lon="6.02657">
        <ele>239.60000610352</ele>
        <time>2014-04-16T07:48:57.000Z</time>
      </trkpt>
      <trkpt lat="47.69567" lon="6.02649">
        <ele>240</ele>
        <time>2014-04-16T07:48:58.000Z</time>
      </trkpt>
      <trkpt lat="47.6957" lon="6.02634">
        <ele>240.39999389648</ele>
        <time>2014-04-16T07:49:00.000Z</time>
      </trkpt>
      <trkpt lat="47.69573" lon="6.02618">
        <ele>240.19999694824</ele>
        <time>2014-04-16T07:49:02.000Z</time>
      </trkpt>
      <trkpt lat="47.69578" lon="6.02587">
        <ele>240</ele>
        <time>2014-04-16T07:49:06.000Z</time>
      </trkpt>
      <trkpt lat="47.69579" lon="6.02579">
        <ele>240</ele>
        <time>2014-04-16T07:49:07.000Z</time>
      </trkpt>
      <trkpt lat="47.69581" lon="6.02571">
        <ele>240</ele>
        <time>2014-04-16T07:49:08.000Z</time>
      </trkpt>
      <trkpt lat="47.69582" lon="6.02563">
        <ele>239.80000305176</ele>
        <time>2014-04-16T07:49:09.000Z</time>
      </trkpt>
      <trkpt lat="47.69583" lon="6.02554">
        <ele>239.80000305176</ele>
        <time>2014-04-16T07:49:10.000Z</time>
      </trkpt>
      <trkpt lat="47.69586" lon="6.02529">
        <ele>238.19999694824</ele>
        <time>2014-04-16T07:49:13.000Z</time>
      </trkpt>
      <trkpt lat="47.69587" lon="6.0252">
        <ele>237.60000610352</ele>
        <time>2014-04-16T07:49:14.000Z</time>
      </trkpt>
      <trkpt lat="47.69587" lon="6.0251">
        <ele>237</ele>
        <time>2014-04-16T07:49:15.000Z</time>
      </trkpt>
      <trkpt lat="47.69588" lon="6.025">
        <ele>236.39999389648</ele>
        <time>2014-04-16T07:49:16.000Z</time>
      </trkpt>
      <trkpt lat="47.6959" lon="6.0249">
        <ele>235.60000610352</ele>
        <time>2014-04-16T07:49:17.000Z</time>
      </trkpt>
      <trkpt lat="47.69594" lon="6.02472">
        <ele>234.60000610352</ele>
        <time>2014-04-16T07:49:19.000Z</time>
      </trkpt>
      <trkpt lat="47.69597" lon="6.02463">
        <ele>234.39999389648</ele>
        <time>2014-04-16T07:49:20.000Z</time>
      </trkpt>
      <trkpt lat="47.696" lon="6.02454">
        <ele>234</ele>
        <time>2014-04-16T07:49:21.000Z</time>
      </trkpt>
      <trkpt lat="47.69602" lon="6.02446">
        <ele>233.80000305176</ele>
        <time>2014-04-16T07:49:22.000Z</time>
      </trkpt>
      <trkpt lat="47.69605" lon="6.02439">
        <ele>233.39999389648</ele>
        <time>2014-04-16T07:49:23.000Z</time>
      </trkpt>
      <trkpt lat="47.69607" lon="6.02433">
        <ele>233.19999694824</ele>
        <time>2014-04-16T07:49:24.000Z</time>
      </trkpt>
      <trkpt lat="47.69623" lon="6.02398">
        <ele>233</ele>
        <time>2014-04-16T07:49:30.000Z</time>
      </trkpt>
      <trkpt lat="47.69646" lon="6.02358">
        <ele>233.80000305176</ele>
        <time>2014-04-16T07:49:38.000Z</time>
      </trkpt>
      <trkpt lat="47.69667" lon="6.02341">
        <ele>233.19999694824</ele>
        <time>2014-04-16T07:49:44.000Z</time>
      </trkpt>
      <trkpt lat="47.69678" lon="6.02335">
        <ele>233.39999389648</ele>
        <time>2014-04-16T07:49:47.000Z</time>
      </trkpt>
      <trkpt lat="47.69681" lon="6.02333">
        <ele>233.60000610352</ele>
        <time>2014-04-16T07:49:48.000Z</time>
      </trkpt>
      <trkpt lat="47.69684" lon="6.02332">
        <ele>233.60000610352</ele>
        <time>2014-04-16T07:49:49.000Z</time>
      </trkpt>
      <trkpt lat="47.69687" lon="6.0233">
        <ele>233.80000305176</ele>
        <time>2014-04-16T07:49:50.000Z</time>
      </trkpt>
      <trkpt lat="47.69691" lon="6.02328">
        <ele>234</ele>
        <time>2014-04-16T07:49:51.000Z</time>
      </trkpt>
      <trkpt lat="47.69694" lon="6.02327">
        <ele>234.19999694824</ele>
        <time>2014-04-16T07:49:52.000Z</time>
      </trkpt>
      <trkpt lat="47.69705" lon="6.02323">
        <ele>235</ele>
        <time>2014-04-16T07:49:55.000Z</time>
      </trkpt>
      <trkpt lat="47.69709" lon="6.02323">
        <ele>235.19999694824</ele>
        <time>2014-04-16T07:49:56.000Z</time>
      </trkpt>
      <trkpt lat="47.69712" lon="6.02322">
        <ele>235.39999389648</ele>
        <time>2014-04-16T07:49:57.000Z</time>
      </trkpt>
      <trkpt lat="47.69715" lon="6.0232">
        <ele>235.60000610352</ele>
        <time>2014-04-16T07:49:58.000Z</time>
      </trkpt>
      <trkpt lat="47.69718" lon="6.02319">
        <ele>235.80000305176</ele>
        <time>2014-04-16T07:49:59.000Z</time>
      </trkpt>
      <trkpt lat="47.69741" lon="6.02315">
        <ele>237.19999694824</ele>
        <time>2014-04-16T07:50:06.000Z</time>
      </trkpt>
      <trkpt lat="47.69744" lon="6.02315">
        <ele>237.39999389648</ele>
        <time>2014-04-16T07:50:07.000Z</time>
      </trkpt>
      <trkpt lat="47.69747" lon="6.02314">
        <ele>237.60000610352</ele>
        <time>2014-04-16T07:50:08.000Z</time>
      </trkpt>
      <trkpt lat="47.6975" lon="6.02313">
        <ele>237.80000305176</ele>
        <time>2014-04-16T07:50:09.000Z</time>
      </trkpt>
      <trkpt lat="47.69766" lon="6.02314">
        <ele>237.80000305176</ele>
        <time>2014-04-16T07:50:15.000Z</time>
      </trkpt>
      <trkpt lat="47.69768" lon="6.02318">
        <ele>237.60000610352</ele>
        <time>2014-04-16T07:50:16.000Z</time>
      </trkpt>
      <trkpt lat="47.69776" lon="6.02333">
        <ele>236.80000305176</ele>
        <time>2014-04-16T07:50:21.000Z</time>
      </trkpt>
      <trkpt lat="47.69788" lon="6.0233">
        <ele>237</ele>
        <time>2014-04-16T07:50:26.000Z</time>
      </trkpt>
      <trkpt lat="47.69788" lon="6.02317">
        <ele>237.60000610352</ele>
        <time>2014-04-16T07:50:30.000Z</time>
      </trkpt>
      <trkpt lat="47.69788" lon="6.02314">
        <ele>237.80000305176</ele>
        <time>2014-04-16T07:50:31.000Z</time>
      </trkpt>
      <trkpt lat="47.69789" lon="6.02312">
        <ele>237.80000305176</ele>
        <time>2014-04-16T07:50:32.000Z</time>
      </trkpt>
      <trkpt lat="47.69793" lon="6.02309">
        <ele>238</ele>
        <time>2014-04-16T07:50:34.000Z</time>
      </trkpt>
      <trkpt lat="47.69795" lon="6.02308">
        <ele>238</ele>
        <time>2014-04-16T07:50:35.000Z</time>
      </trkpt>
      <trkpt lat="47.69797" lon="6.02307">
        <ele>238</ele>
        <time>2014-04-16T07:50:36.000Z</time>
      </trkpt>
      <trkpt lat="47.698" lon="6.02307">
        <ele>238</ele>
        <time>2014-04-16T07:50:37.000Z</time>
      </trkpt>
      <trkpt lat="47.69804" lon="6.02306">
        <ele>238</ele>
        <time>2014-04-16T07:50:38.000Z</time>
      </trkpt>
      <trkpt lat="47.69807" lon="6.02305">
        <ele>238</ele>
        <time>2014-04-16T07:50:39.000Z</time>
      </trkpt>
      <trkpt lat="47.6981" lon="6.02303">
        <ele>238</ele>
        <time>2014-04-16T07:50:40.000Z</time>
      </trkpt>
      <trkpt lat="47.69835" lon="6.02288">
        <ele>238.39999389648</ele>
        <time>2014-04-16T07:50:48.000Z</time>
      </trkpt>
      <trkpt lat="47.69852" lon="6.02274">
        <ele>239.19999694824</ele>
        <time>2014-04-16T07:50:53.000Z</time>
      </trkpt>
      <trkpt lat="47.69868" lon="6.02253">
        <ele>240.19999694824</ele>
        <time>2014-04-16T07:50:59.000Z</time>
      </trkpt>
      <trkpt lat="47.69882" lon="6.02218">
        <ele>241.80000305176</ele>
        <time>2014-04-16T07:51:07.000Z</time>
      </trkpt>
      <trkpt lat="47.69894" lon="6.02185">
        <ele>242.39999389648</ele>
        <time>2014-04-16T07:51:15.000Z</time>
      </trkpt>
      <trkpt lat="47.69899" lon="6.02158">
        <ele>242.60000610352</ele>
        <time>2014-04-16T07:51:21.000Z</time>
      </trkpt>
      <trkpt lat="47.6991" lon="6.02135">
        <ele>243.39999389648</ele>
        <time>2014-04-16T07:51:27.000Z</time>
      </trkpt>
      <trkpt lat="47.69921" lon="6.02121">
        <ele>244.19999694824</ele>
        <time>2014-04-16T07:51:33.000Z</time>
      </trkpt>
      <trkpt lat="47.69932" lon="6.02104">
        <ele>244.80000305176</ele>
        <time>2014-04-16T07:51:39.000Z</time>
      </trkpt>
      <trkpt lat="47.69941" lon="6.02092">
        <ele>245.19999694824</ele>
        <time>2014-04-16T07:51:44.000Z</time>
      </trkpt>
      <trkpt lat="47.69954" lon="6.02075">
        <ele>244.80000305176</ele>
        <time>2014-04-16T07:51:50.000Z</time>
      </trkpt>
      <trkpt lat="47.69967" lon="6.0206">
        <ele>243.60000610352</ele>
        <time>2014-04-16T07:51:56.000Z</time>
      </trkpt>
      <trkpt lat="47.69977" lon="6.02048">
        <ele>242.80000305176</ele>
        <time>2014-04-16T07:52:03.000Z</time>
      </trkpt>
      <trkpt lat="47.6999" lon="6.02036">
        <ele>242.19999694824</ele>
        <time>2014-04-16T07:52:09.000Z</time>
      </trkpt>
      <trkpt lat="47.70004" lon="6.02017">
        <ele>243</ele>
        <time>2014-04-16T07:52:15.000Z</time>
      </trkpt>
      <trkpt lat="47.70009" lon="6.02007">
        <ele>243.39999389648</ele>
        <time>2014-04-16T07:52:17.000Z</time>
      </trkpt>
      <trkpt lat="47.70021" lon="6.01989">
        <ele>243.80000305176</ele>
        <time>2014-04-16T07:52:20.000Z</time>
      </trkpt>
      <trkpt lat="47.70027" lon="6.01978">
        <ele>243.60000610352</ele>
        <time>2014-04-16T07:52:22.000Z</time>
      </trkpt>
      <trkpt lat="47.70034" lon="6.01967">
        <ele>243.19999694824</ele>
        <time>2014-04-16T07:52:24.000Z</time>
      </trkpt>
      <trkpt lat="47.70037" lon="6.01962">
        <ele>243</ele>
        <time>2014-04-16T07:52:25.000Z</time>
      </trkpt>
      <trkpt lat="47.7004" lon="6.01956">
        <ele>243</ele>
        <time>2014-04-16T07:52:26.000Z</time>
      </trkpt>
      <trkpt lat="47.70043" lon="6.0195">
        <ele>242.80000305176</ele>
        <time>2014-04-16T07:52:27.000Z</time>
      </trkpt>
      <trkpt lat="47.70046" lon="6.01945">
        <ele>242.60000610352</ele>
        <time>2014-04-16T07:52:28.000Z</time>
      </trkpt>
      <trkpt lat="47.70053" lon="6.01937">
        <ele>242.60000610352</ele>
        <time>2014-04-16T07:52:30.000Z</time>
      </trkpt>
      <trkpt lat="47.70065" lon="6.0192">
        <ele>244.19999694824</ele>
        <time>2014-04-16T07:52:35.000Z</time>
      </trkpt>
      <trkpt lat="47.70076" lon="6.01912">
        <ele>245</ele>
        <time>2014-04-16T07:52:40.000Z</time>
      </trkpt>
      <trkpt lat="47.70084" lon="6.01904">
        <ele>245.80000305176</ele>
        <time>2014-04-16T07:52:45.000Z</time>
      </trkpt>
      <trkpt lat="47.70093" lon="6.01892">
        <ele>247.60000610352</ele>
        <time>2014-04-16T07:52:51.000Z</time>
      </trkpt>
      <trkpt lat="47.70095" lon="6.01889">
        <ele>247.80000305176</ele>
        <time>2014-04-16T07:52:52.000Z</time>
      </trkpt>
      <trkpt lat="47.70096" lon="6.01887">
        <ele>248</ele>
        <time>2014-04-16T07:52:53.000Z</time>
      </trkpt>
      <trkpt lat="47.70098" lon="6.01884">
        <ele>248.39999389648</ele>
        <time>2014-04-16T07:52:54.000Z</time>
      </trkpt>
      <trkpt lat="47.70099" lon="6.01882">
        <ele>248.60000610352</ele>
        <time>2014-04-16T07:52:55.000Z</time>
      </trkpt>
      <trkpt lat="47.701" lon="6.01879">
        <ele>248.80000305176</ele>
        <time>2014-04-16T07:52:56.000Z</time>
      </trkpt>
      <trkpt lat="47.70102" lon="6.01876">
        <ele>249</ele>
        <time>2014-04-16T07:52:57.000Z</time>
      </trkpt>
      <trkpt lat="47.70103" lon="6.01875">
        <ele>249.19999694824</ele>
        <time>2014-04-16T07:52:58.000Z</time>
      </trkpt>
      <trkpt lat="47.70108" lon="6.01868">
        <ele>249.80000305176</ele>
        <time>2014-04-16T07:53:02.000Z</time>
      </trkpt>
      <trkpt lat="47.70109" lon="6.01867">
        <ele>250</ele>
        <time>2014-04-16T07:53:03.000Z</time>
      </trkpt>
      <trkpt lat="47.7011" lon="6.01865">
        <ele>250.19999694824</ele>
        <time>2014-04-16T07:53:04.000Z</time>
      </trkpt>
      <trkpt lat="47.70111" lon="6.01864">
        <ele>250.39999389648</ele>
        <time>2014-04-16T07:53:05.000Z</time>
      </trkpt>
      <trkpt lat="47.70115" lon="6.01858">
        <ele>251</ele>
        <time>2014-04-16T07:53:09.000Z</time>
      </trkpt>
      <trkpt lat="47.70123" lon="6.01847">
        <ele>252</ele>
        <time>2014-04-16T07:53:14.000Z</time>
      </trkpt>
      <trkpt lat="47.70126" lon="6.01841">
        <ele>252.39999389648</ele>
        <time>2014-04-16T07:53:16.000Z</time>
      </trkpt>
      <trkpt lat="47.70128" lon="6.01838">
        <ele>252.39999389648</ele>
        <time>2014-04-16T07:53:17.000Z</time>
      </trkpt>
      <trkpt lat="47.7013" lon="6.01835">
        <ele>252.60000610352</ele>
        <time>2014-04-16T07:53:18.000Z</time>
      </trkpt>
      <trkpt lat="47.70132" lon="6.01832">
        <ele>252.80000305176</ele>
        <time>2014-04-16T07:53:19.000Z</time>
      </trkpt>
      <trkpt lat="47.70135" lon="6.01829">
        <ele>252.80000305176</ele>
        <time>2014-04-16T07:53:20.000Z</time>
      </trkpt>
      <trkpt lat="47.70137" lon="6.01826">
        <ele>253</ele>
        <time>2014-04-16T07:53:21.000Z</time>
      </trkpt>
      <trkpt lat="47.70153" lon="6.01801">
        <ele>254</ele>
        <time>2014-04-16T07:53:28.000Z</time>
      </trkpt>
      <trkpt lat="47.70157" lon="6.01793">
        <ele>254.19999694824</ele>
        <time>2014-04-16T07:53:32.000Z</time>
      </trkpt>
      <trkpt lat="47.70159" lon="6.01791">
        <ele>254</ele>
        <time>2014-04-16T07:53:33.000Z</time>
      </trkpt>
      <trkpt lat="47.70162" lon="6.01785">
        <ele>254</ele>
        <time>2014-04-16T07:53:36.000Z</time>
      </trkpt>
      <trkpt lat="47.70163" lon="6.01783">
        <ele>254</ele>
        <time>2014-04-16T07:53:37.000Z</time>
      </trkpt>
      <trkpt lat="47.70167" lon="6.01779">
        <ele>253.80000305176</ele>
        <time>2014-04-16T07:53:39.000Z</time>
      </trkpt>
      <trkpt lat="47.70174" lon="6.01765">
        <ele>253.60000610352</ele>
        <time>2014-04-16T07:53:45.000Z</time>
      </trkpt>
      <trkpt lat="47.70176" lon="6.01762">
        <ele>253.39999389648</ele>
        <time>2014-04-16T07:53:47.000Z</time>
      </trkpt>
      <trkpt lat="47.70181" lon="6.01754">
        <ele>253.19999694824</ele>
        <time>2014-04-16T07:53:50.000Z</time>
      </trkpt>
      <trkpt lat="47.70184" lon="6.01749">
        <ele>253.19999694824</ele>
        <time>2014-04-16T07:53:52.000Z</time>
      </trkpt>
      <trkpt lat="47.7019" lon="6.01736">
        <ele>253.19999694824</ele>
        <time>2014-04-16T07:53:57.000Z</time>
      </trkpt>
      <trkpt lat="47.70199" lon="6.0172">
        <ele>253.60000610352</ele>
        <time>2014-04-16T07:54:02.000Z</time>
      </trkpt>
      <trkpt lat="47.70206" lon="6.01704">
        <ele>254.19999694824</ele>
        <time>2014-04-16T07:54:07.000Z</time>
      </trkpt>
      <trkpt lat="47.70211" lon="6.01693">
        <ele>254.80000305176</ele>
        <time>2014-04-16T07:54:11.000Z</time>
      </trkpt>
      <trkpt lat="47.70215" lon="6.01687">
        <ele>255</ele>
        <time>2014-04-16T07:54:14.000Z</time>
      </trkpt>
      <trkpt lat="47.70218" lon="6.01682">
        <ele>255</ele>
        <time>2014-04-16T07:54:16.000Z</time>
      </trkpt>
      <trkpt lat="47.7022" lon="6.01678">
        <ele>255</ele>
        <time>2014-04-16T07:54:18.000Z</time>
      </trkpt>
      <trkpt lat="47.70229" lon="6.01658">
        <ele>255</ele>
        <time>2014-04-16T07:54:24.000Z</time>
      </trkpt>
      <trkpt lat="47.70231" lon="6.01654">
        <ele>254.80000305176</ele>
        <time>2014-04-16T07:54:25.000Z</time>
      </trkpt>
      <trkpt lat="47.70237" lon="6.01642">
        <ele>254.80000305176</ele>
        <time>2014-04-16T07:54:29.000Z</time>
      </trkpt>
      <trkpt lat="47.70238" lon="6.01639">
        <ele>254.80000305176</ele>
        <time>2014-04-16T07:54:30.000Z</time>
      </trkpt>
      <trkpt lat="47.70239" lon="6.01633">
        <ele>255</ele>
        <time>2014-04-16T07:54:32.000Z</time>
      </trkpt>
      <trkpt lat="47.7024" lon="6.01631">
        <ele>255.19999694824</ele>
        <time>2014-04-16T07:54:33.000Z</time>
      </trkpt>
      <trkpt lat="47.70242" lon="6.0163">
        <ele>255.19999694824</ele>
        <time>2014-04-16T07:54:34.000Z</time>
      </trkpt>
      <trkpt lat="47.70246" lon="6.01627">
        <ele>255</ele>
        <time>2014-04-16T07:54:37.000Z</time>
      </trkpt>
      <trkpt lat="47.70256" lon="6.01611">
        <ele>254.60000610352</ele>
        <time>2014-04-16T07:54:43.000Z</time>
      </trkpt>
      <trkpt lat="47.70265" lon="6.0159">
        <ele>254.19999694824</ele>
        <time>2014-04-16T07:54:49.000Z</time>
      </trkpt>
      <trkpt lat="47.70271" lon="6.01578">
        <ele>254</ele>
        <time>2014-04-16T07:54:53.000Z</time>
      </trkpt>
      <trkpt lat="47.70272" lon="6.01576">
        <ele>254</ele>
        <time>2014-04-16T07:54:54.000Z</time>
      </trkpt>
      <trkpt lat="47.70274" lon="6.01572">
        <ele>254.19999694824</ele>
        <time>2014-04-16T07:54:56.000Z</time>
      </trkpt>
      <trkpt lat="47.70277" lon="6.01568">
        <ele>254.39999389648</ele>
        <time>2014-04-16T07:54:58.000Z</time>
      </trkpt>
      <trkpt lat="47.70278" lon="6.01568">
        <ele>254.39999389648</ele>
        <time>2014-04-16T07:54:59.000Z</time>
      </trkpt>
      <trkpt lat="47.70279" lon="6.01567">
        <ele>254.39999389648</ele>
        <time>2014-04-16T07:55:00.000Z</time>
      </trkpt>
      <trkpt lat="47.70288" lon="6.01555">
        <ele>254.80000305176</ele>
        <time>2014-04-16T07:55:08.000Z</time>
      </trkpt>
      <trkpt lat="47.7029" lon="6.01551">
        <ele>254.80000305176</ele>
        <time>2014-04-16T07:55:10.000Z</time>
      </trkpt>
      <trkpt lat="47.70295" lon="6.01533">
        <ele>254.60000610352</ele>
        <time>2014-04-16T07:55:19.000Z</time>
      </trkpt>
      <trkpt lat="47.70296" lon="6.0153">
        <ele>254.60000610352</ele>
        <time>2014-04-16T07:55:20.000Z</time>
      </trkpt>
      <trkpt lat="47.70299" lon="6.01517">
        <ele>254.60000610352</ele>
        <time>2014-04-16T07:55:24.000Z</time>
      </trkpt>
      <trkpt lat="47.703" lon="6.01514">
        <ele>254.39999389648</ele>
        <time>2014-04-16T07:55:25.000Z</time>
      </trkpt>
      <trkpt lat="47.70307" lon="6.01502">
        <ele>254.19999694824</ele>
        <time>2014-04-16T07:55:30.000Z</time>
      </trkpt>
      <trkpt lat="47.7031" lon="6.015">
        <ele>254.19999694824</ele>
        <time>2014-04-16T07:55:32.000Z</time>
      </trkpt>
      <trkpt lat="47.70321" lon="6.01487">
        <ele>254</ele>
        <time>2014-04-16T07:55:43.000Z</time>
      </trkpt>
      <trkpt lat="47.70322" lon="6.01484">
        <ele>254</ele>
        <time>2014-04-16T07:55:44.000Z</time>
      </trkpt>
      <trkpt lat="47.70328" lon="6.01477">
        <ele>254</ele>
        <time>2014-04-16T07:55:47.000Z</time>
      </trkpt>
      <trkpt lat="47.70332" lon="6.01471">
        <ele>254</ele>
        <time>2014-04-16T07:55:50.000Z</time>
      </trkpt>
      <trkpt lat="47.70337" lon="6.01459">
        <ele>253.60000610352</ele>
        <time>2014-04-16T07:55:55.000Z</time>
      </trkpt>
      <trkpt lat="47.70338" lon="6.01457">
        <ele>253.60000610352</ele>
        <time>2014-04-16T07:55:56.000Z</time>
      </trkpt>
      <trkpt lat="47.70338" lon="6.01454">
        <ele>253.39999389648</ele>
        <time>2014-04-16T07:55:57.000Z</time>
      </trkpt>
      <trkpt lat="47.70335" lon="6.01445">
        <ele>253.19999694824</ele>
        <time>2014-04-16T07:56:00.000Z</time>
      </trkpt>
      <trkpt lat="47.70329" lon="6.0144">
        <ele>253.19999694824</ele>
        <time>2014-04-16T07:56:04.000Z</time>
      </trkpt>
      <trkpt lat="47.70325" lon="6.01438">
        <ele>253.19999694824</ele>
        <time>2014-04-16T07:56:07.000Z</time>
      </trkpt>
      <trkpt lat="47.70315" lon="6.01431">
        <ele>253.19999694824</ele>
        <time>2014-04-16T07:56:14.000Z</time>
      </trkpt>
      <trkpt lat="47.70304" lon="6.01425">
        <ele>253.19999694824</ele>
        <time>2014-04-16T07:56:20.000Z</time>
      </trkpt>
      <trkpt lat="47.70293" lon="6.01418">
        <ele>253.19999694824</ele>
        <time>2014-04-16T07:56:26.000Z</time>
      </trkpt>
      <trkpt lat="47.70278" lon="6.01421">
        <ele>253.19999694824</ele>
        <time>2014-04-16T07:56:32.000Z</time>
      </trkpt>
      <trkpt lat="47.7026" lon="6.01427">
        <ele>253</ele>
        <time>2014-04-16T07:56:38.000Z</time>
      </trkpt>
      <trkpt lat="47.70256" lon="6.01426">
        <ele>253</ele>
        <time>2014-04-16T07:56:39.000Z</time>
      </trkpt>
      <trkpt lat="47.70243" lon="6.01425">
        <ele>253.60000610352</ele>
        <time>2014-04-16T07:56:43.000Z</time>
      </trkpt>
      <trkpt lat="47.70224" lon="6.01419">
        <ele>254.80000305176</ele>
        <time>2014-04-16T07:56:49.000Z</time>
      </trkpt>
      <trkpt lat="47.70209" lon="6.01413">
        <ele>255.60000610352</ele>
        <time>2014-04-16T07:56:54.000Z</time>
      </trkpt>
      <trkpt lat="47.70197" lon="6.01408">
        <ele>256.39999389648</ele>
        <time>2014-04-16T07:56:58.000Z</time>
      </trkpt>
      <trkpt lat="47.70195" lon="6.01406">
        <ele>256.60000610352</ele>
        <time>2014-04-16T07:56:59.000Z</time>
      </trkpt>
      <trkpt lat="47.70192" lon="6.01406">
        <ele>256.79998779297</ele>
        <time>2014-04-16T07:57:00.000Z</time>
      </trkpt>
      <trkpt lat="47.70189" lon="6.01405">
        <ele>256.79998779297</ele>
        <time>2014-04-16T07:57:01.000Z</time>
      </trkpt>
      <trkpt lat="47.70186" lon="6.01403">
        <ele>257</ele>
        <time>2014-04-16T07:57:02.000Z</time>
      </trkpt>
      <trkpt lat="47.70183" lon="6.01403">
        <ele>257.20001220703</ele>
        <time>2014-04-16T07:57:03.000Z</time>
      </trkpt>
      <trkpt lat="47.70167" lon="6.01396">
        <ele>258</ele>
        <time>2014-04-16T07:57:09.000Z</time>
      </trkpt>
      <trkpt lat="47.7015" lon="6.01391">
        <ele>258</ele>
        <time>2014-04-16T07:57:15.000Z</time>
      </trkpt>
      <trkpt lat="47.70136" lon="6.01386">
        <ele>258.20001220703</ele>
        <time>2014-04-16T07:57:21.000Z</time>
      </trkpt>
      <trkpt lat="47.70134" lon="6.01385">
        <ele>258.20001220703</ele>
        <time>2014-04-16T07:57:22.000Z</time>
      </trkpt>
      <trkpt lat="47.70131" lon="6.01384">
        <ele>258.20001220703</ele>
        <time>2014-04-16T07:57:23.000Z</time>
      </trkpt>
      <trkpt lat="47.70128" lon="6.01383">
        <ele>258.20001220703</ele>
        <time>2014-04-16T07:57:24.000Z</time>
      </trkpt>
      <trkpt lat="47.70125" lon="6.01382">
        <ele>258.20001220703</ele>
        <time>2014-04-16T07:57:25.000Z</time>
      </trkpt>
      <trkpt lat="47.70119" lon="6.01379">
        <ele>258.39999389648</ele>
        <time>2014-04-16T07:57:27.000Z</time>
      </trkpt>
      <trkpt lat="47.70103" lon="6.01362">
        <ele>258.79998779297</ele>
        <time>2014-04-16T07:57:34.000Z</time>
      </trkpt>
      <trkpt lat="47.70091" lon="6.01349">
        <ele>259</ele>
        <time>2014-04-16T07:57:39.000Z</time>
      </trkpt>
      <trkpt lat="47.7008" lon="6.01334">
        <ele>260</ele>
        <time>2014-04-16T07:57:45.000Z</time>
      </trkpt>
      <trkpt lat="47.70069" lon="6.01318">
        <ele>261</ele>
        <time>2014-04-16T07:57:51.000Z</time>
      </trkpt>
      <trkpt lat="47.70067" lon="6.01315">
        <ele>261.20001220703</ele>
        <time>2014-04-16T07:57:52.000Z</time>
      </trkpt>
      <trkpt lat="47.70065" lon="6.01312">
        <ele>261.39999389648</ele>
        <time>2014-04-16T07:57:53.000Z</time>
      </trkpt>
      <trkpt lat="47.70064" lon="6.01308">
        <ele>261.60000610352</ele>
        <time>2014-04-16T07:57:54.000Z</time>
      </trkpt>
      <trkpt lat="47.70062" lon="6.01305">
        <ele>262</ele>
        <time>2014-04-16T07:57:55.000Z</time>
      </trkpt>
      <trkpt lat="47.7006" lon="6.01303">
        <ele>262.20001220703</ele>
        <time>2014-04-16T07:57:56.000Z</time>
      </trkpt>
      <trkpt lat="47.70049" lon="6.01288">
        <ele>263.60000610352</ele>
        <time>2014-04-16T07:58:02.000Z</time>
      </trkpt>
      <trkpt lat="47.7004" lon="6.01276">
        <ele>264.60000610352</ele>
        <time>2014-04-16T07:58:07.000Z</time>
      </trkpt>
      <trkpt lat="47.70038" lon="6.01274">
        <ele>264.79998779297</ele>
        <time>2014-04-16T07:58:08.000Z</time>
      </trkpt>
      <trkpt lat="47.70037" lon="6.01271">
        <ele>265</ele>
        <time>2014-04-16T07:58:09.000Z</time>
      </trkpt>
      <trkpt lat="47.70035" lon="6.01268">
        <ele>265.20001220703</ele>
        <time>2014-04-16T07:58:10.000Z</time>
      </trkpt>
      <trkpt lat="47.70034" lon="6.01266">
        <ele>265.39999389648</ele>
        <time>2014-04-16T07:58:11.000Z</time>
      </trkpt>
      <trkpt lat="47.70026" lon="6.01255">
        <ele>266.39999389648</ele>
        <time>2014-04-16T07:58:16.000Z</time>
      </trkpt>
      <trkpt lat="47.70017" lon="6.01241">
        <ele>267.39999389648</ele>
        <time>2014-04-16T07:58:21.000Z</time>
      </trkpt>
      <trkpt lat="47.70016" lon="6.01238">
        <ele>267.60000610352</ele>
        <time>2014-04-16T07:58:22.000Z</time>
      </trkpt>
      <trkpt lat="47.70014" lon="6.01235">
        <ele>267.79998779297</ele>
        <time>2014-04-16T07:58:23.000Z</time>
      </trkpt>
      <trkpt lat="47.70013" lon="6.01233">
        <ele>268</ele>
        <time>2014-04-16T07:58:24.000Z</time>
      </trkpt>
      <trkpt lat="47.70004" lon="6.01214">
        <ele>269</ele>
        <time>2014-04-16T07:58:31.000Z</time>
      </trkpt>
      <trkpt lat="47.69996" lon="6.012">
        <ele>269.79998779297</ele>
        <time>2014-04-16T07:58:36.000Z</time>
      </trkpt>
      <trkpt lat="47.69991" lon="6.01189">
        <ele>270.39999389648</ele>
        <time>2014-04-16T07:58:40.000Z</time>
      </trkpt>
      <trkpt lat="47.69989" lon="6.01186">
        <ele>270.39999389648</ele>
        <time>2014-04-16T07:58:41.000Z</time>
      </trkpt>
      <trkpt lat="47.69988" lon="6.01184">
        <ele>270.60000610352</ele>
        <time>2014-04-16T07:58:42.000Z</time>
      </trkpt>
      <trkpt lat="47.69987" lon="6.01181">
        <ele>270.79998779297</ele>
        <time>2014-04-16T07:58:43.000Z</time>
      </trkpt>
      <trkpt lat="47.69986" lon="6.01178">
        <ele>271</ele>
        <time>2014-04-16T07:58:44.000Z</time>
      </trkpt>
      <trkpt lat="47.69984" lon="6.01175">
        <ele>271</ele>
        <time>2014-04-16T07:58:45.000Z</time>
      </trkpt>
      <trkpt lat="47.69982" lon="6.01172">
        <ele>271.20001220703</ele>
        <time>2014-04-16T07:58:46.000Z</time>
      </trkpt>
      <trkpt lat="47.69973" lon="6.01154">
        <ele>272.20001220703</ele>
        <time>2014-04-16T07:58:51.000Z</time>
      </trkpt>
      <trkpt lat="47.69972" lon="6.0115">
        <ele>272.39999389648</ele>
        <time>2014-04-16T07:58:52.000Z</time>
      </trkpt>
      <trkpt lat="47.6997" lon="6.01148">
        <ele>272.60000610352</ele>
        <time>2014-04-16T07:58:53.000Z</time>
      </trkpt>
      <trkpt lat="47.69968" lon="6.01145">
        <ele>272.79998779297</ele>
        <time>2014-04-16T07:58:54.000Z</time>
      </trkpt>
      <trkpt lat="47.69965" lon="6.01143">
        <ele>273.20001220703</ele>
        <time>2014-04-16T07:58:55.000Z</time>
      </trkpt>
      <trkpt lat="47.69958" lon="6.01134">
        <ele>273.60000610352</ele>
        <time>2014-04-16T07:58:58.000Z</time>
      </trkpt>
      <trkpt lat="47.69952" lon="6.01127">
        <ele>274.20001220703</ele>
        <time>2014-04-16T07:59:01.000Z</time>
      </trkpt>
      <trkpt lat="47.6995" lon="6.01124">
        <ele>274.39999389648</ele>
        <time>2014-04-16T07:59:02.000Z</time>
      </trkpt>
      <trkpt lat="47.69948" lon="6.01122">
        <ele>274.39999389648</ele>
        <time>2014-04-16T07:59:03.000Z</time>
      </trkpt>
      <trkpt lat="47.69946" lon="6.01119">
        <ele>274.60000610352</ele>
        <time>2014-04-16T07:59:04.000Z</time>
      </trkpt>
      <trkpt lat="47.69945" lon="6.01117">
        <ele>274.79998779297</ele>
        <time>2014-04-16T07:59:05.000Z</time>
      </trkpt>
      <trkpt lat="47.69937" lon="6.01104">
        <ele>275.20001220703</ele>
        <time>2014-04-16T07:59:10.000Z</time>
      </trkpt>
      <trkpt lat="47.69928" lon="6.01092">
        <ele>275.79998779297</ele>
        <time>2014-04-16T07:59:15.000Z</time>
      </trkpt>
      <trkpt lat="47.69927" lon="6.01089">
        <ele>276</ele>
        <time>2014-04-16T07:59:16.000Z</time>
      </trkpt>
      <trkpt lat="47.69925" lon="6.01086">
        <ele>276.20001220703</ele>
        <time>2014-04-16T07:59:17.000Z</time>
      </trkpt>
      <trkpt lat="47.69924" lon="6.01084">
        <ele>276.20001220703</ele>
        <time>2014-04-16T07:59:18.000Z</time>
      </trkpt>
      <trkpt lat="47.69922" lon="6.01081">
        <ele>276.20001220703</ele>
        <time>2014-04-16T07:59:19.000Z</time>
      </trkpt>
      <trkpt lat="47.69918" lon="6.01074">
        <ele>276.39999389648</ele>
        <time>2014-04-16T07:59:22.000Z</time>
      </trkpt>
      <trkpt lat="47.69909" lon="6.01056">
        <ele>276.79998779297</ele>
        <time>2014-04-16T07:59:28.000Z</time>
      </trkpt>
      <trkpt lat="47.69907" lon="6.01053">
        <ele>276.79998779297</ele>
        <time>2014-04-16T07:59:29.000Z</time>
      </trkpt>
      <trkpt lat="47.69901" lon="6.01046">
        <ele>277</ele>
        <time>2014-04-16T07:59:32.000Z</time>
      </trkpt>
      <trkpt lat="47.69896" lon="6.01042">
        <ele>277.39999389648</ele>
        <time>2014-04-16T07:59:34.000Z</time>
      </trkpt>
      <trkpt lat="47.69888" lon="6.01032">
        <ele>277.60000610352</ele>
        <time>2014-04-16T07:59:39.000Z</time>
      </trkpt>
      <trkpt lat="47.69884" lon="6.01027">
        <ele>277.79998779297</ele>
        <time>2014-04-16T07:59:42.000Z</time>
      </trkpt>
      <trkpt lat="47.69883" lon="6.01026">
        <ele>277.79998779297</ele>
        <time>2014-04-16T07:59:43.000Z</time>
      </trkpt>
      <trkpt lat="47.69882" lon="6.01024">
        <ele>278</ele>
        <time>2014-04-16T07:59:44.000Z</time>
      </trkpt>
      <trkpt lat="47.69879" lon="6.01022">
        <ele>278</ele>
        <time>2014-04-16T07:59:45.000Z</time>
      </trkpt>
      <trkpt lat="47.69877" lon="6.01021">
        <ele>278.20001220703</ele>
        <time>2014-04-16T07:59:46.000Z</time>
      </trkpt>
      <trkpt lat="47.6986" lon="6.01007">
        <ele>279</ele>
        <time>2014-04-16T07:59:53.000Z</time>
      </trkpt>
      <trkpt lat="47.69854" lon="6.01002">
        <ele>279.39999389648</ele>
        <time>2014-04-16T07:59:56.000Z</time>
      </trkpt>
      <trkpt lat="47.69851" lon="6.01">
        <ele>279.60000610352</ele>
        <time>2014-04-16T07:59:57.000Z</time>
      </trkpt>
      <trkpt lat="47.69849" lon="6.00998">
        <ele>279.60000610352</ele>
        <time>2014-04-16T07:59:58.000Z</time>
      </trkpt>
      <trkpt lat="47.69848" lon="6.00997">
        <ele>279.79998779297</ele>
        <time>2014-04-16T07:59:59.000Z</time>
      </trkpt>
      <trkpt lat="47.69846" lon="6.00996">
        <ele>279.79998779297</ele>
        <time>2014-04-16T08:00:00.000Z</time>
      </trkpt>
      <trkpt lat="47.69829" lon="6.00984">
        <ele>280.39999389648</ele>
        <time>2014-04-16T08:00:08.000Z</time>
      </trkpt>
      <trkpt lat="47.69825" lon="6.00978">
        <ele>280.39999389648</ele>
        <time>2014-04-16T08:00:10.000Z</time>
      </trkpt>
      <trkpt lat="47.69823" lon="6.00975">
        <ele>280.39999389648</ele>
        <time>2014-04-16T08:00:11.000Z</time>
      </trkpt>
      <trkpt lat="47.69821" lon="6.00973">
        <ele>280.39999389648</ele>
        <time>2014-04-16T08:00:12.000Z</time>
      </trkpt>
      <trkpt lat="47.69818" lon="6.00971">
        <ele>280.39999389648</ele>
        <time>2014-04-16T08:00:13.000Z</time>
      </trkpt>
      <trkpt lat="47.69815" lon="6.00969">
        <ele>280.60000610352</ele>
        <time>2014-04-16T08:00:14.000Z</time>
      </trkpt>
      <trkpt lat="47.69796" lon="6.00953">
        <ele>281</ele>
        <time>2014-04-16T08:00:22.000Z</time>
      </trkpt>
      <trkpt lat="47.6979" lon="6.00947">
        <ele>281.20001220703</ele>
        <time>2014-04-16T08:00:25.000Z</time>
      </trkpt>
      <trkpt lat="47.69788" lon="6.00945">
        <ele>281.20001220703</ele>
        <time>2014-04-16T08:00:26.000Z</time>
      </trkpt>
      <trkpt lat="47.69786" lon="6.00943">
        <ele>281.20001220703</ele>
        <time>2014-04-16T08:00:27.000Z</time>
      </trkpt>
      <trkpt lat="47.69783" lon="6.00941">
        <ele>281.20001220703</ele>
        <time>2014-04-16T08:00:28.000Z</time>
      </trkpt>
      <trkpt lat="47.69768" lon="6.00932">
        <ele>281.60000610352</ele>
        <time>2014-04-16T08:00:34.000Z</time>
      </trkpt>
      <trkpt lat="47.69756" lon="6.00922">
        <ele>282</ele>
        <time>2014-04-16T08:00:41.000Z</time>
      </trkpt>
      <trkpt lat="47.69755" lon="6.00921">
        <ele>282</ele>
        <time>2014-04-16T08:00:42.000Z</time>
      </trkpt>
      <trkpt lat="47.69754" lon="6.0092">
        <ele>282</ele>
        <time>2014-04-16T08:00:43.000Z</time>
      </trkpt>
      <trkpt lat="47.69753" lon="6.00917">
        <ele>282</ele>
        <time>2014-04-16T08:00:45.000Z</time>
      </trkpt>
      <trkpt lat="47.69754" lon="6.00915">
        <ele>282</ele>
        <time>2014-04-16T08:00:46.000Z</time>
      </trkpt>
      <trkpt lat="47.69757" lon="6.00918">
        <ele>282</ele>
        <time>2014-04-16T08:00:49.000Z</time>
      </trkpt>
      <trkpt lat="47.69756" lon="6.00921">
        <ele>282</ele>
        <time>2014-04-16T08:02:34.000Z</time>
      </trkpt>
      <trkpt lat="47.69756" lon="6.00916">
        <ele>282</ele>
        <time>2014-04-16T08:02:36.000Z</time>
      </trkpt>
      <trkpt lat="47.69756" lon="6.0091">
        <ele>282</ele>
        <time>2014-04-16T08:02:39.000Z</time>
      </trkpt>
      <trkpt lat="47.69757" lon="6.00904">
        <ele>282</ele>
        <time>2014-04-16T08:02:43.000Z</time>
      </trkpt>
      <trkpt lat="47.69758" lon="6.00901">
        <ele>281.79998779297</ele>
        <time>2014-04-16T08:02:44.000Z</time>
      </trkpt>
      <trkpt lat="47.69762" lon="6.00884">
        <ele>282</ele>
        <time>2014-04-16T08:02:49.000Z</time>
      </trkpt>
      <trkpt lat="47.69766" lon="6.00857">
        <ele>282.79998779297</ele>
        <time>2014-04-16T08:02:56.000Z</time>
      </trkpt>
      <trkpt lat="47.6977" lon="6.00839">
        <ele>283.20001220703</ele>
        <time>2014-04-16T08:03:01.000Z</time>
      </trkpt>
      <trkpt lat="47.69772" lon="6.00832">
        <ele>283.60000610352</ele>
        <time>2014-04-16T08:03:03.000Z</time>
      </trkpt>
      <trkpt lat="47.69776" lon="6.00806">
        <ele>284</ele>
        <time>2014-04-16T08:03:10.000Z</time>
      </trkpt>
      <trkpt lat="47.69776" lon="6.00798">
        <ele>284.39999389648</ele>
        <time>2014-04-16T08:03:12.000Z</time>
      </trkpt>
      <trkpt lat="47.69776" lon="6.00795">
        <ele>284.60000610352</ele>
        <time>2014-04-16T08:03:13.000Z</time>
      </trkpt>
      <trkpt lat="47.69777" lon="6.00792">
        <ele>284.60000610352</ele>
        <time>2014-04-16T08:03:14.000Z</time>
      </trkpt>
      <trkpt lat="47.69777" lon="6.00788">
        <ele>284.79998779297</ele>
        <time>2014-04-16T08:03:15.000Z</time>
      </trkpt>
      <trkpt lat="47.69777" lon="6.00783">
        <ele>285</ele>
        <time>2014-04-16T08:03:16.000Z</time>
      </trkpt>
      <trkpt lat="47.69778" lon="6.00751">
        <ele>286.60000610352</ele>
        <time>2014-04-16T08:03:23.000Z</time>
      </trkpt>
      <trkpt lat="47.69783" lon="6.00724">
        <ele>287.20001220703</ele>
        <time>2014-04-16T08:03:31.000Z</time>
      </trkpt>
      <trkpt lat="47.6979" lon="6.00704">
        <ele>287.79998779297</ele>
        <time>2014-04-16T08:03:37.000Z</time>
      </trkpt>
      <trkpt lat="47.69796" lon="6.00685">
        <ele>288.39999389648</ele>
        <time>2014-04-16T08:03:43.000Z</time>
      </trkpt>
      <trkpt lat="47.69797" lon="6.00682">
        <ele>288.39999389648</ele>
        <time>2014-04-16T08:03:44.000Z</time>
      </trkpt>
      <trkpt lat="47.69798" lon="6.0068">
        <ele>288.39999389648</ele>
        <time>2014-04-16T08:03:45.000Z</time>
      </trkpt>
      <trkpt lat="47.698" lon="6.00678">
        <ele>288.39999389648</ele>
        <time>2014-04-16T08:03:46.000Z</time>
      </trkpt>
      <trkpt lat="47.69801" lon="6.00677">
        <ele>288.39999389648</ele>
        <time>2014-04-16T08:03:47.000Z</time>
      </trkpt>
      <trkpt lat="47.69805" lon="6.00667">
        <ele>288.60000610352</ele>
        <time>2014-04-16T08:03:51.000Z</time>
      </trkpt>
      <trkpt lat="47.69807" lon="6.00655">
        <ele>289.20001220703</ele>
        <time>2014-04-16T08:03:56.000Z</time>
      </trkpt>
      <trkpt lat="47.69811" lon="6.00641">
        <ele>289.60000610352</ele>
        <time>2014-04-16T08:04:04.000Z</time>
      </trkpt>
      <trkpt lat="47.69816" lon="6.00627">
        <ele>290.39999389648</ele>
        <time>2014-04-16T08:04:11.000Z</time>
      </trkpt>
      <trkpt lat="47.69817" lon="6.00624">
        <ele>290.60000610352</ele>
        <time>2014-04-16T08:04:12.000Z</time>
      </trkpt>
      <trkpt lat="47.69817" lon="6.0062">
        <ele>290.60000610352</ele>
        <time>2014-04-16T08:04:13.000Z</time>
      </trkpt>
      <trkpt lat="47.69817" lon="6.00615">
        <ele>290.79998779297</ele>
        <time>2014-04-16T08:04:14.000Z</time>
      </trkpt>
      <trkpt lat="47.69818" lon="6.00612">
        <ele>290.79998779297</ele>
        <time>2014-04-16T08:04:15.000Z</time>
      </trkpt>
      <trkpt lat="47.69821" lon="6.00605">
        <ele>290.79998779297</ele>
        <time>2014-04-16T08:04:17.000Z</time>
      </trkpt>
      <trkpt lat="47.69828" lon="6.00592">
        <ele>290.60000610352</ele>
        <time>2014-04-16T08:04:22.000Z</time>
      </trkpt>
      <trkpt lat="47.69829" lon="6.00589">
        <ele>290.60000610352</ele>
        <time>2014-04-16T08:04:23.000Z</time>
      </trkpt>
      <trkpt lat="47.6983" lon="6.00586">
        <ele>290.60000610352</ele>
        <time>2014-04-16T08:04:24.000Z</time>
      </trkpt>
      <trkpt lat="47.69831" lon="6.00583">
        <ele>290.60000610352</ele>
        <time>2014-04-16T08:04:25.000Z</time>
      </trkpt>
      <trkpt lat="47.69832" lon="6.0058">
        <ele>290.79998779297</ele>
        <time>2014-04-16T08:04:26.000Z</time>
      </trkpt>
      <trkpt lat="47.69834" lon="6.00576">
        <ele>290.60000610352</ele>
        <time>2014-04-16T08:04:28.000Z</time>
      </trkpt>
      <trkpt lat="47.69836" lon="6.00567">
        <ele>290.79998779297</ele>
        <time>2014-04-16T08:04:32.000Z</time>
      </trkpt>
      <trkpt lat="47.69837" lon="6.00562">
        <ele>290.79998779297</ele>
        <time>2014-04-16T08:04:34.000Z</time>
      </trkpt>
      <trkpt lat="47.69837" lon="6.00559">
        <ele>291</ele>
        <time>2014-04-16T08:04:35.000Z</time>
      </trkpt>
      <trkpt lat="47.69838" lon="6.00555">
        <ele>291.20001220703</ele>
        <time>2014-04-16T08:04:37.000Z</time>
      </trkpt>
      <trkpt lat="47.69839" lon="6.00553">
        <ele>291.20001220703</ele>
        <time>2014-04-16T08:04:38.000Z</time>
      </trkpt>
      <trkpt lat="47.69842" lon="6.00543">
        <ele>291.60000610352</ele>
        <time>2014-04-16T08:04:42.000Z</time>
      </trkpt>
      <trkpt lat="47.6985" lon="6.00527">
        <ele>292</ele>
        <time>2014-04-16T08:04:49.000Z</time>
      </trkpt>
      <trkpt lat="47.69851" lon="6.00525">
        <ele>292.20001220703</ele>
        <time>2014-04-16T08:04:50.000Z</time>
      </trkpt>
      <trkpt lat="47.69853" lon="6.00523">
        <ele>292</ele>
        <time>2014-04-16T08:04:51.000Z</time>
      </trkpt>
      <trkpt lat="47.69854" lon="6.00521">
        <ele>292</ele>
        <time>2014-04-16T08:04:52.000Z</time>
      </trkpt>
      <trkpt lat="47.69855" lon="6.00519">
        <ele>292</ele>
        <time>2014-04-16T08:04:53.000Z</time>
      </trkpt>
      <trkpt lat="47.69856" lon="6.00516">
        <ele>292.20001220703</ele>
        <time>2014-04-16T08:04:54.000Z</time>
      </trkpt>
      <trkpt lat="47.69859" lon="6.00512">
        <ele>292.20001220703</ele>
        <time>2014-04-16T08:04:56.000Z</time>
      </trkpt>
      <trkpt lat="47.69867" lon="6.00497">
        <ele>292.60000610352</ele>
        <time>2014-04-16T08:05:03.000Z</time>
      </trkpt>
      <trkpt lat="47.69875" lon="6.00484">
        <ele>293</ele>
        <time>2014-04-16T08:05:09.000Z</time>
      </trkpt>
      <trkpt lat="47.69877" lon="6.00476">
        <ele>293.39999389648</ele>
        <time>2014-04-16T08:05:12.000Z</time>
      </trkpt>
      <trkpt lat="47.69878" lon="6.00473">
        <ele>293.60000610352</ele>
        <time>2014-04-16T08:05:13.000Z</time>
      </trkpt>
      <trkpt lat="47.69879" lon="6.00471">
        <ele>293.60000610352</ele>
        <time>2014-04-16T08:05:14.000Z</time>
      </trkpt>
      <trkpt lat="47.6988" lon="6.00468">
        <ele>293.60000610352</ele>
        <time>2014-04-16T08:05:15.000Z</time>
      </trkpt>
      <trkpt lat="47.69881" lon="6.00466">
        <ele>293.60000610352</ele>
        <time>2014-04-16T08:05:16.000Z</time>
      </trkpt>
      <trkpt lat="47.69888" lon="6.00449">
        <ele>293.79998779297</ele>
        <time>2014-04-16T08:05:23.000Z</time>
      </trkpt>
      <trkpt lat="47.6989" lon="6.00444">
        <ele>293.79998779297</ele>
        <time>2014-04-16T08:05:25.000Z</time>
      </trkpt>
      <trkpt lat="47.69891" lon="6.00442">
        <ele>294</ele>
        <time>2014-04-16T08:05:26.000Z</time>
      </trkpt>
      <trkpt lat="47.69892" lon="6.0044">
        <ele>294.20001220703</ele>
        <time>2014-04-16T08:05:27.000Z</time>
      </trkpt>
      <trkpt lat="47.69894" lon="6.00438">
        <ele>294.39999389648</ele>
        <time>2014-04-16T08:05:28.000Z</time>
      </trkpt>
      <trkpt lat="47.69895" lon="6.00436">
        <ele>294.60000610352</ele>
        <time>2014-04-16T08:05:29.000Z</time>
      </trkpt>
      <trkpt lat="47.69897" lon="6.00431">
        <ele>295</ele>
        <time>2014-04-16T08:05:31.000Z</time>
      </trkpt>
      <trkpt lat="47.69903" lon="6.00417">
        <ele>296.20001220703</ele>
        <time>2014-04-16T08:05:37.000Z</time>
      </trkpt>
      <trkpt lat="47.69911" lon="6.004">
        <ele>297.60000610352</ele>
        <time>2014-04-16T08:05:43.000Z</time>
      </trkpt>
      <trkpt lat="47.69913" lon="6.00398">
        <ele>297.79998779297</ele>
        <time>2014-04-16T08:05:44.000Z</time>
      </trkpt>
      <trkpt lat="47.69914" lon="6.00396">
        <ele>298</ele>
        <time>2014-04-16T08:05:45.000Z</time>
      </trkpt>
      <trkpt lat="47.69916" lon="6.00395">
        <ele>298</ele>
        <time>2014-04-16T08:05:46.000Z</time>
      </trkpt>
      <trkpt lat="47.69917" lon="6.00393">
        <ele>298.20001220703</ele>
        <time>2014-04-16T08:05:47.000Z</time>
      </trkpt>
      <trkpt lat="47.69919" lon="6.00389">
        <ele>298.39999389648</ele>
        <time>2014-04-16T08:05:49.000Z</time>
      </trkpt>
      <trkpt lat="47.69925" lon="6.00377">
        <ele>298.79998779297</ele>
        <time>2014-04-16T08:05:54.000Z</time>
      </trkpt>
      <trkpt lat="47.69929" lon="6.00366">
        <ele>299.20001220703</ele>
        <time>2014-04-16T08:05:58.000Z</time>
      </trkpt>
      <trkpt lat="47.6993" lon="6.00364">
        <ele>299.39999389648</ele>
        <time>2014-04-16T08:05:59.000Z</time>
      </trkpt>
      <trkpt lat="47.69931" lon="6.0036">
        <ele>299.60000610352</ele>
        <time>2014-04-16T08:06:00.000Z</time>
      </trkpt>
      <trkpt lat="47.69933" lon="6.00358">
        <ele>299.60000610352</ele>
        <time>2014-04-16T08:06:01.000Z</time>
      </trkpt>
      <trkpt lat="47.69935" lon="6.00356">
        <ele>299.60000610352</ele>
        <time>2014-04-16T08:06:02.000Z</time>
      </trkpt>
      <trkpt lat="47.6994" lon="6.00346">
        <ele>300</ele>
        <time>2014-04-16T08:06:06.000Z</time>
      </trkpt>
      <trkpt lat="47.69943" lon="6.00338">
        <ele>300.20001220703</ele>
        <time>2014-04-16T08:06:09.000Z</time>
      </trkpt>
      <trkpt lat="47.69945" lon="6.00333">
        <ele>300.39999389648</ele>
        <time>2014-04-16T08:06:11.000Z</time>
      </trkpt>
      <trkpt lat="47.69947" lon="6.00331">
        <ele>300.60000610352</ele>
        <time>2014-04-16T08:06:12.000Z</time>
      </trkpt>
      <trkpt lat="47.69948" lon="6.00329">
        <ele>300.60000610352</ele>
        <time>2014-04-16T08:06:13.000Z</time>
      </trkpt>
      <trkpt lat="47.69949" lon="6.00327">
        <ele>300.60000610352</ele>
        <time>2014-04-16T08:06:14.000Z</time>
      </trkpt>
      <trkpt lat="47.69951" lon="6.00325">
        <ele>300.60000610352</ele>
        <time>2014-04-16T08:06:15.000Z</time>
      </trkpt>
      <trkpt lat="47.69954" lon="6.00317">
        <ele>300.60000610352</ele>
        <time>2014-04-16T08:06:18.000Z</time>
      </trkpt>
      <trkpt lat="47.69964" lon="6.00299">
        <ele>301</ele>
        <time>2014-04-16T08:06:25.000Z</time>
      </trkpt>
      <trkpt lat="47.69973" lon="6.00284">
        <ele>301</ele>
        <time>2014-04-16T08:06:31.000Z</time>
      </trkpt>
      <trkpt lat="47.69984" lon="6.00268">
        <ele>301.20001220703</ele>
        <time>2014-04-16T08:06:38.000Z</time>
      </trkpt>
      <trkpt lat="47.69988" lon="6.00263">
        <ele>301.39999389648</ele>
        <time>2014-04-16T08:06:40.000Z</time>
      </trkpt>
      <trkpt lat="47.69989" lon="6.0026">
        <ele>301.39999389648</ele>
        <time>2014-04-16T08:06:41.000Z</time>
      </trkpt>
      <trkpt lat="47.69991" lon="6.00257">
        <ele>301.39999389648</ele>
        <time>2014-04-16T08:06:42.000Z</time>
      </trkpt>
      <trkpt lat="47.69993" lon="6.00254">
        <ele>301.60000610352</ele>
        <time>2014-04-16T08:06:43.000Z</time>
      </trkpt>
      <trkpt lat="47.69995" lon="6.00252">
        <ele>301.60000610352</ele>
        <time>2014-04-16T08:06:44.000Z</time>
      </trkpt>
      <trkpt lat="47.70008" lon="6.00233">
        <ele>301.60000610352</ele>
        <time>2014-04-16T08:06:51.000Z</time>
      </trkpt>
      <trkpt lat="47.70017" lon="6.00218">
        <ele>301.39999389648</ele>
        <time>2014-04-16T08:06:57.000Z</time>
      </trkpt>
      <trkpt lat="47.70019" lon="6.00215">
        <ele>301.39999389648</ele>
        <time>2014-04-16T08:07:00.000Z</time>
      </trkpt>
      <trkpt lat="47.7002" lon="6.0021">
        <ele>301.39999389648</ele>
        <time>2014-04-16T08:07:02.000Z</time>
      </trkpt>
      <trkpt lat="47.70021" lon="6.00208">
        <ele>301.39999389648</ele>
        <time>2014-04-16T08:07:03.000Z</time>
      </trkpt>
      <trkpt lat="47.70019" lon="6.00204">
        <ele>301.60000610352</ele>
        <time>2014-04-16T08:07:06.000Z</time>
      </trkpt>
      <trkpt lat="47.70019" lon="6.00203">
        <ele>301.79998779297</ele>
        <time>2014-04-16T08:07:07.000Z</time>
      </trkpt>
      <trkpt lat="47.70009" lon="6.00192">
        <ele>303.20001220703</ele>
        <time>2014-04-16T08:07:18.000Z</time>
      </trkpt>
      <trkpt lat="47.70007" lon="6.0019">
        <ele>303.39999389648</ele>
        <time>2014-04-16T08:07:19.000Z</time>
      </trkpt>
      <trkpt lat="47.70006" lon="6.00188">
        <ele>303.60000610352</ele>
        <time>2014-04-16T08:07:20.000Z</time>
      </trkpt>
      <trkpt lat="47.70005" lon="6.00187">
        <ele>303.60000610352</ele>
        <time>2014-04-16T08:07:21.000Z</time>
      </trkpt>
      <trkpt lat="47.70003" lon="6.00185">
        <ele>304</ele>
        <time>2014-04-16T08:07:23.000Z</time>
      </trkpt>
      <trkpt lat="47.70002" lon="6.00184">
        <ele>304</ele>
        <time>2014-04-16T08:07:24.000Z</time>
      </trkpt>
      <trkpt lat="47.69994" lon="6.00173">
        <ele>305</ele>
        <time>2014-04-16T08:07:31.000Z</time>
      </trkpt>
      <trkpt lat="47.69989" lon="6.00164">
        <ele>305.60000610352</ele>
        <time>2014-04-16T08:07:36.000Z</time>
      </trkpt>
      <trkpt lat="47.69986" lon="6.0016">
        <ele>306</ele>
        <time>2014-04-16T08:07:38.000Z</time>
      </trkpt>
      <trkpt lat="47.69984" lon="6.00157">
        <ele>306.20001220703</ele>
        <time>2014-04-16T08:07:39.000Z</time>
      </trkpt>
      <trkpt lat="47.69981" lon="6.00156">
        <ele>306.60000610352</ele>
        <time>2014-04-16T08:07:40.000Z</time>
      </trkpt>
      <trkpt lat="47.69971" lon="6.00145">
        <ele>307.60000610352</ele>
        <time>2014-04-16T08:07:46.000Z</time>
      </trkpt>
      <trkpt lat="47.6996" lon="6.0013">
        <ele>308.39999389648</ele>
        <time>2014-04-16T08:07:53.000Z</time>
      </trkpt>
      <trkpt lat="47.69948" lon="6.00115">
        <ele>309</ele>
        <time>2014-04-16T08:08:01.000Z</time>
      </trkpt>
      <trkpt lat="47.69942" lon="6.00109">
        <ele>309.39999389648</ele>
        <time>2014-04-16T08:08:05.000Z</time>
      </trkpt>
      <trkpt lat="47.69931" lon="6.00096">
        <ele>310</ele>
        <time>2014-04-16T08:08:11.000Z</time>
      </trkpt>
      <trkpt lat="47.69921" lon="6.00083">
        <ele>310.60000610352</ele>
        <time>2014-04-16T08:08:17.000Z</time>
      </trkpt>
      <trkpt lat="47.6992" lon="6.00082">
        <ele>310.60000610352</ele>
        <time>2014-04-16T08:08:18.000Z</time>
      </trkpt>
      <trkpt lat="47.69919" lon="6.00081">
        <ele>310.60000610352</ele>
        <time>2014-04-16T08:08:19.000Z</time>
      </trkpt>
      <trkpt lat="47.69915" lon="6.00075">
        <ele>310.60000610352</ele>
        <time>2014-04-16T08:08:24.000Z</time>
      </trkpt>
      <trkpt lat="47.69911" lon="6.00071">
        <ele>310.60000610352</ele>
        <time>2014-04-16T08:08:26.000Z</time>
      </trkpt>
      <trkpt lat="47.69897" lon="6.00054">
        <ele>310.79998779297</ele>
        <time>2014-04-16T08:08:33.000Z</time>
      </trkpt>
      <trkpt lat="47.69886" lon="6.00041">
        <ele>310.79998779297</ele>
        <time>2014-04-16T08:08:39.000Z</time>
      </trkpt>
      <trkpt lat="47.69877" lon="6.00031">
        <ele>310.79998779297</ele>
        <time>2014-04-16T08:08:45.000Z</time>
      </trkpt>
      <trkpt lat="47.69865" lon="6.00018">
        <ele>311</ele>
        <time>2014-04-16T08:08:53.000Z</time>
      </trkpt>
      <trkpt lat="47.69854" lon="6.00007">
        <ele>311.20001220703</ele>
        <time>2014-04-16T08:08:59.000Z</time>
      </trkpt>
      <trkpt lat="47.69846" lon="5.99996">
        <ele>311.20001220703</ele>
        <time>2014-04-16T08:09:05.000Z</time>
      </trkpt>
      <trkpt lat="47.69842" lon="5.99991">
        <ele>311.20001220703</ele>
        <time>2014-04-16T08:09:08.000Z</time>
      </trkpt>
      <trkpt lat="47.69834" lon="5.99981">
        <ele>311.20001220703</ele>
        <time>2014-04-16T08:09:13.000Z</time>
      </trkpt>
      <trkpt lat="47.69823" lon="5.99964">
        <ele>311.20001220703</ele>
        <time>2014-04-16T08:09:20.000Z</time>
      </trkpt>
      <trkpt lat="47.6981" lon="5.99946">
        <ele>311.60000610352</ele>
        <time>2014-04-16T08:09:27.000Z</time>
      </trkpt>
      <trkpt lat="47.69801" lon="5.99935">
        <ele>311.79998779297</ele>
        <time>2014-04-16T08:09:32.000Z</time>
      </trkpt>
      <trkpt lat="47.69787" lon="5.99918">
        <ele>312.20001220703</ele>
        <time>2014-04-16T08:09:38.000Z</time>
      </trkpt>
      <trkpt lat="47.69775" lon="5.99902">
        <ele>312.39999389648</ele>
        <time>2014-04-16T08:09:44.000Z</time>
      </trkpt>
      <trkpt lat="47.69765" lon="5.99888">
        <ele>313</ele>
        <time>2014-04-16T08:09:50.000Z</time>
      </trkpt>
      <trkpt lat="47.69764" lon="5.99884">
        <ele>313</ele>
        <time>2014-04-16T08:09:52.000Z</time>
      </trkpt>
      <trkpt lat="47.69767" lon="5.9988">
        <ele>313.20001220703</ele>
        <time>2014-04-16T08:09:55.000Z</time>
      </trkpt>
      <trkpt lat="47.69774" lon="5.9987">
        <ele>313.60000610352</ele>
        <time>2014-04-16T08:10:00.000Z</time>
      </trkpt>
      <trkpt lat="47.69777" lon="5.99868">
        <ele>313.60000610352</ele>
        <time>2014-04-16T08:10:01.000Z</time>
      </trkpt>
      <trkpt lat="47.69791" lon="5.99857">
        <ele>313.79998779297</ele>
        <time>2014-04-16T08:10:07.000Z</time>
      </trkpt>
      <trkpt lat="47.69797" lon="5.99851">
        <ele>313.79998779297</ele>
        <time>2014-04-16T08:10:10.000Z</time>
      </trkpt>
      <trkpt lat="47.69799" lon="5.9985">
        <ele>313.79998779297</ele>
        <time>2014-04-16T08:10:11.000Z</time>
      </trkpt>
      <trkpt lat="47.69802" lon="5.99848">
        <ele>313.79998779297</ele>
        <time>2014-04-16T08:10:12.000Z</time>
      </trkpt>
      <trkpt lat="47.69804" lon="5.99846">
        <ele>313.60000610352</ele>
        <time>2014-04-16T08:10:13.000Z</time>
      </trkpt>
      <trkpt lat="47.69806" lon="5.99845">
        <ele>313.60000610352</ele>
        <time>2014-04-16T08:10:14.000Z</time>
      </trkpt>
      <trkpt lat="47.69819" lon="5.99835">
        <ele>313.20001220703</ele>
        <time>2014-04-16T08:10:20.000Z</time>
      </trkpt>
      <trkpt lat="47.69835" lon="5.99822">
        <ele>312.79998779297</ele>
        <time>2014-04-16T08:10:27.000Z</time>
      </trkpt>
      <trkpt lat="47.69849" lon="5.9981">
        <ele>312</ele>
        <time>2014-04-16T08:10:34.000Z</time>
      </trkpt>
      <trkpt lat="47.69861" lon="5.99805">
        <ele>310.79998779297</ele>
        <time>2014-04-16T08:10:39.000Z</time>
      </trkpt>
      <trkpt lat="47.69863" lon="5.99802">
        <ele>310.60000610352</ele>
        <time>2014-04-16T08:10:40.000Z</time>
      </trkpt>
      <trkpt lat="47.69871" lon="5.99796">
        <ele>309.79998779297</ele>
        <time>2014-04-16T08:10:43.000Z</time>
      </trkpt>
      <trkpt lat="47.69885" lon="5.9978">
        <ele>308</ele>
        <time>2014-04-16T08:10:48.000Z</time>
      </trkpt>
      <trkpt lat="47.69901" lon="5.99759">
        <ele>306.60000610352</ele>
        <time>2014-04-16T08:10:54.000Z</time>
      </trkpt>
      <trkpt lat="47.69914" lon="5.99745">
        <ele>305.60000610352</ele>
        <time>2014-04-16T08:10:58.000Z</time>
      </trkpt>
      <trkpt lat="47.69918" lon="5.99742">
        <ele>305.39999389648</ele>
        <time>2014-04-16T08:10:59.000Z</time>
      </trkpt>
      <trkpt lat="47.69922" lon="5.99738">
        <ele>305</ele>
        <time>2014-04-16T08:11:00.000Z</time>
      </trkpt>
      <trkpt lat="47.69925" lon="5.99733">
        <ele>304.60000610352</ele>
        <time>2014-04-16T08:11:01.000Z</time>
      </trkpt>
      <trkpt lat="47.69928" lon="5.99729">
        <ele>304.20001220703</ele>
        <time>2014-04-16T08:11:02.000Z</time>
      </trkpt>
      <trkpt lat="47.6994" lon="5.99716">
        <ele>303</ele>
        <time>2014-04-16T08:11:06.000Z</time>
      </trkpt>
      <trkpt lat="47.69954" lon="5.997">
        <ele>301.79998779297</ele>
        <time>2014-04-16T08:11:12.000Z</time>
      </trkpt>
      <trkpt lat="47.69964" lon="5.99687">
        <ele>300.79998779297</ele>
        <time>2014-04-16T08:11:17.000Z</time>
      </trkpt>
      <trkpt lat="47.69974" lon="5.99674">
        <ele>300.60000610352</ele>
        <time>2014-04-16T08:11:23.000Z</time>
      </trkpt>
      <trkpt lat="47.69988" lon="5.99651">
        <ele>300.60000610352</ele>
        <time>2014-04-16T08:11:30.000Z</time>
      </trkpt>
      <trkpt lat="47.7" lon="5.99628">
        <ele>301.20001220703</ele>
        <time>2014-04-16T08:11:36.000Z</time>
      </trkpt>
      <trkpt lat="47.70012" lon="5.99608">
        <ele>301.20001220703</ele>
        <time>2014-04-16T08:11:44.000Z</time>
      </trkpt>
      <trkpt lat="47.70013" lon="5.99605">
        <ele>301.20001220703</ele>
        <time>2014-04-16T08:11:45.000Z</time>
      </trkpt>
      <trkpt lat="47.70015" lon="5.99602">
        <ele>301.20001220703</ele>
        <time>2014-04-16T08:11:46.000Z</time>
      </trkpt>
      <trkpt lat="47.70018" lon="5.99599">
        <ele>301</ele>
        <time>2014-04-16T08:11:47.000Z</time>
      </trkpt>
      <trkpt lat="47.7002" lon="5.99594">
        <ele>301</ele>
        <time>2014-04-16T08:11:48.000Z</time>
      </trkpt>
      <trkpt lat="47.70021" lon="5.99588">
        <ele>301.20001220703</ele>
        <time>2014-04-16T08:11:49.000Z</time>
      </trkpt>
      <trkpt lat="47.70026" lon="5.99577">
        <ele>301.20001220703</ele>
        <time>2014-04-16T08:11:52.000Z</time>
      </trkpt>
      <trkpt lat="47.70028" lon="5.99573">
        <ele>301</ele>
        <time>2014-04-16T08:11:53.000Z</time>
      </trkpt>
      <trkpt lat="47.7003" lon="5.99569">
        <ele>300.79998779297</ele>
        <time>2014-04-16T08:11:54.000Z</time>
      </trkpt>
      <trkpt lat="47.70031" lon="5.99564">
        <ele>300.79998779297</ele>
        <time>2014-04-16T08:11:55.000Z</time>
      </trkpt>
      <trkpt lat="47.70033" lon="5.9956">
        <ele>300.60000610352</ele>
        <time>2014-04-16T08:11:56.000Z</time>
      </trkpt>
      <trkpt lat="47.70035" lon="5.99555">
        <ele>300.39999389648</ele>
        <time>2014-04-16T08:11:57.000Z</time>
      </trkpt>
      <trkpt lat="47.70037" lon="5.9955">
        <ele>300</ele>
        <time>2014-04-16T08:11:58.000Z</time>
      </trkpt>
      <trkpt lat="47.70039" lon="5.99546">
        <ele>299.79998779297</ele>
        <time>2014-04-16T08:11:59.000Z</time>
      </trkpt>
      <trkpt lat="47.70041" lon="5.99541">
        <ele>299.60000610352</ele>
        <time>2014-04-16T08:12:00.000Z</time>
      </trkpt>
      <trkpt lat="47.70043" lon="5.99537">
        <ele>299.39999389648</ele>
        <time>2014-04-16T08:12:01.000Z</time>
      </trkpt>
      <trkpt lat="47.70044" lon="5.99534">
        <ele>299.20001220703</ele>
        <time>2014-04-16T08:12:02.000Z</time>
      </trkpt>
      <trkpt lat="47.70047" lon="5.99531">
        <ele>298.79998779297</ele>
        <time>2014-04-16T08:12:03.000Z</time>
      </trkpt>
      <trkpt lat="47.70048" lon="5.99528">
        <ele>298.60000610352</ele>
        <time>2014-04-16T08:12:04.000Z</time>
      </trkpt>
      <trkpt lat="47.7005" lon="5.99525">
        <ele>298.39999389648</ele>
        <time>2014-04-16T08:12:05.000Z</time>
      </trkpt>
      <trkpt lat="47.70052" lon="5.99521">
        <ele>298.39999389648</ele>
        <time>2014-04-16T08:12:06.000Z</time>
      </trkpt>
      <trkpt lat="47.70054" lon="5.99516">
        <ele>298.60000610352</ele>
        <time>2014-04-16T08:12:07.000Z</time>
      </trkpt>
      <trkpt lat="47.70057" lon="5.99511">
        <ele>298.79998779297</ele>
        <time>2014-04-16T08:12:08.000Z</time>
      </trkpt>
      <trkpt lat="47.70059" lon="5.99507">
        <ele>299</ele>
        <time>2014-04-16T08:12:09.000Z</time>
      </trkpt>
      <trkpt lat="47.7007" lon="5.99488">
        <ele>299.60000610352</ele>
        <time>2014-04-16T08:12:14.000Z</time>
      </trkpt>
      <trkpt lat="47.70074" lon="5.99482">
        <ele>299.60000610352</ele>
        <time>2014-04-16T08:12:17.000Z</time>
      </trkpt>
      <trkpt lat="47.70075" lon="5.9948">
        <ele>299.79998779297</ele>
        <time>2014-04-16T08:12:18.000Z</time>
      </trkpt>
      <trkpt lat="47.70077" lon="5.99478">
        <ele>299.79998779297</ele>
        <time>2014-04-16T08:12:19.000Z</time>
      </trkpt>
      <trkpt lat="47.70083" lon="5.99468">
        <ele>299.79998779297</ele>
        <time>2014-04-16T08:12:24.000Z</time>
      </trkpt>
      <trkpt lat="47.70085" lon="5.99464">
        <ele>300.20001220703</ele>
        <time>2014-04-16T08:12:26.000Z</time>
      </trkpt>
      <trkpt lat="47.70086" lon="5.99462">
        <ele>300.39999389648</ele>
        <time>2014-04-16T08:12:27.000Z</time>
      </trkpt>
      <trkpt lat="47.70087" lon="5.99459">
        <ele>300.79998779297</ele>
        <time>2014-04-16T08:12:28.000Z</time>
      </trkpt>
      <trkpt lat="47.70088" lon="5.99456">
        <ele>301</ele>
        <time>2014-04-16T08:12:29.000Z</time>
      </trkpt>
      <trkpt lat="47.70089" lon="5.99454">
        <ele>301.20001220703</ele>
        <time>2014-04-16T08:12:30.000Z</time>
      </trkpt>
      <trkpt lat="47.7009" lon="5.99452">
        <ele>301.39999389648</ele>
        <time>2014-04-16T08:12:31.000Z</time>
      </trkpt>
      <trkpt lat="47.70093" lon="5.99447">
        <ele>301.79998779297</ele>
        <time>2014-04-16T08:12:34.000Z</time>
      </trkpt>
      <trkpt lat="47.70095" lon="5.99442">
        <ele>302.20001220703</ele>
        <time>2014-04-16T08:12:36.000Z</time>
      </trkpt>
      <trkpt lat="47.70098" lon="5.99436">
        <ele>302.79998779297</ele>
        <time>2014-04-16T08:12:38.000Z</time>
      </trkpt>
      <trkpt lat="47.70099" lon="5.99434">
        <ele>303</ele>
        <time>2014-04-16T08:12:39.000Z</time>
      </trkpt>
      <trkpt lat="47.701" lon="5.99432">
        <ele>303.20001220703</ele>
        <time>2014-04-16T08:12:40.000Z</time>
      </trkpt>
      <trkpt lat="47.70101" lon="5.9943">
        <ele>303.39999389648</ele>
        <time>2014-04-16T08:12:41.000Z</time>
      </trkpt>
      <trkpt lat="47.70102" lon="5.99428">
        <ele>303.60000610352</ele>
        <time>2014-04-16T08:12:42.000Z</time>
      </trkpt>
      <trkpt lat="47.70104" lon="5.99423">
        <ele>304</ele>
        <time>2014-04-16T08:12:44.000Z</time>
      </trkpt>
      <trkpt lat="47.70105" lon="5.99421">
        <ele>304.20001220703</ele>
        <time>2014-04-16T08:12:45.000Z</time>
      </trkpt>
      <trkpt lat="47.70107" lon="5.9942">
        <ele>304.20001220703</ele>
        <time>2014-04-16T08:12:46.000Z</time>
      </trkpt>
      <trkpt lat="47.70109" lon="5.99416">
        <ele>304.60000610352</ele>
        <time>2014-04-16T08:12:48.000Z</time>
      </trkpt>
      <trkpt lat="47.7011" lon="5.99415">
        <ele>304.60000610352</ele>
        <time>2014-04-16T08:12:49.000Z</time>
      </trkpt>
      <trkpt lat="47.70119" lon="5.99395">
        <ele>306.39999389648</ele>
        <time>2014-04-16T08:13:00.000Z</time>
      </trkpt>
      <trkpt lat="47.7012" lon="5.99394">
        <ele>306.39999389648</ele>
        <time>2014-04-16T08:13:01.000Z</time>
      </trkpt>
      <trkpt lat="47.70121" lon="5.99394">
        <ele>306.60000610352</ele>
        <time>2014-04-16T08:13:02.000Z</time>
      </trkpt>
      <trkpt lat="47.70128" lon="5.99381">
        <ele>307.20001220703</ele>
        <time>2014-04-16T08:13:14.000Z</time>
      </trkpt>
      <trkpt lat="47.7013" lon="5.99378">
        <ele>307.39999389648</ele>
        <time>2014-04-16T08:13:15.000Z</time>
      </trkpt>
      <trkpt lat="47.70133" lon="5.99376">
        <ele>307.60000610352</ele>
        <time>2014-04-16T08:13:16.000Z</time>
      </trkpt>
      <trkpt lat="47.70134" lon="5.99373">
        <ele>307.60000610352</ele>
        <time>2014-04-16T08:13:17.000Z</time>
      </trkpt>
      <trkpt lat="47.70135" lon="5.99372">
        <ele>307.60000610352</ele>
        <time>2014-04-16T08:13:18.000Z</time>
      </trkpt>
      <trkpt lat="47.70136" lon="5.9937">
        <ele>307.79998779297</ele>
        <time>2014-04-16T08:13:19.000Z</time>
      </trkpt>
      <trkpt lat="47.70138" lon="5.99369">
        <ele>307.79998779297</ele>
        <time>2014-04-16T08:13:20.000Z</time>
      </trkpt>
      <trkpt lat="47.70146" lon="5.99361">
        <ele>308.20001220703</ele>
        <time>2014-04-16T08:13:25.000Z</time>
      </trkpt>
      <trkpt lat="47.70147" lon="5.99359">
        <ele>308.39999389648</ele>
        <time>2014-04-16T08:13:26.000Z</time>
      </trkpt>
      <trkpt lat="47.70148" lon="5.99358">
        <ele>308.39999389648</ele>
        <time>2014-04-16T08:13:27.000Z</time>
      </trkpt>
      <trkpt lat="47.7015" lon="5.99357">
        <ele>308.60000610352</ele>
        <time>2014-04-16T08:13:28.000Z</time>
      </trkpt>
      <trkpt lat="47.70151" lon="5.99356">
        <ele>308.60000610352</ele>
        <time>2014-04-16T08:13:29.000Z</time>
      </trkpt>
      <trkpt lat="47.70152" lon="5.99355">
        <ele>308.79998779297</ele>
        <time>2014-04-16T08:13:30.000Z</time>
      </trkpt>
      <trkpt lat="47.70153" lon="5.99354">
        <ele>308.79998779297</ele>
        <time>2014-04-16T08:13:31.000Z</time>
      </trkpt>
      <trkpt lat="47.70156" lon="5.99349">
        <ele>309.20001220703</ele>
        <time>2014-04-16T08:13:34.000Z</time>
      </trkpt>
      <trkpt lat="47.70159" lon="5.99346">
        <ele>309.60000610352</ele>
        <time>2014-04-16T08:13:36.000Z</time>
      </trkpt>
      <trkpt lat="47.7017" lon="5.99339">
        <ele>310</ele>
        <time>2014-04-16T08:13:45.000Z</time>
      </trkpt>
      <trkpt lat="47.70172" lon="5.99338">
        <ele>310.20001220703</ele>
        <time>2014-04-16T08:13:46.000Z</time>
      </trkpt>
      <trkpt lat="47.70173" lon="5.99337">
        <ele>310.20001220703</ele>
        <time>2014-04-16T08:13:47.000Z</time>
      </trkpt>
      <trkpt lat="47.7018" lon="5.99334">
        <ele>310.60000610352</ele>
        <time>2014-04-16T08:13:52.000Z</time>
      </trkpt>
      <trkpt lat="47.70182" lon="5.99333">
        <ele>310.79998779297</ele>
        <time>2014-04-16T08:13:53.000Z</time>
      </trkpt>
      <trkpt lat="47.70191" lon="5.99325">
        <ele>311.60000610352</ele>
        <time>2014-04-16T08:14:00.000Z</time>
      </trkpt>
      <trkpt lat="47.70195" lon="5.99324">
        <ele>311.79998779297</ele>
        <time>2014-04-16T08:14:03.000Z</time>
      </trkpt>
      <trkpt lat="47.70198" lon="5.99322">
        <ele>311.79998779297</ele>
        <time>2014-04-16T08:14:05.000Z</time>
      </trkpt>
      <trkpt lat="47.70199" lon="5.99322">
        <ele>311.79998779297</ele>
        <time>2014-04-16T08:14:06.000Z</time>
      </trkpt>
      <trkpt lat="47.70201" lon="5.99321">
        <ele>311.79998779297</ele>
        <time>2014-04-16T08:14:07.000Z</time>
      </trkpt>
      <trkpt lat="47.70202" lon="5.99321">
        <ele>311.79998779297</ele>
        <time>2014-04-16T08:14:08.000Z</time>
      </trkpt>
      <trkpt lat="47.70204" lon="5.99321">
        <ele>312</ele>
        <time>2014-04-16T08:14:09.000Z</time>
      </trkpt>
      <trkpt lat="47.70206" lon="5.99321">
        <ele>312</ele>
        <time>2014-04-16T08:14:10.000Z</time>
      </trkpt>
      <trkpt lat="47.70207" lon="5.99321">
        <ele>312</ele>
        <time>2014-04-16T08:14:11.000Z</time>
      </trkpt>
      <trkpt lat="47.7021" lon="5.9932">
        <ele>312</ele>
        <time>2014-04-16T08:14:13.000Z</time>
      </trkpt>
      <trkpt lat="47.70211" lon="5.9932">
        <ele>312</ele>
        <time>2014-04-16T08:14:14.000Z</time>
      </trkpt>
      <trkpt lat="47.70214" lon="5.99318">
        <ele>312.20001220703</ele>
        <time>2014-04-16T08:14:16.000Z</time>
      </trkpt>
      <trkpt lat="47.70216" lon="5.99318">
        <ele>312.20001220703</ele>
        <time>2014-04-16T08:14:17.000Z</time>
      </trkpt>
      <trkpt lat="47.70218" lon="5.99317">
        <ele>312.20001220703</ele>
        <time>2014-04-16T08:14:18.000Z</time>
      </trkpt>
      <trkpt lat="47.7022" lon="5.99317">
        <ele>312.20001220703</ele>
        <time>2014-04-16T08:14:20.000Z</time>
      </trkpt>
      <trkpt lat="47.70225" lon="5.99315">
        <ele>312.39999389648</ele>
        <time>2014-04-16T08:14:23.000Z</time>
      </trkpt>
      <trkpt lat="47.70228" lon="5.99314">
        <ele>312.60000610352</ele>
        <time>2014-04-16T08:14:25.000Z</time>
      </trkpt>
      <trkpt lat="47.70238" lon="5.99308">
        <ele>313</ele>
        <time>2014-04-16T08:14:32.000Z</time>
      </trkpt>
      <trkpt lat="47.70248" lon="5.99304">
        <ele>313.39999389648</ele>
        <time>2014-04-16T08:14:38.000Z</time>
      </trkpt>
      <trkpt lat="47.70249" lon="5.99303">
        <ele>313.39999389648</ele>
        <time>2014-04-16T08:14:39.000Z</time>
      </trkpt>
      <trkpt lat="47.70253" lon="5.99301">
        <ele>313.79998779297</ele>
        <time>2014-04-16T08:14:41.000Z</time>
      </trkpt>
      <trkpt lat="47.70254" lon="5.99301">
        <ele>313.79998779297</ele>
        <time>2014-04-16T08:14:42.000Z</time>
      </trkpt>
      <trkpt lat="47.70256" lon="5.993">
        <ele>313.79998779297</ele>
        <time>2014-04-16T08:14:43.000Z</time>
      </trkpt>
      <trkpt lat="47.70259" lon="5.99299">
        <ele>313.79998779297</ele>
        <time>2014-04-16T08:14:45.000Z</time>
      </trkpt>
      <trkpt lat="47.70262" lon="5.99297">
        <ele>314</ele>
        <time>2014-04-16T08:14:47.000Z</time>
      </trkpt>
      <trkpt lat="47.70263" lon="5.99295">
        <ele>314.20001220703</ele>
        <time>2014-04-16T08:14:48.000Z</time>
      </trkpt>
      <trkpt lat="47.70265" lon="5.99292">
        <ele>314.39999389648</ele>
        <time>2014-04-16T08:14:50.000Z</time>
      </trkpt>
      <trkpt lat="47.70267" lon="5.99291">
        <ele>314.60000610352</ele>
        <time>2014-04-16T08:14:51.000Z</time>
      </trkpt>
      <trkpt lat="47.70268" lon="5.9929">
        <ele>314.60000610352</ele>
        <time>2014-04-16T08:14:52.000Z</time>
      </trkpt>
      <trkpt lat="47.70269" lon="5.99289">
        <ele>314.60000610352</ele>
        <time>2014-04-16T08:14:53.000Z</time>
      </trkpt>
      <trkpt lat="47.70274" lon="5.99289">
        <ele>314.60000610352</ele>
        <time>2014-04-16T08:15:09.000Z</time>
      </trkpt>
      <trkpt lat="47.70276" lon="5.99289">
        <ele>314.60000610352</ele>
        <time>2014-04-16T08:15:10.000Z</time>
      </trkpt>
      <trkpt lat="47.70279" lon="5.99287">
        <ele>314.79998779297</ele>
        <time>2014-04-16T08:15:11.000Z</time>
      </trkpt>
      <trkpt lat="47.70287" lon="5.99283">
        <ele>315</ele>
        <time>2014-04-16T08:15:14.000Z</time>
      </trkpt>
      <trkpt lat="47.70292" lon="5.99281">
        <ele>315</ele>
        <time>2014-04-16T08:15:16.000Z</time>
      </trkpt>
      <trkpt lat="47.70309" lon="5.99273">
        <ele>315.60000610352</ele>
        <time>2014-04-16T08:15:22.000Z</time>
      </trkpt>
      <trkpt lat="47.70319" lon="5.99269">
        <ele>316</ele>
        <time>2014-04-16T08:15:27.000Z</time>
      </trkpt>
      <trkpt lat="47.70322" lon="5.99267">
        <ele>316.20001220703</ele>
        <time>2014-04-16T08:15:29.000Z</time>
      </trkpt>
      <trkpt lat="47.70324" lon="5.99266">
        <ele>316.20001220703</ele>
        <time>2014-04-16T08:15:30.000Z</time>
      </trkpt>
      <trkpt lat="47.70326" lon="5.99265">
        <ele>316.39999389648</ele>
        <time>2014-04-16T08:15:31.000Z</time>
      </trkpt>
      <trkpt lat="47.70328" lon="5.99263">
        <ele>316.60000610352</ele>
        <time>2014-04-16T08:15:32.000Z</time>
      </trkpt>
      <trkpt lat="47.7033" lon="5.99262">
        <ele>316.60000610352</ele>
        <time>2014-04-16T08:15:33.000Z</time>
      </trkpt>
      <trkpt lat="47.70332" lon="5.9926">
        <ele>316.79998779297</ele>
        <time>2014-04-16T08:15:34.000Z</time>
      </trkpt>
      <trkpt lat="47.70343" lon="5.99254">
        <ele>317.39999389648</ele>
        <time>2014-04-16T08:15:40.000Z</time>
      </trkpt>
      <trkpt lat="47.70346" lon="5.99253">
        <ele>317.60000610352</ele>
        <time>2014-04-16T08:15:42.000Z</time>
      </trkpt>
      <trkpt lat="47.70355" lon="5.99247">
        <ele>318.39999389648</ele>
        <time>2014-04-16T08:15:47.000Z</time>
      </trkpt>
      <trkpt lat="47.70361" lon="5.99242">
        <ele>318.60000610352</ele>
        <time>2014-04-16T08:15:49.000Z</time>
      </trkpt>
      <trkpt lat="47.70372" lon="5.9924">
        <ele>318.20001220703</ele>
        <time>2014-04-16T08:15:55.000Z</time>
      </trkpt>
      <trkpt lat="47.70374" lon="5.99239">
        <ele>318.20001220703</ele>
        <time>2014-04-16T08:15:56.000Z</time>
      </trkpt>
      <trkpt lat="47.70377" lon="5.99238">
        <ele>318.20001220703</ele>
        <time>2014-04-16T08:15:57.000Z</time>
      </trkpt>
      <trkpt lat="47.70379" lon="5.99237">
        <ele>318.20001220703</ele>
        <time>2014-04-16T08:15:58.000Z</time>
      </trkpt>
      <trkpt lat="47.70381" lon="5.99236">
        <ele>318.20001220703</ele>
        <time>2014-04-16T08:15:59.000Z</time>
      </trkpt>
      <trkpt lat="47.70389" lon="5.99231">
        <ele>318</ele>
        <time>2014-04-16T08:16:04.000Z</time>
      </trkpt>
      <trkpt lat="47.704" lon="5.99225">
        <ele>318</ele>
        <time>2014-04-16T08:16:11.000Z</time>
      </trkpt>
      <trkpt lat="47.70403" lon="5.99223">
        <ele>318</ele>
        <time>2014-04-16T08:16:13.000Z</time>
      </trkpt>
      <trkpt lat="47.70416" lon="5.99216">
        <ele>318.39999389648</ele>
        <time>2014-04-16T08:16:20.000Z</time>
      </trkpt>
      <trkpt lat="47.70417" lon="5.99215">
        <ele>318.39999389648</ele>
        <time>2014-04-16T08:16:21.000Z</time>
      </trkpt>
      <trkpt lat="47.70419" lon="5.99214">
        <ele>318.60000610352</ele>
        <time>2014-04-16T08:16:22.000Z</time>
      </trkpt>
      <trkpt lat="47.7042" lon="5.99212">
        <ele>318.79998779297</ele>
        <time>2014-04-16T08:16:23.000Z</time>
      </trkpt>
      <trkpt lat="47.70421" lon="5.99212">
        <ele>319</ele>
        <time>2014-04-16T08:16:24.000Z</time>
      </trkpt>
      <trkpt lat="47.70432" lon="5.99207">
        <ele>319.60000610352</ele>
        <time>2014-04-16T08:16:29.000Z</time>
      </trkpt>
      <trkpt lat="47.70432" lon="5.99208">
        <ele>319.39999389648</ele>
        <time>2014-04-16T08:16:30.000Z</time>
      </trkpt>
      <trkpt lat="47.70457" lon="5.99187">
        <ele>322.39999389648</ele>
        <time>2014-04-16T08:17:04.000Z</time>
      </trkpt>
      <trkpt lat="47.70458" lon="5.99185">
        <ele>322.79998779297</ele>
        <time>2014-04-16T08:17:05.000Z</time>
      </trkpt>
      <trkpt lat="47.70461" lon="5.99182">
        <ele>323.20001220703</ele>
        <time>2014-04-16T08:17:07.000Z</time>
      </trkpt>
      <trkpt lat="47.70466" lon="5.99175">
        <ele>323.79998779297</ele>
        <time>2014-04-16T08:17:12.000Z</time>
      </trkpt>
      <trkpt lat="47.70471" lon="5.99167">
        <ele>324.39999389648</ele>
        <time>2014-04-16T08:17:16.000Z</time>
      </trkpt>
      <trkpt lat="47.70473" lon="5.99166">
        <ele>324.39999389648</ele>
        <time>2014-04-16T08:17:18.000Z</time>
      </trkpt>
      <trkpt lat="47.70475" lon="5.99165">
        <ele>324.60000610352</ele>
        <time>2014-04-16T08:17:19.000Z</time>
      </trkpt>
      <trkpt lat="47.70477" lon="5.99161">
        <ele>324.79998779297</ele>
        <time>2014-04-16T08:17:21.000Z</time>
      </trkpt>
      <trkpt lat="47.70478" lon="5.99159">
        <ele>325</ele>
        <time>2014-04-16T08:17:22.000Z</time>
      </trkpt>
      <trkpt lat="47.7048" lon="5.99157">
        <ele>325.20001220703</ele>
        <time>2014-04-16T08:17:23.000Z</time>
      </trkpt>
      <trkpt lat="47.70483" lon="5.99153">
        <ele>325.60000610352</ele>
        <time>2014-04-16T08:17:25.000Z</time>
      </trkpt>
      <trkpt lat="47.70489" lon="5.99146">
        <ele>326</ele>
        <time>2014-04-16T08:17:29.000Z</time>
      </trkpt>
      <trkpt lat="47.70491" lon="5.99142">
        <ele>326.39999389648</ele>
        <time>2014-04-16T08:17:31.000Z</time>
      </trkpt>
      <trkpt lat="47.70492" lon="5.99141">
        <ele>326.39999389648</ele>
        <time>2014-04-16T08:17:32.000Z</time>
      </trkpt>
      <trkpt lat="47.70494" lon="5.9914">
        <ele>326.39999389648</ele>
        <time>2014-04-16T08:17:33.000Z</time>
      </trkpt>
      <trkpt lat="47.70496" lon="5.99137">
        <ele>326.60000610352</ele>
        <time>2014-04-16T08:17:34.000Z</time>
      </trkpt>
      <trkpt lat="47.70505" lon="5.99124">
        <ele>327.79998779297</ele>
        <time>2014-04-16T08:17:40.000Z</time>
      </trkpt>
      <trkpt lat="47.70507" lon="5.99122">
        <ele>328</ele>
        <time>2014-04-16T08:17:41.000Z</time>
      </trkpt>
      <trkpt lat="47.70511" lon="5.99118">
        <ele>328.20001220703</ele>
        <time>2014-04-16T08:17:44.000Z</time>
      </trkpt>
      <trkpt lat="47.70513" lon="5.99116">
        <ele>328.20001220703</ele>
        <time>2014-04-16T08:17:45.000Z</time>
      </trkpt>
      <trkpt lat="47.70514" lon="5.99114">
        <ele>328.39999389648</ele>
        <time>2014-04-16T08:17:46.000Z</time>
      </trkpt>
      <trkpt lat="47.70516" lon="5.99112">
        <ele>328.39999389648</ele>
        <time>2014-04-16T08:17:47.000Z</time>
      </trkpt>
      <trkpt lat="47.70525" lon="5.99099">
        <ele>329.39999389648</ele>
        <time>2014-04-16T08:17:54.000Z</time>
      </trkpt>
      <trkpt lat="47.70536" lon="5.99087">
        <ele>329.79998779297</ele>
        <time>2014-04-16T08:18:01.000Z</time>
      </trkpt>
      <trkpt lat="47.70537" lon="5.99086">
        <ele>329.79998779297</ele>
        <time>2014-04-16T08:18:02.000Z</time>
      </trkpt>
      <trkpt lat="47.70539" lon="5.99082">
        <ele>330</ele>
        <time>2014-04-16T08:18:04.000Z</time>
      </trkpt>
      <trkpt lat="47.7054" lon="5.9908">
        <ele>330.20001220703</ele>
        <time>2014-04-16T08:18:05.000Z</time>
      </trkpt>
      <trkpt lat="47.70541" lon="5.99078">
        <ele>330.20001220703</ele>
        <time>2014-04-16T08:18:06.000Z</time>
      </trkpt>
      <trkpt lat="47.70542" lon="5.99076">
        <ele>330.20001220703</ele>
        <time>2014-04-16T08:18:07.000Z</time>
      </trkpt>
      <trkpt lat="47.70543" lon="5.99074">
        <ele>330.39999389648</ele>
        <time>2014-04-16T08:18:08.000Z</time>
      </trkpt>
      <trkpt lat="47.7055" lon="5.99063">
        <ele>330.60000610352</ele>
        <time>2014-04-16T08:18:13.000Z</time>
      </trkpt>
      <trkpt lat="47.70552" lon="5.99059">
        <ele>330.79998779297</ele>
        <time>2014-04-16T08:18:15.000Z</time>
      </trkpt>
      <trkpt lat="47.70553" lon="5.99056">
        <ele>330.79998779297</ele>
        <time>2014-04-16T08:18:16.000Z</time>
      </trkpt>
      <trkpt lat="47.70555" lon="5.99054">
        <ele>331</ele>
        <time>2014-04-16T08:18:17.000Z</time>
      </trkpt>
      <trkpt lat="47.70555" lon="5.99053">
        <ele>331</ele>
        <time>2014-04-16T08:18:18.000Z</time>
      </trkpt>
      <trkpt lat="47.7056" lon="5.9904">
        <ele>331</ele>
        <time>2014-04-16T08:18:24.000Z</time>
      </trkpt>
      <trkpt lat="47.70564" lon="5.99033">
        <ele>331.39999389648</ele>
        <time>2014-04-16T08:18:27.000Z</time>
      </trkpt>
      <trkpt lat="47.70565" lon="5.9903">
        <ele>331.60000610352</ele>
        <time>2014-04-16T08:18:28.000Z</time>
      </trkpt>
      <trkpt lat="47.70573" lon="5.99015">
        <ele>333.39999389648</ele>
        <time>2014-04-16T08:18:34.000Z</time>
      </trkpt>
      <trkpt lat="47.70574" lon="5.99013">
        <ele>333.60000610352</ele>
        <time>2014-04-16T08:18:35.000Z</time>
      </trkpt>
      <trkpt lat="47.70575" lon="5.99011">
        <ele>333.79998779297</ele>
        <time>2014-04-16T08:18:36.000Z</time>
      </trkpt>
      <trkpt lat="47.70577" lon="5.99009">
        <ele>334</ele>
        <time>2014-04-16T08:18:37.000Z</time>
      </trkpt>
      <trkpt lat="47.70583" lon="5.98999">
        <ele>335.20001220703</ele>
        <time>2014-04-16T08:18:42.000Z</time>
      </trkpt>
      <trkpt lat="47.70585" lon="5.98994">
        <ele>335.60000610352</ele>
        <time>2014-04-16T08:18:44.000Z</time>
      </trkpt>
      <trkpt lat="47.70586" lon="5.98992">
        <ele>336</ele>
        <time>2014-04-16T08:18:45.000Z</time>
      </trkpt>
      <trkpt lat="47.70589" lon="5.98987">
        <ele>336.39999389648</ele>
        <time>2014-04-16T08:18:47.000Z</time>
      </trkpt>
      <trkpt lat="47.70594" lon="5.98982">
        <ele>337.20001220703</ele>
        <time>2014-04-16T08:18:50.000Z</time>
      </trkpt>
      <trkpt lat="47.70597" lon="5.98978">
        <ele>337.39999389648</ele>
        <time>2014-04-16T08:18:52.000Z</time>
      </trkpt>
      <trkpt lat="47.70599" lon="5.98977">
        <ele>337.39999389648</ele>
        <time>2014-04-16T08:18:53.000Z</time>
      </trkpt>
      <trkpt lat="47.706" lon="5.98975">
        <ele>337.60000610352</ele>
        <time>2014-04-16T08:18:54.000Z</time>
      </trkpt>
      <trkpt lat="47.70602" lon="5.98973">
        <ele>337.60000610352</ele>
        <time>2014-04-16T08:18:55.000Z</time>
      </trkpt>
      <trkpt lat="47.70603" lon="5.98971">
        <ele>337.60000610352</ele>
        <time>2014-04-16T08:18:56.000Z</time>
      </trkpt>
      <trkpt lat="47.70614" lon="5.98959">
        <ele>338.20001220703</ele>
        <time>2014-04-16T08:19:03.000Z</time>
      </trkpt>
      <trkpt lat="47.70625" lon="5.98945">
        <ele>338.79998779297</ele>
        <time>2014-04-16T08:19:10.000Z</time>
      </trkpt>
      <trkpt lat="47.70629" lon="5.98942">
        <ele>338.79998779297</ele>
        <time>2014-04-16T08:19:12.000Z</time>
      </trkpt>
      <trkpt lat="47.70634" lon="5.98937">
        <ele>339</ele>
        <time>2014-04-16T08:19:15.000Z</time>
      </trkpt>
      <trkpt lat="47.70641" lon="5.98927">
        <ele>340</ele>
        <time>2014-04-16T08:19:20.000Z</time>
      </trkpt>
      <trkpt lat="47.70642" lon="5.98925">
        <ele>340.20001220703</ele>
        <time>2014-04-16T08:19:21.000Z</time>
      </trkpt>
      <trkpt lat="47.70642" lon="5.98922">
        <ele>340.39999389648</ele>
        <time>2014-04-16T08:19:22.000Z</time>
      </trkpt>
      <trkpt lat="47.70643" lon="5.9892">
        <ele>340.60000610352</ele>
        <time>2014-04-16T08:19:23.000Z</time>
      </trkpt>
      <trkpt lat="47.70646" lon="5.98909">
        <ele>341.60000610352</ele>
        <time>2014-04-16T08:19:29.000Z</time>
      </trkpt>
      <trkpt lat="47.70645" lon="5.98907">
        <ele>341.79998779297</ele>
        <time>2014-04-16T08:19:30.000Z</time>
      </trkpt>
      <trkpt lat="47.70628" lon="5.9886">
        <ele>343.60000610352</ele>
        <time>2014-04-16T08:19:57.000Z</time>
      </trkpt>
      <trkpt lat="47.70625" lon="5.98848">
        <ele>343.60000610352</ele>
        <time>2014-04-16T08:20:02.000Z</time>
      </trkpt>
      <trkpt lat="47.70622" lon="5.98832">
        <ele>343.39999389648</ele>
        <time>2014-04-16T08:21:30.000Z</time>
      </trkpt>
      <trkpt lat="47.70622" lon="5.9883">
        <ele>343.39999389648</ele>
        <time>2014-04-16T08:21:31.000Z</time>
      </trkpt>
      <trkpt lat="47.70622" lon="5.98825">
        <ele>343.39999389648</ele>
        <time>2014-04-16T08:21:33.000Z</time>
      </trkpt>
      <trkpt lat="47.70624" lon="5.98802">
        <ele>343.20001220703</ele>
        <time>2014-04-16T08:21:40.000Z</time>
      </trkpt>
      <trkpt lat="47.70627" lon="5.98777">
        <ele>343</ele>
        <time>2014-04-16T08:21:48.000Z</time>
      </trkpt>
      <trkpt lat="47.70631" lon="5.98755">
        <ele>343</ele>
        <time>2014-04-16T08:21:56.000Z</time>
      </trkpt>
      <trkpt lat="47.70636" lon="5.98734">
        <ele>342.79998779297</ele>
        <time>2014-04-16T08:22:02.000Z</time>
      </trkpt>
      <trkpt lat="47.70641" lon="5.98713">
        <ele>342.60000610352</ele>
        <time>2014-04-16T08:22:08.000Z</time>
      </trkpt>
      <trkpt lat="47.70646" lon="5.98686">
        <ele>342.20001220703</ele>
        <time>2014-04-16T08:22:14.000Z</time>
      </trkpt>
      <trkpt lat="47.70651" lon="5.98661">
        <ele>342.20001220703</ele>
        <time>2014-04-16T08:22:20.000Z</time>
      </trkpt>
      <trkpt lat="47.7066" lon="5.98644">
        <ele>342.20001220703</ele>
        <time>2014-04-16T08:22:25.000Z</time>
      </trkpt>
      <trkpt lat="47.70674" lon="5.98624">
        <ele>341.79998779297</ele>
        <time>2014-04-16T08:22:32.000Z</time>
      </trkpt>
      <trkpt lat="47.70676" lon="5.98619">
        <ele>341.79998779297</ele>
        <time>2014-04-16T08:22:33.000Z</time>
      </trkpt>
      <trkpt lat="47.70679" lon="5.98615">
        <ele>341.60000610352</ele>
        <time>2014-04-16T08:22:34.000Z</time>
      </trkpt>
      <trkpt lat="47.70681" lon="5.98611">
        <ele>341.60000610352</ele>
        <time>2014-04-16T08:22:35.000Z</time>
      </trkpt>
      <trkpt lat="47.70684" lon="5.98607">
        <ele>341.60000610352</ele>
        <time>2014-04-16T08:22:36.000Z</time>
      </trkpt>
      <trkpt lat="47.70688" lon="5.986">
        <ele>341.39999389648</ele>
        <time>2014-04-16T08:22:38.000Z</time>
      </trkpt>
      <trkpt lat="47.70706" lon="5.9859">
        <ele>341.39999389648</ele>
        <time>2014-04-16T08:22:43.000Z</time>
      </trkpt>
      <trkpt lat="47.7072" lon="5.98593">
        <ele>341.20001220703</ele>
        <time>2014-04-16T08:22:48.000Z</time>
      </trkpt>
      <trkpt lat="47.70737" lon="5.98598">
        <ele>341.20001220703</ele>
        <time>2014-04-16T08:22:55.000Z</time>
      </trkpt>
      <trkpt lat="47.70754" lon="5.98602">
        <ele>341</ele>
        <time>2014-04-16T08:23:01.000Z</time>
      </trkpt>
      <trkpt lat="47.7078" lon="5.98603">
        <ele>341.39999389648</ele>
        <time>2014-04-16T08:23:09.000Z</time>
      </trkpt>
      <trkpt lat="47.70801" lon="5.98599">
        <ele>341.60000610352</ele>
        <time>2014-04-16T08:23:16.000Z</time>
      </trkpt>
      <trkpt lat="47.70824" lon="5.98594">
        <ele>341.79998779297</ele>
        <time>2014-04-16T08:23:24.000Z</time>
      </trkpt>
      <trkpt lat="47.70843" lon="5.98588">
        <ele>341.60000610352</ele>
        <time>2014-04-16T08:23:29.000Z</time>
      </trkpt>
      <trkpt lat="47.7087" lon="5.98579">
        <ele>340.20001220703</ele>
        <time>2014-04-16T08:23:36.000Z</time>
      </trkpt>
      <trkpt lat="47.70893" lon="5.98568">
        <ele>339.20001220703</ele>
        <time>2014-04-16T08:23:42.000Z</time>
      </trkpt>
      <trkpt lat="47.70897" lon="5.98566">
        <ele>339</ele>
        <time>2014-04-16T08:23:43.000Z</time>
      </trkpt>
      <trkpt lat="47.70901" lon="5.98564">
        <ele>338.79998779297</ele>
        <time>2014-04-16T08:23:44.000Z</time>
      </trkpt>
      <trkpt lat="47.70905" lon="5.98562">
        <ele>338.60000610352</ele>
        <time>2014-04-16T08:23:45.000Z</time>
      </trkpt>
      <trkpt lat="47.7091" lon="5.98559">
        <ele>338.39999389648</ele>
        <time>2014-04-16T08:23:46.000Z</time>
      </trkpt>
      <trkpt lat="47.70925" lon="5.98551">
        <ele>337.20001220703</ele>
        <time>2014-04-16T08:23:49.000Z</time>
      </trkpt>
      <trkpt lat="47.7093" lon="5.98547">
        <ele>336.79998779297</ele>
        <time>2014-04-16T08:23:50.000Z</time>
      </trkpt>
      <trkpt lat="47.70935" lon="5.98544">
        <ele>336.20001220703</ele>
        <time>2014-04-16T08:23:51.000Z</time>
      </trkpt>
      <trkpt lat="47.70939" lon="5.98542">
        <ele>335.79998779297</ele>
        <time>2014-04-16T08:23:52.000Z</time>
      </trkpt>
      <trkpt lat="47.70945" lon="5.9854">
        <ele>335.20001220703</ele>
        <time>2014-04-16T08:23:53.000Z</time>
      </trkpt>
      <trkpt lat="47.7095" lon="5.98537">
        <ele>334.79998779297</ele>
        <time>2014-04-16T08:23:54.000Z</time>
      </trkpt>
      <trkpt lat="47.70956" lon="5.98534">
        <ele>334.20001220703</ele>
        <time>2014-04-16T08:23:55.000Z</time>
      </trkpt>
      <trkpt lat="47.70962" lon="5.9853">
        <ele>333.39999389648</ele>
        <time>2014-04-16T08:23:56.000Z</time>
      </trkpt>
      <trkpt lat="47.70969" lon="5.98526">
        <ele>332.79998779297</ele>
        <time>2014-04-16T08:23:57.000Z</time>
      </trkpt>
      <trkpt lat="47.70976" lon="5.98522">
        <ele>332</ele>
        <time>2014-04-16T08:23:58.000Z</time>
      </trkpt>
      <trkpt lat="47.70983" lon="5.98518">
        <ele>331</ele>
        <time>2014-04-16T08:23:59.000Z</time>
      </trkpt>
      <trkpt lat="47.70991" lon="5.98513">
        <ele>330</ele>
        <time>2014-04-16T08:24:00.000Z</time>
      </trkpt>
      <trkpt lat="47.71" lon="5.98509">
        <ele>329</ele>
        <time>2014-04-16T08:24:01.000Z</time>
      </trkpt>
      <trkpt lat="47.71008" lon="5.98504">
        <ele>328</ele>
        <time>2014-04-16T08:24:02.000Z</time>
      </trkpt>
      <trkpt lat="47.71017" lon="5.985">
        <ele>327</ele>
        <time>2014-04-16T08:24:03.000Z</time>
      </trkpt>
      <trkpt lat="47.71025" lon="5.98494">
        <ele>326.20001220703</ele>
        <time>2014-04-16T08:24:04.000Z</time>
      </trkpt>
      <trkpt lat="47.71033" lon="5.98489">
        <ele>326</ele>
        <time>2014-04-16T08:24:05.000Z</time>
      </trkpt>
      <trkpt lat="47.71041" lon="5.98485">
        <ele>325.60000610352</ele>
        <time>2014-04-16T08:24:06.000Z</time>
      </trkpt>
      <trkpt lat="47.71055" lon="5.98477">
        <ele>325.20001220703</ele>
        <time>2014-04-16T08:24:08.000Z</time>
      </trkpt>
      <trkpt lat="47.71085" lon="5.98457">
        <ele>324.39999389648</ele>
        <time>2014-04-16T08:24:13.000Z</time>
      </trkpt>
      <trkpt lat="47.71098" lon="5.98446">
        <ele>324.60000610352</ele>
        <time>2014-04-16T08:24:16.000Z</time>
      </trkpt>
      <trkpt lat="47.71101" lon="5.98443">
        <ele>324.60000610352</ele>
        <time>2014-04-16T08:24:17.000Z</time>
      </trkpt>
      <trkpt lat="47.71103" lon="5.9844">
        <ele>324.60000610352</ele>
        <time>2014-04-16T08:24:18.000Z</time>
      </trkpt>
      <trkpt lat="47.71105" lon="5.98437">
        <ele>324.79998779297</ele>
        <time>2014-04-16T08:24:19.000Z</time>
      </trkpt>
      <trkpt lat="47.71108" lon="5.98431">
        <ele>324.79998779297</ele>
        <time>2014-04-16T08:24:21.000Z</time>
      </trkpt>
      <trkpt lat="47.71109" lon="5.9843">
        <ele>324.79998779297</ele>
        <time>2014-04-16T08:24:22.000Z</time>
      </trkpt>
      <trkpt lat="47.71111" lon="5.98429">
        <ele>324.79998779297</ele>
        <time>2014-04-16T08:24:24.000Z</time>
      </trkpt>
      <trkpt lat="47.71116" lon="5.98432">
        <ele>324.60000610352</ele>
        <time>2014-04-16T08:24:28.000Z</time>
      </trkpt>
      <trkpt lat="47.71118" lon="5.98432">
        <ele>324.60000610352</ele>
        <time>2014-04-16T08:24:29.000Z</time>
      </trkpt>
      <trkpt lat="47.71125" lon="5.98429">
        <ele>324.60000610352</ele>
        <time>2014-04-16T08:24:32.000Z</time>
      </trkpt>
      <trkpt lat="47.71132" lon="5.98426">
        <ele>324.60000610352</ele>
        <time>2014-04-16T08:24:35.000Z</time>
      </trkpt>
      <trkpt lat="47.71148" lon="5.98423">
        <ele>324.60000610352</ele>
        <time>2014-04-16T08:24:41.000Z</time>
      </trkpt>
      <trkpt lat="47.71155" lon="5.98425">
        <ele>324.39999389648</ele>
        <time>2014-04-16T08:24:44.000Z</time>
      </trkpt>
      <trkpt lat="47.7116" lon="5.98429">
        <ele>324.20001220703</ele>
        <time>2014-04-16T08:24:46.000Z</time>
      </trkpt>
      <trkpt lat="47.71174" lon="5.98447">
        <ele>323.60000610352</ele>
        <time>2014-04-16T08:24:52.000Z</time>
      </trkpt>
      <trkpt lat="47.71188" lon="5.98474">
        <ele>323</ele>
        <time>2014-04-16T08:24:59.000Z</time>
      </trkpt>
      <trkpt lat="47.71205" lon="5.98496">
        <ele>322.79998779297</ele>
        <time>2014-04-16T08:25:05.000Z</time>
      </trkpt>
      <trkpt lat="47.71233" lon="5.98516">
        <ele>322.60000610352</ele>
        <time>2014-04-16T08:25:12.000Z</time>
      </trkpt>
      <trkpt lat="47.71264" lon="5.98532">
        <ele>322.39999389648</ele>
        <time>2014-04-16T08:25:18.000Z</time>
      </trkpt>
      <trkpt lat="47.71269" lon="5.98535">
        <ele>322.20001220703</ele>
        <time>2014-04-16T08:25:19.000Z</time>
      </trkpt>
      <trkpt lat="47.71274" lon="5.98537">
        <ele>322.20001220703</ele>
        <time>2014-04-16T08:25:20.000Z</time>
      </trkpt>
      <trkpt lat="47.71279" lon="5.98539">
        <ele>322.20001220703</ele>
        <time>2014-04-16T08:25:21.000Z</time>
      </trkpt>
      <trkpt lat="47.71284" lon="5.98542">
        <ele>322.20001220703</ele>
        <time>2014-04-16T08:25:22.000Z</time>
      </trkpt>
      <trkpt lat="47.71301" lon="5.98549">
        <ele>322.20001220703</ele>
        <time>2014-04-16T08:25:26.000Z</time>
      </trkpt>
      <trkpt lat="47.71305" lon="5.98551">
        <ele>322</ele>
        <time>2014-04-16T08:25:27.000Z</time>
      </trkpt>
      <trkpt lat="47.7133" lon="5.98557">
        <ele>322</ele>
        <time>2014-04-16T08:25:33.000Z</time>
      </trkpt>
      <trkpt lat="47.71363" lon="5.98558">
        <ele>323.20001220703</ele>
        <time>2014-04-16T08:25:41.000Z</time>
      </trkpt>
      <trkpt lat="47.7138" lon="5.98556">
        <ele>324</ele>
        <time>2014-04-16T08:25:47.000Z</time>
      </trkpt>
      <trkpt lat="47.71382" lon="5.98554">
        <ele>324.20001220703</ele>
        <time>2014-04-16T08:25:48.000Z</time>
      </trkpt>
      <trkpt lat="47.7138" lon="5.98551">
        <ele>324</ele>
        <time>2014-04-16T08:25:51.000Z</time>
      </trkpt>
      <trkpt lat="47.71379" lon="5.98552">
        <ele>324</ele>
        <time>2014-04-16T08:25:52.000Z</time>
      </trkpt>
      <trkpt lat="47.71365" lon="5.98555">
        <ele>323.39999389648</ele>
        <time>2014-04-16T08:25:58.000Z</time>
      </trkpt>
      <trkpt lat="47.71358" lon="5.98556">
        <ele>323</ele>
        <time>2014-04-16T08:26:02.000Z</time>
      </trkpt>
      <trkpt lat="47.71357" lon="5.98558">
        <ele>323</ele>
        <time>2014-04-16T08:26:03.000Z</time>
      </trkpt>
      <trkpt lat="47.71354" lon="5.9857">
        <ele>322.79998779297</ele>
        <time>2014-04-16T08:26:07.000Z</time>
      </trkpt>
      <trkpt lat="47.71351" lon="5.98578">
        <ele>322.60000610352</ele>
        <time>2014-04-16T08:26:10.000Z</time>
      </trkpt>
      <trkpt lat="47.71349" lon="5.98582">
        <ele>322.60000610352</ele>
        <time>2014-04-16T08:26:12.000Z</time>
      </trkpt>
      <trkpt lat="47.71346" lon="5.98592">
        <ele>322.39999389648</ele>
        <time>2014-04-16T08:26:16.000Z</time>
      </trkpt>
      <trkpt lat="47.71345" lon="5.98595">
        <ele>322.39999389648</ele>
        <time>2014-04-16T08:26:17.000Z</time>
      </trkpt>
      <trkpt lat="47.71336" lon="5.98614">
        <ele>322</ele>
        <time>2014-04-16T08:26:22.000Z</time>
      </trkpt>
      <trkpt lat="47.71324" lon="5.98643">
        <ele>322</ele>
        <time>2014-04-16T08:26:29.000Z</time>
      </trkpt>
      <trkpt lat="47.71317" lon="5.98663">
        <ele>322.20001220703</ele>
        <time>2014-04-16T08:26:33.000Z</time>
      </trkpt>
      <trkpt lat="47.71315" lon="5.98667">
        <ele>322.39999389648</ele>
        <time>2014-04-16T08:26:34.000Z</time>
      </trkpt>
      <trkpt lat="47.71312" lon="5.98672">
        <ele>322.39999389648</ele>
        <time>2014-04-16T08:26:35.000Z</time>
      </trkpt>
      <trkpt lat="47.7131" lon="5.98677">
        <ele>322.39999389648</ele>
        <time>2014-04-16T08:26:36.000Z</time>
      </trkpt>
      <trkpt lat="47.71308" lon="5.98681">
        <ele>322.39999389648</ele>
        <time>2014-04-16T08:26:37.000Z</time>
      </trkpt>
      <trkpt lat="47.71304" lon="5.98689">
        <ele>322.60000610352</ele>
        <time>2014-04-16T08:26:39.000Z</time>
      </trkpt>
      <trkpt lat="47.71298" lon="5.98703">
        <ele>323.20001220703</ele>
        <time>2014-04-16T08:26:42.000Z</time>
      </trkpt>
      <trkpt lat="47.71296" lon="5.98707">
        <ele>323.39999389648</ele>
        <time>2014-04-16T08:26:43.000Z</time>
      </trkpt>
      <trkpt lat="47.71294" lon="5.98711">
        <ele>323.60000610352</ele>
        <time>2014-04-16T08:26:44.000Z</time>
      </trkpt>
      <trkpt lat="47.71292" lon="5.98715">
        <ele>323.79998779297</ele>
        <time>2014-04-16T08:26:45.000Z</time>
      </trkpt>
      <trkpt lat="47.71291" lon="5.98719">
        <ele>323.79998779297</ele>
        <time>2014-04-16T08:26:46.000Z</time>
      </trkpt>
      <trkpt lat="47.71285" lon="5.98735">
        <ele>324.39999389648</ele>
        <time>2014-04-16T08:26:50.000Z</time>
      </trkpt>
      <trkpt lat="47.71276" lon="5.98753">
        <ele>325.20001220703</ele>
        <time>2014-04-16T08:26:55.000Z</time>
      </trkpt>
      <trkpt lat="47.71274" lon="5.98756">
        <ele>325.20001220703</ele>
        <time>2014-04-16T08:26:56.000Z</time>
      </trkpt>
      <trkpt lat="47.71273" lon="5.98759">
        <ele>325.39999389648</ele>
        <time>2014-04-16T08:26:57.000Z</time>
      </trkpt>
      <trkpt lat="47.71271" lon="5.98762">
        <ele>325.39999389648</ele>
        <time>2014-04-16T08:26:58.000Z</time>
      </trkpt>
      <trkpt lat="47.7127" lon="5.98765">
        <ele>325.60000610352</ele>
        <time>2014-04-16T08:26:59.000Z</time>
      </trkpt>
      <trkpt lat="47.71265" lon="5.98781">
        <ele>326</ele>
        <time>2014-04-16T08:27:04.000Z</time>
      </trkpt>
      <trkpt lat="47.71264" lon="5.98784">
        <ele>326.20001220703</ele>
        <time>2014-04-16T08:27:05.000Z</time>
      </trkpt>
      <trkpt lat="47.71263" lon="5.98787">
        <ele>326.20001220703</ele>
        <time>2014-04-16T08:27:06.000Z</time>
      </trkpt>
      <trkpt lat="47.71262" lon="5.98789">
        <ele>326.39999389648</ele>
        <time>2014-04-16T08:27:07.000Z</time>
      </trkpt>
      <trkpt lat="47.7126" lon="5.98791">
        <ele>326.39999389648</ele>
        <time>2014-04-16T08:27:08.000Z</time>
      </trkpt>
      <trkpt lat="47.71257" lon="5.98797">
        <ele>326.60000610352</ele>
        <time>2014-04-16T08:27:10.000Z</time>
      </trkpt>
      <trkpt lat="47.71252" lon="5.98812">
        <ele>327</ele>
        <time>2014-04-16T08:27:15.000Z</time>
      </trkpt>
      <trkpt lat="47.71251" lon="5.98815">
        <ele>327</ele>
        <time>2014-04-16T08:27:16.000Z</time>
      </trkpt>
      <trkpt lat="47.7125" lon="5.98818">
        <ele>327</ele>
        <time>2014-04-16T08:27:17.000Z</time>
      </trkpt>
      <trkpt lat="47.71248" lon="5.98821">
        <ele>327</ele>
        <time>2014-04-16T08:27:18.000Z</time>
      </trkpt>
      <trkpt lat="47.71248" lon="5.98824">
        <ele>327</ele>
        <time>2014-04-16T08:27:19.000Z</time>
      </trkpt>
      <trkpt lat="47.71243" lon="5.98842">
        <ele>327</ele>
        <time>2014-04-16T08:27:25.000Z</time>
      </trkpt>
      <trkpt lat="47.71241" lon="5.98849">
        <ele>327</ele>
        <time>2014-04-16T08:27:29.000Z</time>
      </trkpt>
      <trkpt lat="47.71237" lon="5.98857">
        <ele>327</ele>
        <time>2014-04-16T08:27:33.000Z</time>
      </trkpt>
      <trkpt lat="47.71235" lon="5.98859">
        <ele>327</ele>
        <time>2014-04-16T08:27:34.000Z</time>
      </trkpt>
      <trkpt lat="47.71234" lon="5.98861">
        <ele>327</ele>
        <time>2014-04-16T08:27:35.000Z</time>
      </trkpt>
      <trkpt lat="47.71233" lon="5.98863">
        <ele>327</ele>
        <time>2014-04-16T08:27:36.000Z</time>
      </trkpt>
      <trkpt lat="47.71233" lon="5.98866">
        <ele>327</ele>
        <time>2014-04-16T08:27:37.000Z</time>
      </trkpt>
      <trkpt lat="47.71232" lon="5.98869">
        <ele>327</ele>
        <time>2014-04-16T08:27:38.000Z</time>
      </trkpt>
      <trkpt lat="47.71229" lon="5.98876">
        <ele>327.20001220703</ele>
        <time>2014-04-16T08:27:41.000Z</time>
      </trkpt>
      <trkpt lat="47.71224" lon="5.98889">
        <ele>327.39999389648</ele>
        <time>2014-04-16T08:27:47.000Z</time>
      </trkpt>
      <trkpt lat="47.7122" lon="5.98903">
        <ele>327.60000610352</ele>
        <time>2014-04-16T08:27:52.000Z</time>
      </trkpt>
      <trkpt lat="47.71219" lon="5.98906">
        <ele>327.60000610352</ele>
        <time>2014-04-16T08:27:53.000Z</time>
      </trkpt>
      <trkpt lat="47.71218" lon="5.98909">
        <ele>327.79998779297</ele>
        <time>2014-04-16T08:27:54.000Z</time>
      </trkpt>
      <trkpt lat="47.71217" lon="5.98912">
        <ele>327.79998779297</ele>
        <time>2014-04-16T08:27:55.000Z</time>
      </trkpt>
      <trkpt lat="47.71215" lon="5.98914">
        <ele>327.79998779297</ele>
        <time>2014-04-16T08:27:56.000Z</time>
      </trkpt>
      <trkpt lat="47.7121" lon="5.98924">
        <ele>328</ele>
        <time>2014-04-16T08:28:00.000Z</time>
      </trkpt>
      <trkpt lat="47.71202" lon="5.98942">
        <ele>328.20001220703</ele>
        <time>2014-04-16T08:28:07.000Z</time>
      </trkpt>
      <trkpt lat="47.71196" lon="5.98958">
        <ele>328.20001220703</ele>
        <time>2014-04-16T08:28:13.000Z</time>
      </trkpt>
      <trkpt lat="47.71189" lon="5.98975">
        <ele>328.39999389648</ele>
        <time>2014-04-16T08:28:18.000Z</time>
      </trkpt>
      <trkpt lat="47.7118" lon="5.98998">
        <ele>327.60000610352</ele>
        <time>2014-04-16T08:28:25.000Z</time>
      </trkpt>
      <trkpt lat="47.71173" lon="5.99018">
        <ele>326.79998779297</ele>
        <time>2014-04-16T08:28:31.000Z</time>
      </trkpt>
      <trkpt lat="47.71174" lon="5.99032">
        <ele>326.20001220703</ele>
        <time>2014-04-16T08:28:35.000Z</time>
      </trkpt>
      <trkpt lat="47.71183" lon="5.99049">
        <ele>325.20001220703</ele>
        <time>2014-04-16T08:28:41.000Z</time>
      </trkpt>
      <trkpt lat="47.71193" lon="5.9906">
        <ele>324.39999389648</ele>
        <time>2014-04-16T08:28:47.000Z</time>
      </trkpt>
      <trkpt lat="47.71205" lon="5.99078">
        <ele>323.60000610352</ele>
        <time>2014-04-16T08:28:53.000Z</time>
      </trkpt>
      <trkpt lat="47.71206" lon="5.99082">
        <ele>323.60000610352</ele>
        <time>2014-04-16T08:28:54.000Z</time>
      </trkpt>
      <trkpt lat="47.71207" lon="5.99087">
        <ele>323.39999389648</ele>
        <time>2014-04-16T08:28:55.000Z</time>
      </trkpt>
      <trkpt lat="47.71209" lon="5.99092">
        <ele>323.20001220703</ele>
        <time>2014-04-16T08:28:56.000Z</time>
      </trkpt>
      <trkpt lat="47.7121" lon="5.99097">
        <ele>323.20001220703</ele>
        <time>2014-04-16T08:28:57.000Z</time>
      </trkpt>
      <trkpt lat="47.71211" lon="5.99102">
        <ele>323</ele>
        <time>2014-04-16T08:28:58.000Z</time>
      </trkpt>
      <trkpt lat="47.71216" lon="5.9912">
        <ele>322.60000610352</ele>
        <time>2014-04-16T08:29:02.000Z</time>
      </trkpt>
      <trkpt lat="47.71224" lon="5.99131">
        <ele>322.20001220703</ele>
        <time>2014-04-16T08:29:06.000Z</time>
      </trkpt>
      <trkpt lat="47.71226" lon="5.99132">
        <ele>322</ele>
        <time>2014-04-16T08:29:07.000Z</time>
      </trkpt>
      <trkpt lat="47.71229" lon="5.99134">
        <ele>322</ele>
        <time>2014-04-16T08:29:08.000Z</time>
      </trkpt>
      <trkpt lat="47.71232" lon="5.99134">
        <ele>321.79998779297</ele>
        <time>2014-04-16T08:29:09.000Z</time>
      </trkpt>
      <trkpt lat="47.71236" lon="5.99134">
        <ele>321.79998779297</ele>
        <time>2014-04-16T08:29:10.000Z</time>
      </trkpt>
      <trkpt lat="47.71241" lon="5.99137">
        <ele>321.39999389648</ele>
        <time>2014-04-16T08:29:12.000Z</time>
      </trkpt>
      <trkpt lat="47.71244" lon="5.99138">
        <ele>321.39999389648</ele>
        <time>2014-04-16T08:29:13.000Z</time>
      </trkpt>
      <trkpt lat="47.71247" lon="5.9914">
        <ele>321.20001220703</ele>
        <time>2014-04-16T08:29:14.000Z</time>
      </trkpt>
      <trkpt lat="47.71249" lon="5.99142">
        <ele>321.20001220703</ele>
        <time>2014-04-16T08:29:15.000Z</time>
      </trkpt>
      <trkpt lat="47.71252" lon="5.99144">
        <ele>320.79998779297</ele>
        <time>2014-04-16T08:29:16.000Z</time>
      </trkpt>
      <trkpt lat="47.71257" lon="5.9915">
        <ele>320.39999389648</ele>
        <time>2014-04-16T08:29:18.000Z</time>
      </trkpt>
      <trkpt lat="47.71261" lon="5.99154">
        <ele>319.79998779297</ele>
        <time>2014-04-16T08:29:20.000Z</time>
      </trkpt>
      <trkpt lat="47.71264" lon="5.99156">
        <ele>319.60000610352</ele>
        <time>2014-04-16T08:29:21.000Z</time>
      </trkpt>
      <trkpt lat="47.71266" lon="5.99156">
        <ele>319.39999389648</ele>
        <time>2014-04-16T08:29:22.000Z</time>
      </trkpt>
      <trkpt lat="47.71268" lon="5.99157">
        <ele>319.20001220703</ele>
        <time>2014-04-16T08:29:23.000Z</time>
      </trkpt>
      <trkpt lat="47.7127" lon="5.99157">
        <ele>319</ele>
        <time>2014-04-16T08:29:24.000Z</time>
      </trkpt>
      <trkpt lat="47.71273" lon="5.99159">
        <ele>318.79998779297</ele>
        <time>2014-04-16T08:29:25.000Z</time>
      </trkpt>
      <trkpt lat="47.7128" lon="5.99164">
        <ele>318.20001220703</ele>
        <time>2014-04-16T08:29:27.000Z</time>
      </trkpt>
      <trkpt lat="47.71296" lon="5.99178">
        <ele>316.39999389648</ele>
        <time>2014-04-16T08:29:32.000Z</time>
      </trkpt>
      <trkpt lat="47.71312" lon="5.99191">
        <ele>314.79998779297</ele>
        <time>2014-04-16T08:29:37.000Z</time>
      </trkpt>
      <trkpt lat="47.71333" lon="5.99211">
        <ele>312.20001220703</ele>
        <time>2014-04-16T08:29:43.000Z</time>
      </trkpt>
      <trkpt lat="47.71336" lon="5.99215">
        <ele>311.79998779297</ele>
        <time>2014-04-16T08:29:44.000Z</time>
      </trkpt>
      <trkpt lat="47.71339" lon="5.99219">
        <ele>311.60000610352</ele>
        <time>2014-04-16T08:29:45.000Z</time>
      </trkpt>
      <trkpt lat="47.71342" lon="5.99224">
        <ele>311.20001220703</ele>
        <time>2014-04-16T08:29:46.000Z</time>
      </trkpt>
      <trkpt lat="47.71345" lon="5.99228">
        <ele>310.79998779297</ele>
        <time>2014-04-16T08:29:47.000Z</time>
      </trkpt>
      <trkpt lat="47.71353" lon="5.99243">
        <ele>309.79998779297</ele>
        <time>2014-04-16T08:29:50.000Z</time>
      </trkpt>
      <trkpt lat="47.71364" lon="5.99259">
        <ele>308.79998779297</ele>
        <time>2014-04-16T08:29:54.000Z</time>
      </trkpt>
      <trkpt lat="47.71366" lon="5.99263">
        <ele>308.39999389648</ele>
        <time>2014-04-16T08:29:55.000Z</time>
      </trkpt>
      <trkpt lat="47.71369" lon="5.99266">
        <ele>308.20001220703</ele>
        <time>2014-04-16T08:29:56.000Z</time>
      </trkpt>
      <trkpt lat="47.71371" lon="5.9927">
        <ele>308</ele>
        <time>2014-04-16T08:29:57.000Z</time>
      </trkpt>
      <trkpt lat="47.71373" lon="5.99274">
        <ele>307.79998779297</ele>
        <time>2014-04-16T08:29:58.000Z</time>
      </trkpt>
      <trkpt lat="47.71384" lon="5.9929">
        <ele>306.79998779297</ele>
        <time>2014-04-16T08:30:02.000Z</time>
      </trkpt>
      <trkpt lat="47.71387" lon="5.99294">
        <ele>306.60000610352</ele>
        <time>2014-04-16T08:30:03.000Z</time>
      </trkpt>
      <trkpt lat="47.71389" lon="5.99297">
        <ele>306.20001220703</ele>
        <time>2014-04-16T08:30:04.000Z</time>
      </trkpt>
      <trkpt lat="47.71392" lon="5.99301">
        <ele>306</ele>
        <time>2014-04-16T08:30:05.000Z</time>
      </trkpt>
      <trkpt lat="47.71395" lon="5.99305">
        <ele>305.79998779297</ele>
        <time>2014-04-16T08:30:06.000Z</time>
      </trkpt>
      <trkpt lat="47.71402" lon="5.99319">
        <ele>305.20001220703</ele>
        <time>2014-04-16T08:30:09.000Z</time>
      </trkpt>
      <trkpt lat="47.71407" lon="5.9933">
        <ele>304.79998779297</ele>
        <time>2014-04-16T08:30:11.000Z</time>
      </trkpt>
      <trkpt lat="47.71409" lon="5.99335">
        <ele>304.60000610352</ele>
        <time>2014-04-16T08:30:12.000Z</time>
      </trkpt>
      <trkpt lat="47.71412" lon="5.99341">
        <ele>304.39999389648</ele>
        <time>2014-04-16T08:30:13.000Z</time>
      </trkpt>
      <trkpt lat="47.71414" lon="5.99347">
        <ele>304.20001220703</ele>
        <time>2014-04-16T08:30:14.000Z</time>
      </trkpt>
      <trkpt lat="47.71417" lon="5.99352">
        <ele>304</ele>
        <time>2014-04-16T08:30:15.000Z</time>
      </trkpt>
      <trkpt lat="47.71418" lon="5.99356">
        <ele>303.79998779297</ele>
        <time>2014-04-16T08:30:16.000Z</time>
      </trkpt>
      <trkpt lat="47.71423" lon="5.99372">
        <ele>303.39999389648</ele>
        <time>2014-04-16T08:30:20.000Z</time>
      </trkpt>
      <trkpt lat="47.71423" lon="5.99377">
        <ele>303.39999389648</ele>
        <time>2014-04-16T08:30:21.000Z</time>
      </trkpt>
      <trkpt lat="47.71424" lon="5.99381">
        <ele>303.20001220703</ele>
        <time>2014-04-16T08:30:22.000Z</time>
      </trkpt>
      <trkpt lat="47.71424" lon="5.99387">
        <ele>303</ele>
        <time>2014-04-16T08:30:23.000Z</time>
      </trkpt>
      <trkpt lat="47.71425" lon="5.99392">
        <ele>303</ele>
        <time>2014-04-16T08:30:24.000Z</time>
      </trkpt>
      <trkpt lat="47.71426" lon="5.99408">
        <ele>302.39999389648</ele>
        <time>2014-04-16T08:30:27.000Z</time>
      </trkpt>
      <trkpt lat="47.71434" lon="5.99432">
        <ele>301.79998779297</ele>
        <time>2014-04-16T08:30:32.000Z</time>
      </trkpt>
      <trkpt lat="47.71436" lon="5.99436">
        <ele>301.60000610352</ele>
        <time>2014-04-16T08:30:33.000Z</time>
      </trkpt>
      <trkpt lat="47.71438" lon="5.9944">
        <ele>301.39999389648</ele>
        <time>2014-04-16T08:30:34.000Z</time>
      </trkpt>
      <trkpt lat="47.7144" lon="5.99444">
        <ele>301.39999389648</ele>
        <time>2014-04-16T08:30:35.000Z</time>
      </trkpt>
      <trkpt lat="47.71442" lon="5.99448">
        <ele>301.20001220703</ele>
        <time>2014-04-16T08:30:36.000Z</time>
      </trkpt>
      <trkpt lat="47.71446" lon="5.99454">
        <ele>301</ele>
        <time>2014-04-16T08:30:38.000Z</time>
      </trkpt>
      <trkpt lat="47.71464" lon="5.99473">
        <ele>300.60000610352</ele>
        <time>2014-04-16T08:30:45.000Z</time>
      </trkpt>
      <trkpt lat="47.71483" lon="5.99488">
        <ele>300.20001220703</ele>
        <time>2014-04-16T08:30:52.000Z</time>
      </trkpt>
      <trkpt lat="47.71498" lon="5.995">
        <ele>300</ele>
        <time>2014-04-16T08:30:57.000Z</time>
      </trkpt>
      <trkpt lat="47.71507" lon="5.99508">
        <ele>300.20001220703</ele>
        <time>2014-04-16T08:31:00.000Z</time>
      </trkpt>
      <trkpt lat="47.7151" lon="5.99511">
        <ele>300.20001220703</ele>
        <time>2014-04-16T08:31:01.000Z</time>
      </trkpt>
      <trkpt lat="47.71514" lon="5.99514">
        <ele>300.39999389648</ele>
        <time>2014-04-16T08:31:02.000Z</time>
      </trkpt>
      <trkpt lat="47.71517" lon="5.99516">
        <ele>300.60000610352</ele>
        <time>2014-04-16T08:31:03.000Z</time>
      </trkpt>
      <trkpt lat="47.71519" lon="5.99518">
        <ele>300.79998779297</ele>
        <time>2014-04-16T08:31:04.000Z</time>
      </trkpt>
      <trkpt lat="47.71535" lon="5.99527">
        <ele>301.79998779297</ele>
        <time>2014-04-16T08:31:08.000Z</time>
      </trkpt>
      <trkpt lat="47.71548" lon="5.99539">
        <ele>302.39999389648</ele>
        <time>2014-04-16T08:31:13.000Z</time>
      </trkpt>
      <trkpt lat="47.71558" lon="5.99547">
        <ele>303</ele>
        <time>2014-04-16T08:31:17.000Z</time>
      </trkpt>
      <trkpt lat="47.71571" lon="5.99569">
        <ele>302.60000610352</ele>
        <time>2014-04-16T08:31:23.000Z</time>
      </trkpt>
      <trkpt lat="47.71588" lon="5.99588">
        <ele>302.20001220703</ele>
        <time>2014-04-16T08:31:28.000Z</time>
      </trkpt>
      <trkpt lat="47.71601" lon="5.99594">
        <ele>302.60000610352</ele>
        <time>2014-04-16T08:31:32.000Z</time>
      </trkpt>
      <trkpt lat="47.71618" lon="5.99597">
        <ele>303.60000610352</ele>
        <time>2014-04-16T08:31:38.000Z</time>
      </trkpt>
      <trkpt lat="47.71632" lon="5.996">
        <ele>304.20001220703</ele>
        <time>2014-04-16T08:31:44.000Z</time>
      </trkpt>
      <trkpt lat="47.71636" lon="5.996">
        <ele>304.60000610352</ele>
        <time>2014-04-16T08:31:46.000Z</time>
      </trkpt>
      <trkpt lat="47.71641" lon="5.99602">
        <ele>304.79998779297</ele>
        <time>2014-04-16T08:31:49.000Z</time>
      </trkpt>
      <trkpt lat="47.71649" lon="5.99603">
        <ele>305.39999389648</ele>
        <time>2014-04-16T08:31:53.000Z</time>
      </trkpt>
      <trkpt lat="47.7166" lon="5.99603">
        <ele>306.39999389648</ele>
        <time>2014-04-16T08:31:58.000Z</time>
      </trkpt>
      <trkpt lat="47.71676" lon="5.99604">
        <ele>307.39999389648</ele>
        <time>2014-04-16T08:32:07.000Z</time>
      </trkpt>
      <trkpt lat="47.71678" lon="5.99605">
        <ele>307.39999389648</ele>
        <time>2014-04-16T08:32:08.000Z</time>
      </trkpt>
      <trkpt lat="47.7168" lon="5.99605">
        <ele>307.60000610352</ele>
        <time>2014-04-16T08:32:09.000Z</time>
      </trkpt>
      <trkpt lat="47.71682" lon="5.99606">
        <ele>307.60000610352</ele>
        <time>2014-04-16T08:32:10.000Z</time>
      </trkpt>
      <trkpt lat="47.71691" lon="5.99609">
        <ele>307.79998779297</ele>
        <time>2014-04-16T08:32:16.000Z</time>
      </trkpt>
      <trkpt lat="47.71697" lon="5.99611">
        <ele>308</ele>
        <time>2014-04-16T08:32:19.000Z</time>
      </trkpt>
      <trkpt lat="47.71701" lon="5.99612">
        <ele>308</ele>
        <time>2014-04-16T08:32:21.000Z</time>
      </trkpt>
      <trkpt lat="47.71704" lon="5.99612">
        <ele>308.20001220703</ele>
        <time>2014-04-16T08:32:22.000Z</time>
      </trkpt>
      <trkpt lat="47.71712" lon="5.99613">
        <ele>308.60000610352</ele>
        <time>2014-04-16T08:32:26.000Z</time>
      </trkpt>
      <trkpt lat="47.71715" lon="5.99614">
        <ele>308.60000610352</ele>
        <time>2014-04-16T08:32:27.000Z</time>
      </trkpt>
      <trkpt lat="47.71717" lon="5.99614">
        <ele>308.79998779297</ele>
        <time>2014-04-16T08:32:28.000Z</time>
      </trkpt>
      <trkpt lat="47.71719" lon="5.99614">
        <ele>309</ele>
        <time>2014-04-16T08:32:29.000Z</time>
      </trkpt>
      <trkpt lat="47.71722" lon="5.99613">
        <ele>309.20001220703</ele>
        <time>2014-04-16T08:32:30.000Z</time>
      </trkpt>
      <trkpt lat="47.71724" lon="5.99613">
        <ele>309.39999389648</ele>
        <time>2014-04-16T08:32:31.000Z</time>
      </trkpt>
      <trkpt lat="47.71727" lon="5.99613">
        <ele>309.60000610352</ele>
        <time>2014-04-16T08:32:32.000Z</time>
      </trkpt>
      <trkpt lat="47.71741" lon="5.99614">
        <ele>310.20001220703</ele>
        <time>2014-04-16T08:32:37.000Z</time>
      </trkpt>
      <trkpt lat="47.71743" lon="5.99614">
        <ele>310.20001220703</ele>
        <time>2014-04-16T08:32:38.000Z</time>
      </trkpt>
      <trkpt lat="47.71747" lon="5.99616">
        <ele>310.39999389648</ele>
        <time>2014-04-16T08:32:40.000Z</time>
      </trkpt>
      <trkpt lat="47.71749" lon="5.99616">
        <ele>310.39999389648</ele>
        <time>2014-04-16T08:32:41.000Z</time>
      </trkpt>
      <trkpt lat="47.71751" lon="5.99617">
        <ele>310.39999389648</ele>
        <time>2014-04-16T08:32:42.000Z</time>
      </trkpt>
      <trkpt lat="47.71753" lon="5.99618">
        <ele>310.60000610352</ele>
        <time>2014-04-16T08:32:43.000Z</time>
      </trkpt>
      <trkpt lat="47.71755" lon="5.99619">
        <ele>310.60000610352</ele>
        <time>2014-04-16T08:32:44.000Z</time>
      </trkpt>
      <trkpt lat="47.71757" lon="5.99619">
        <ele>310.60000610352</ele>
        <time>2014-04-16T08:32:45.000Z</time>
      </trkpt>
      <trkpt lat="47.71766" lon="5.9962">
        <ele>311</ele>
        <time>2014-04-16T08:32:50.000Z</time>
      </trkpt>
      <trkpt lat="47.71769" lon="5.99621">
        <ele>311</ele>
        <time>2014-04-16T08:32:52.000Z</time>
      </trkpt>
      <trkpt lat="47.71774" lon="5.99623">
        <ele>311</ele>
        <time>2014-04-16T08:32:55.000Z</time>
      </trkpt>
      <trkpt lat="47.71778" lon="5.99624">
        <ele>311</ele>
        <time>2014-04-16T08:32:57.000Z</time>
      </trkpt>
      <trkpt lat="47.71793" lon="5.99626">
        <ele>311.60000610352</ele>
        <time>2014-04-16T08:33:04.000Z</time>
      </trkpt>
      <trkpt lat="47.71799" lon="5.99628">
        <ele>311.60000610352</ele>
        <time>2014-04-16T08:33:08.000Z</time>
      </trkpt>
      <trkpt lat="47.71803" lon="5.99627">
        <ele>312</ele>
        <time>2014-04-16T08:33:10.000Z</time>
      </trkpt>
      <trkpt lat="47.71805" lon="5.99626">
        <ele>312</ele>
        <time>2014-04-16T08:33:11.000Z</time>
      </trkpt>
      <trkpt lat="47.71806" lon="5.99626">
        <ele>312.20001220703</ele>
        <time>2014-04-16T08:33:12.000Z</time>
      </trkpt>
      <trkpt lat="47.71808" lon="5.99626">
        <ele>312.20001220703</ele>
        <time>2014-04-16T08:33:13.000Z</time>
      </trkpt>
      <trkpt lat="47.7181" lon="5.99626">
        <ele>312.39999389648</ele>
        <time>2014-04-16T08:33:14.000Z</time>
      </trkpt>
      <trkpt lat="47.71811" lon="5.99626">
        <ele>312.39999389648</ele>
        <time>2014-04-16T08:33:15.000Z</time>
      </trkpt>
      <trkpt lat="47.71819" lon="5.99627">
        <ele>312.79998779297</ele>
        <time>2014-04-16T08:33:20.000Z</time>
      </trkpt>
      <trkpt lat="47.71821" lon="5.99627">
        <ele>312.79998779297</ele>
        <time>2014-04-16T08:33:21.000Z</time>
      </trkpt>
      <trkpt lat="47.71826" lon="5.9963">
        <ele>312.79998779297</ele>
        <time>2014-04-16T08:33:24.000Z</time>
      </trkpt>
      <trkpt lat="47.71829" lon="5.9963">
        <ele>312.79998779297</ele>
        <time>2014-04-16T08:33:26.000Z</time>
      </trkpt>
      <trkpt lat="47.71831" lon="5.9963">
        <ele>313</ele>
        <time>2014-04-16T08:33:27.000Z</time>
      </trkpt>
      <trkpt lat="47.71832" lon="5.9963">
        <ele>313.20001220703</ele>
        <time>2014-04-16T08:33:28.000Z</time>
      </trkpt>
      <trkpt lat="47.71836" lon="5.99631">
        <ele>313.20001220703</ele>
        <time>2014-04-16T08:33:30.000Z</time>
      </trkpt>
      <trkpt lat="47.71853" lon="5.99633">
        <ele>313.79998779297</ele>
        <time>2014-04-16T08:33:39.000Z</time>
      </trkpt>
      <trkpt lat="47.71858" lon="5.99632">
        <ele>314.20001220703</ele>
        <time>2014-04-16T08:33:42.000Z</time>
      </trkpt>
      <trkpt lat="47.71863" lon="5.99633">
        <ele>314.39999389648</ele>
        <time>2014-04-16T08:33:44.000Z</time>
      </trkpt>
      <trkpt lat="47.71869" lon="5.99635">
        <ele>314.20001220703</ele>
        <time>2014-04-16T08:33:47.000Z</time>
      </trkpt>
      <trkpt lat="47.7187" lon="5.99636">
        <ele>314.39999389648</ele>
        <time>2014-04-16T08:33:48.000Z</time>
      </trkpt>
      <trkpt lat="47.71872" lon="5.99636">
        <ele>314.39999389648</ele>
        <time>2014-04-16T08:33:49.000Z</time>
      </trkpt>
      <trkpt lat="47.71874" lon="5.99636">
        <ele>314.39999389648</ele>
        <time>2014-04-16T08:33:50.000Z</time>
      </trkpt>
      <trkpt lat="47.71876" lon="5.99637">
        <ele>314.39999389648</ele>
        <time>2014-04-16T08:33:51.000Z</time>
      </trkpt>
      <trkpt lat="47.71877" lon="5.99638">
        <ele>314.39999389648</ele>
        <time>2014-04-16T08:33:52.000Z</time>
      </trkpt>
      <trkpt lat="47.71879" lon="5.99638">
        <ele>314.39999389648</ele>
        <time>2014-04-16T08:33:53.000Z</time>
      </trkpt>
      <trkpt lat="47.71889" lon="5.9964">
        <ele>314.79998779297</ele>
        <time>2014-04-16T08:33:58.000Z</time>
      </trkpt>
      <trkpt lat="47.71891" lon="5.9964">
        <ele>314.79998779297</ele>
        <time>2014-04-16T08:33:59.000Z</time>
      </trkpt>
      <trkpt lat="47.71894" lon="5.99641">
        <ele>314.79998779297</ele>
        <time>2014-04-16T08:34:01.000Z</time>
      </trkpt>
      <trkpt lat="47.71898" lon="5.99643">
        <ele>314.79998779297</ele>
        <time>2014-04-16T08:34:04.000Z</time>
      </trkpt>
      <trkpt lat="47.71902" lon="5.99643">
        <ele>314.79998779297</ele>
        <time>2014-04-16T08:34:06.000Z</time>
      </trkpt>
      <trkpt lat="47.71914" lon="5.99645">
        <ele>315.20001220703</ele>
        <time>2014-04-16T08:34:12.000Z</time>
      </trkpt>
      <trkpt lat="47.71927" lon="5.99647">
        <ele>315.39999389648</ele>
        <time>2014-04-16T08:34:19.000Z</time>
      </trkpt>
      <trkpt lat="47.71939" lon="5.9965">
        <ele>315.20001220703</ele>
        <time>2014-04-16T08:34:25.000Z</time>
      </trkpt>
      <trkpt lat="47.71947" lon="5.99653">
        <ele>315.20001220703</ele>
        <time>2014-04-16T08:34:29.000Z</time>
      </trkpt>
      <trkpt lat="47.71949" lon="5.99654">
        <ele>315.20001220703</ele>
        <time>2014-04-16T08:34:30.000Z</time>
      </trkpt>
      <trkpt lat="47.7195" lon="5.99654">
        <ele>315.20001220703</ele>
        <time>2014-04-16T08:34:31.000Z</time>
      </trkpt>
      <trkpt lat="47.71952" lon="5.99655">
        <ele>315.20001220703</ele>
        <time>2014-04-16T08:34:32.000Z</time>
      </trkpt>
      <trkpt lat="47.71955" lon="5.99656">
        <ele>315</ele>
        <time>2014-04-16T08:34:34.000Z</time>
      </trkpt>
      <trkpt lat="47.71961" lon="5.99658">
        <ele>315</ele>
        <time>2014-04-16T08:34:37.000Z</time>
      </trkpt>
      <trkpt lat="47.71978" lon="5.99658">
        <ele>315.60000610352</ele>
        <time>2014-04-16T08:34:43.000Z</time>
      </trkpt>
      <trkpt lat="47.7198" lon="5.99658">
        <ele>315.60000610352</ele>
        <time>2014-04-16T08:34:44.000Z</time>
      </trkpt>
      <trkpt lat="47.71987" lon="5.99657">
        <ele>316</ele>
        <time>2014-04-16T08:34:47.000Z</time>
      </trkpt>
      <trkpt lat="47.71994" lon="5.99658">
        <ele>316.20001220703</ele>
        <time>2014-04-16T08:34:50.000Z</time>
      </trkpt>
      <trkpt lat="47.71999" lon="5.99657">
        <ele>316.39999389648</ele>
        <time>2014-04-16T08:34:52.000Z</time>
      </trkpt>
      <trkpt lat="47.72008" lon="5.9966">
        <ele>316.39999389648</ele>
        <time>2014-04-16T08:34:56.000Z</time>
      </trkpt>
      <trkpt lat="47.7201" lon="5.99661">
        <ele>316.39999389648</ele>
        <time>2014-04-16T08:34:57.000Z</time>
      </trkpt>
      <trkpt lat="47.72012" lon="5.99662">
        <ele>316.39999389648</ele>
        <time>2014-04-16T08:34:58.000Z</time>
      </trkpt>
      <trkpt lat="47.72019" lon="5.99665">
        <ele>316.39999389648</ele>
        <time>2014-04-16T08:35:01.000Z</time>
      </trkpt>
      <trkpt lat="47.72031" lon="5.99669">
        <ele>316.60000610352</ele>
        <time>2014-04-16T08:35:05.000Z</time>
      </trkpt>
      <trkpt lat="47.72044" lon="5.99668">
        <ele>317.20001220703</ele>
        <time>2014-04-16T08:35:10.000Z</time>
      </trkpt>
      <trkpt lat="47.72046" lon="5.99668">
        <ele>317.39999389648</ele>
        <time>2014-04-16T08:35:11.000Z</time>
      </trkpt>
      <trkpt lat="47.72048" lon="5.99669">
        <ele>317.39999389648</ele>
        <time>2014-04-16T08:35:12.000Z</time>
      </trkpt>
      <trkpt lat="47.72051" lon="5.99669">
        <ele>317.39999389648</ele>
        <time>2014-04-16T08:35:13.000Z</time>
      </trkpt>
      <trkpt lat="47.72054" lon="5.9967">
        <ele>317.39999389648</ele>
        <time>2014-04-16T08:35:14.000Z</time>
      </trkpt>
      <trkpt lat="47.72057" lon="5.99671">
        <ele>317.39999389648</ele>
        <time>2014-04-16T08:35:15.000Z</time>
      </trkpt>
      <trkpt lat="47.7206" lon="5.99672">
        <ele>317.39999389648</ele>
        <time>2014-04-16T08:35:16.000Z</time>
      </trkpt>
      <trkpt lat="47.72068" lon="5.99675">
        <ele>317.39999389648</ele>
        <time>2014-04-16T08:35:19.000Z</time>
      </trkpt>
      <trkpt lat="47.72085" lon="5.99676">
        <ele>317.79998779297</ele>
        <time>2014-04-16T08:35:25.000Z</time>
      </trkpt>
      <trkpt lat="47.72105" lon="5.99679">
        <ele>318.39999389648</ele>
        <time>2014-04-16T08:35:32.000Z</time>
      </trkpt>
      <trkpt lat="47.72121" lon="5.99683">
        <ele>318.60000610352</ele>
        <time>2014-04-16T08:35:38.000Z</time>
      </trkpt>
      <trkpt lat="47.72136" lon="5.99688">
        <ele>318.79998779297</ele>
        <time>2014-04-16T08:35:44.000Z</time>
      </trkpt>
      <trkpt lat="47.72143" lon="5.9969">
        <ele>318.79998779297</ele>
        <time>2014-04-16T08:35:47.000Z</time>
      </trkpt>
      <trkpt lat="47.72148" lon="5.99692">
        <ele>318.79998779297</ele>
        <time>2014-04-16T08:35:49.000Z</time>
      </trkpt>
      <trkpt lat="47.72149" lon="5.99694">
        <ele>318.79998779297</ele>
        <time>2014-04-16T08:35:50.000Z</time>
      </trkpt>
      <trkpt lat="47.72151" lon="5.99695">
        <ele>318.79998779297</ele>
        <time>2014-04-16T08:35:51.000Z</time>
      </trkpt>
      <trkpt lat="47.72155" lon="5.99698">
        <ele>318.60000610352</ele>
        <time>2014-04-16T08:35:53.000Z</time>
      </trkpt>
      <trkpt lat="47.72163" lon="5.99703">
        <ele>318.39999389648</ele>
        <time>2014-04-16T08:35:57.000Z</time>
      </trkpt>
      <trkpt lat="47.72193" lon="5.99707">
        <ele>316.79998779297</ele>
        <time>2014-04-16T08:36:03.000Z</time>
      </trkpt>
      <trkpt lat="47.72225" lon="5.99712">
        <ele>314.20001220703</ele>
        <time>2014-04-16T08:36:09.000Z</time>
      </trkpt>
      <trkpt lat="47.7223" lon="5.99712">
        <ele>314</ele>
        <time>2014-04-16T08:36:10.000Z</time>
      </trkpt>
      <trkpt lat="47.72236" lon="5.99711">
        <ele>313.79998779297</ele>
        <time>2014-04-16T08:36:11.000Z</time>
      </trkpt>
      <trkpt lat="47.72241" lon="5.99708">
        <ele>313.79998779297</ele>
        <time>2014-04-16T08:36:12.000Z</time>
      </trkpt>
      <trkpt lat="47.72247" lon="5.99706">
        <ele>313.79998779297</ele>
        <time>2014-04-16T08:36:13.000Z</time>
      </trkpt>
      <trkpt lat="47.72254" lon="5.99703">
        <ele>313.79998779297</ele>
        <time>2014-04-16T08:36:14.000Z</time>
      </trkpt>
      <trkpt lat="47.72261" lon="5.997">
        <ele>314</ele>
        <time>2014-04-16T08:36:15.000Z</time>
      </trkpt>
      <trkpt lat="47.72267" lon="5.99698">
        <ele>314</ele>
        <time>2014-04-16T08:36:16.000Z</time>
      </trkpt>
      <trkpt lat="47.72272" lon="5.99695">
        <ele>314</ele>
        <time>2014-04-16T08:36:17.000Z</time>
      </trkpt>
      <trkpt lat="47.72278" lon="5.99692">
        <ele>314.20001220703</ele>
        <time>2014-04-16T08:36:18.000Z</time>
      </trkpt>
      <trkpt lat="47.72283" lon="5.9969">
        <ele>314.20001220703</ele>
        <time>2014-04-16T08:36:19.000Z</time>
      </trkpt>
      <trkpt lat="47.7229" lon="5.99688">
        <ele>314.20001220703</ele>
        <time>2014-04-16T08:36:20.000Z</time>
      </trkpt>
      <trkpt lat="47.72314" lon="5.99676">
        <ele>314</ele>
        <time>2014-04-16T08:36:25.000Z</time>
      </trkpt>
      <trkpt lat="47.7234" lon="5.99663">
        <ele>313.60000610352</ele>
        <time>2014-04-16T08:36:30.000Z</time>
      </trkpt>
      <trkpt lat="47.72346" lon="5.99659">
        <ele>314</ele>
        <time>2014-04-16T08:36:31.000Z</time>
      </trkpt>
      <trkpt lat="47.72351" lon="5.99656">
        <ele>314.39999389648</ele>
        <time>2014-04-16T08:36:32.000Z</time>
      </trkpt>
      <trkpt lat="47.72356" lon="5.99651">
        <ele>314.79998779297</ele>
        <time>2014-04-16T08:36:33.000Z</time>
      </trkpt>
      <trkpt lat="47.7236" lon="5.99647">
        <ele>315.20001220703</ele>
        <time>2014-04-16T08:36:34.000Z</time>
      </trkpt>
      <trkpt lat="47.72365" lon="5.99644">
        <ele>315.39999389648</ele>
        <time>2014-04-16T08:36:35.000Z</time>
      </trkpt>
      <trkpt lat="47.72369" lon="5.99641">
        <ele>315.79998779297</ele>
        <time>2014-04-16T08:36:36.000Z</time>
      </trkpt>
      <trkpt lat="47.72378" lon="5.99635">
        <ele>316.20001220703</ele>
        <time>2014-04-16T08:36:38.000Z</time>
      </trkpt>
      <trkpt lat="47.72396" lon="5.99631">
        <ele>316.60000610352</ele>
        <time>2014-04-16T08:36:41.000Z</time>
      </trkpt>
      <trkpt lat="47.72402" lon="5.99629">
        <ele>316.79998779297</ele>
        <time>2014-04-16T08:36:42.000Z</time>
      </trkpt>
      <trkpt lat="47.72408" lon="5.99628">
        <ele>316.79998779297</ele>
        <time>2014-04-16T08:36:43.000Z</time>
      </trkpt>
      <trkpt lat="47.72413" lon="5.99627">
        <ele>316.60000610352</ele>
        <time>2014-04-16T08:36:44.000Z</time>
      </trkpt>
      <trkpt lat="47.72419" lon="5.99626">
        <ele>316.39999389648</ele>
        <time>2014-04-16T08:36:45.000Z</time>
      </trkpt>
      <trkpt lat="47.72423" lon="5.99626">
        <ele>316.20001220703</ele>
        <time>2014-04-16T08:36:46.000Z</time>
      </trkpt>
      <trkpt lat="47.72443" lon="5.99624">
        <ele>316</ele>
        <time>2014-04-16T08:36:51.000Z</time>
      </trkpt>
      <trkpt lat="47.72459" lon="5.99632">
        <ele>315</ele>
        <time>2014-04-16T08:36:57.000Z</time>
      </trkpt>
      <trkpt lat="47.72472" lon="5.99642">
        <ele>313.79998779297</ele>
        <time>2014-04-16T08:37:03.000Z</time>
      </trkpt>
      <trkpt lat="47.72488" lon="5.99646">
        <ele>313</ele>
        <time>2014-04-16T08:37:08.000Z</time>
      </trkpt>
      <trkpt lat="47.72501" lon="5.99651">
        <ele>312.20001220703</ele>
        <time>2014-04-16T08:37:12.000Z</time>
      </trkpt>
      <trkpt lat="47.72518" lon="5.99663">
        <ele>311.79998779297</ele>
        <time>2014-04-16T08:37:18.000Z</time>
      </trkpt>
      <trkpt lat="47.7254" lon="5.99682">
        <ele>311.39999389648</ele>
        <time>2014-04-16T08:37:25.000Z</time>
      </trkpt>
      <trkpt lat="47.72556" lon="5.99692">
        <ele>311.20001220703</ele>
        <time>2014-04-16T08:37:30.000Z</time>
      </trkpt>
      <trkpt lat="47.72571" lon="5.99706">
        <ele>311</ele>
        <time>2014-04-16T08:37:35.000Z</time>
      </trkpt>
      <trkpt lat="47.72592" lon="5.9972">
        <ele>310.79998779297</ele>
        <time>2014-04-16T08:37:41.000Z</time>
      </trkpt>
      <trkpt lat="47.72613" lon="5.99733">
        <ele>310.79998779297</ele>
        <time>2014-04-16T08:37:47.000Z</time>
      </trkpt>
      <trkpt lat="47.72625" lon="5.99742">
        <ele>310.79998779297</ele>
        <time>2014-04-16T08:37:52.000Z</time>
      </trkpt>
      <trkpt lat="47.72642" lon="5.9976">
        <ele>310.60000610352</ele>
        <time>2014-04-16T08:37:57.000Z</time>
      </trkpt>
      <trkpt lat="47.72666" lon="5.99779">
        <ele>310.60000610352</ele>
        <time>2014-04-16T08:38:03.000Z</time>
      </trkpt>
      <trkpt lat="47.72682" lon="5.99789">
        <ele>310.20001220703</ele>
        <time>2014-04-16T08:38:10.000Z</time>
      </trkpt>
      <trkpt lat="47.72704" lon="5.99804">
        <ele>309.20001220703</ele>
        <time>2014-04-16T08:38:17.000Z</time>
      </trkpt>
      <trkpt lat="47.72719" lon="5.99818">
        <ele>308.20001220703</ele>
        <time>2014-04-16T08:38:22.000Z</time>
      </trkpt>
      <trkpt lat="47.72723" lon="5.99821">
        <ele>308.20001220703</ele>
        <time>2014-04-16T08:38:23.000Z</time>
      </trkpt>
      <trkpt lat="47.72727" lon="5.99823">
        <ele>308</ele>
        <time>2014-04-16T08:38:24.000Z</time>
      </trkpt>
      <trkpt lat="47.72731" lon="5.99826">
        <ele>307.79998779297</ele>
        <time>2014-04-16T08:38:25.000Z</time>
      </trkpt>
      <trkpt lat="47.72735" lon="5.99828">
        <ele>307.60000610352</ele>
        <time>2014-04-16T08:38:26.000Z</time>
      </trkpt>
      <trkpt lat="47.7274" lon="5.99831">
        <ele>307.39999389648</ele>
        <time>2014-04-16T08:38:27.000Z</time>
      </trkpt>
      <trkpt lat="47.72745" lon="5.99835">
        <ele>307.20001220703</ele>
        <time>2014-04-16T08:38:28.000Z</time>
      </trkpt>
      <trkpt lat="47.72751" lon="5.99837">
        <ele>307</ele>
        <time>2014-04-16T08:38:29.000Z</time>
      </trkpt>
      <trkpt lat="47.72757" lon="5.99839">
        <ele>306.79998779297</ele>
        <time>2014-04-16T08:38:30.000Z</time>
      </trkpt>
      <trkpt lat="47.72764" lon="5.99839">
        <ele>306.79998779297</ele>
        <time>2014-04-16T08:38:31.000Z</time>
      </trkpt>
      <trkpt lat="47.72769" lon="5.99839">
        <ele>306.79998779297</ele>
        <time>2014-04-16T08:38:32.000Z</time>
      </trkpt>
      <trkpt lat="47.72774" lon="5.99837">
        <ele>307</ele>
        <time>2014-04-16T08:38:33.000Z</time>
      </trkpt>
      <trkpt lat="47.72786" lon="5.9983">
        <ele>307.60000610352</ele>
        <time>2014-04-16T08:38:36.000Z</time>
      </trkpt>
      <trkpt lat="47.7281" lon="5.99819">
        <ele>308.79998779297</ele>
        <time>2014-04-16T08:38:42.000Z</time>
      </trkpt>
      <trkpt lat="47.72831" lon="5.99817">
        <ele>309.20001220703</ele>
        <time>2014-04-16T08:38:48.000Z</time>
      </trkpt>
      <trkpt lat="47.72838" lon="5.99817">
        <ele>309.20001220703</ele>
        <time>2014-04-16T08:38:50.000Z</time>
      </trkpt>
      <trkpt lat="47.72843" lon="5.99816">
        <ele>309.39999389648</ele>
        <time>2014-04-16T08:38:51.000Z</time>
      </trkpt>
      <trkpt lat="47.72846" lon="5.99815">
        <ele>309.39999389648</ele>
        <time>2014-04-16T08:38:52.000Z</time>
      </trkpt>
      <trkpt lat="47.7285" lon="5.99815">
        <ele>309.39999389648</ele>
        <time>2014-04-16T08:38:53.000Z</time>
      </trkpt>
      <trkpt lat="47.72853" lon="5.99814">
        <ele>309.39999389648</ele>
        <time>2014-04-16T08:38:54.000Z</time>
      </trkpt>
      <trkpt lat="47.72874" lon="5.99811">
        <ele>309.79998779297</ele>
        <time>2014-04-16T08:39:00.000Z</time>
      </trkpt>
      <trkpt lat="47.7289" lon="5.9981">
        <ele>309.79998779297</ele>
        <time>2014-04-16T08:39:05.000Z</time>
      </trkpt>
      <trkpt lat="47.72912" lon="5.99811">
        <ele>309.79998779297</ele>
        <time>2014-04-16T08:39:11.000Z</time>
      </trkpt>
      <trkpt lat="47.7294" lon="5.99813">
        <ele>309.20001220703</ele>
        <time>2014-04-16T08:39:17.000Z</time>
      </trkpt>
      <trkpt lat="47.72961" lon="5.99818">
        <ele>308.20001220703</ele>
        <time>2014-04-16T08:39:22.000Z</time>
      </trkpt>
      <trkpt lat="47.72966" lon="5.9982">
        <ele>308</ele>
        <time>2014-04-16T08:39:24.000Z</time>
      </trkpt>
      <trkpt lat="47.72969" lon="5.99821">
        <ele>307.79998779297</ele>
        <time>2014-04-16T08:39:25.000Z</time>
      </trkpt>
      <trkpt lat="47.72972" lon="5.99822">
        <ele>307.60000610352</ele>
        <time>2014-04-16T08:39:26.000Z</time>
      </trkpt>
      <trkpt lat="47.72975" lon="5.99823">
        <ele>307.39999389648</ele>
        <time>2014-04-16T08:39:27.000Z</time>
      </trkpt>
      <trkpt lat="47.72979" lon="5.99823">
        <ele>307.39999389648</ele>
        <time>2014-04-16T08:39:28.000Z</time>
      </trkpt>
      <trkpt lat="47.72985" lon="5.99828">
        <ele>306.79998779297</ele>
        <time>2014-04-16T08:39:31.000Z</time>
      </trkpt>
      <trkpt lat="47.72997" lon="5.99832">
        <ele>306.20001220703</ele>
        <time>2014-04-16T08:39:35.000Z</time>
      </trkpt>
      <trkpt lat="47.72999" lon="5.99834">
        <ele>306</ele>
        <time>2014-04-16T08:39:36.000Z</time>
      </trkpt>
      <trkpt lat="47.73006" lon="5.99837">
        <ele>305.60000610352</ele>
        <time>2014-04-16T08:39:39.000Z</time>
      </trkpt>
      <trkpt lat="47.7301" lon="5.99838">
        <ele>305.60000610352</ele>
        <time>2014-04-16T08:39:40.000Z</time>
      </trkpt>
      <trkpt lat="47.73012" lon="5.9984">
        <ele>305.39999389648</ele>
        <time>2014-04-16T08:39:41.000Z</time>
      </trkpt>
      <trkpt lat="47.73015" lon="5.99841">
        <ele>305.39999389648</ele>
        <time>2014-04-16T08:39:42.000Z</time>
      </trkpt>
      <trkpt lat="47.73017" lon="5.99842">
        <ele>305.39999389648</ele>
        <time>2014-04-16T08:39:43.000Z</time>
      </trkpt>
      <trkpt lat="47.73022" lon="5.99845">
        <ele>305.20001220703</ele>
        <time>2014-04-16T08:39:45.000Z</time>
      </trkpt>
      <trkpt lat="47.73027" lon="5.99851">
        <ele>304.79998779297</ele>
        <time>2014-04-16T08:39:47.000Z</time>
      </trkpt>
      <trkpt lat="47.7303" lon="5.99855">
        <ele>304.39999389648</ele>
        <time>2014-04-16T08:39:48.000Z</time>
      </trkpt>
      <trkpt lat="47.73034" lon="5.9986">
        <ele>304</ele>
        <time>2014-04-16T08:39:49.000Z</time>
      </trkpt>
      <trkpt lat="47.73038" lon="5.99864">
        <ele>303.79998779297</ele>
        <time>2014-04-16T08:39:50.000Z</time>
      </trkpt>
      <trkpt lat="47.73041" lon="5.99869">
        <ele>303.39999389648</ele>
        <time>2014-04-16T08:39:51.000Z</time>
      </trkpt>
      <trkpt lat="47.73045" lon="5.99873">
        <ele>303</ele>
        <time>2014-04-16T08:39:52.000Z</time>
      </trkpt>
      <trkpt lat="47.73047" lon="5.99878">
        <ele>302.60000610352</ele>
        <time>2014-04-16T08:39:53.000Z</time>
      </trkpt>
      <trkpt lat="47.7306" lon="5.99891">
        <ele>301.79998779297</ele>
        <time>2014-04-16T08:39:57.000Z</time>
      </trkpt>
      <trkpt lat="47.73075" lon="5.99905">
        <ele>300.79998779297</ele>
        <time>2014-04-16T08:40:02.000Z</time>
      </trkpt>
      <trkpt lat="47.73092" lon="5.99912">
        <ele>300.20001220703</ele>
        <time>2014-04-16T08:40:07.000Z</time>
      </trkpt>
      <trkpt lat="47.73108" lon="5.99919">
        <ele>299.20001220703</ele>
        <time>2014-04-16T08:40:12.000Z</time>
      </trkpt>
      <trkpt lat="47.73122" lon="5.99928">
        <ele>298.20001220703</ele>
        <time>2014-04-16T08:40:18.000Z</time>
      </trkpt>
      <trkpt lat="47.73138" lon="5.99943">
        <ele>296.39999389648</ele>
        <time>2014-04-16T08:40:25.000Z</time>
      </trkpt>
      <trkpt lat="47.73141" lon="5.99946">
        <ele>296.20001220703</ele>
        <time>2014-04-16T08:40:26.000Z</time>
      </trkpt>
      <trkpt lat="47.73144" lon="5.99949">
        <ele>295.79998779297</ele>
        <time>2014-04-16T08:40:27.000Z</time>
      </trkpt>
      <trkpt lat="47.73146" lon="5.99952">
        <ele>295.60000610352</ele>
        <time>2014-04-16T08:40:28.000Z</time>
      </trkpt>
      <trkpt lat="47.73149" lon="5.99955">
        <ele>295.20001220703</ele>
        <time>2014-04-16T08:40:29.000Z</time>
      </trkpt>
      <trkpt lat="47.73153" lon="5.99957">
        <ele>295</ele>
        <time>2014-04-16T08:40:30.000Z</time>
      </trkpt>
      <trkpt lat="47.73165" lon="5.99971">
        <ele>293.39999389648</ele>
        <time>2014-04-16T08:40:35.000Z</time>
      </trkpt>
      <trkpt lat="47.73167" lon="5.99975">
        <ele>293.20001220703</ele>
        <time>2014-04-16T08:40:36.000Z</time>
      </trkpt>
      <trkpt lat="47.73169" lon="5.99978">
        <ele>292.60000610352</ele>
        <time>2014-04-16T08:40:37.000Z</time>
      </trkpt>
      <trkpt lat="47.73171" lon="5.99981">
        <ele>292.20001220703</ele>
        <time>2014-04-16T08:40:38.000Z</time>
      </trkpt>
      <trkpt lat="47.73174" lon="5.99983">
        <ele>291.79998779297</ele>
        <time>2014-04-16T08:40:39.000Z</time>
      </trkpt>
      <trkpt lat="47.73178" lon="5.99986">
        <ele>291.20001220703</ele>
        <time>2014-04-16T08:40:40.000Z</time>
      </trkpt>
      <trkpt lat="47.73186" lon="5.9999">
        <ele>290.20001220703</ele>
        <time>2014-04-16T08:40:42.000Z</time>
      </trkpt>
      <trkpt lat="47.73191" lon="5.99992">
        <ele>289.79998779297</ele>
        <time>2014-04-16T08:40:43.000Z</time>
      </trkpt>
      <trkpt lat="47.73196" lon="5.99993">
        <ele>289.39999389648</ele>
        <time>2014-04-16T08:40:44.000Z</time>
      </trkpt>
      <trkpt lat="47.73202" lon="5.99993">
        <ele>289.20001220703</ele>
        <time>2014-04-16T08:40:45.000Z</time>
      </trkpt>
      <trkpt lat="47.73208" lon="5.99993">
        <ele>289</ele>
        <time>2014-04-16T08:40:46.000Z</time>
      </trkpt>
      <trkpt lat="47.73214" lon="5.99993">
        <ele>288.79998779297</ele>
        <time>2014-04-16T08:40:47.000Z</time>
      </trkpt>
      <trkpt lat="47.7322" lon="5.99993">
        <ele>288.60000610352</ele>
        <time>2014-04-16T08:40:48.000Z</time>
      </trkpt>
      <trkpt lat="47.73226" lon="5.99993">
        <ele>288.39999389648</ele>
        <time>2014-04-16T08:40:49.000Z</time>
      </trkpt>
      <trkpt lat="47.73246" lon="5.99994">
        <ele>287.60000610352</ele>
        <time>2014-04-16T08:40:52.000Z</time>
      </trkpt>
      <trkpt lat="47.73253" lon="5.99995">
        <ele>287.20001220703</ele>
        <time>2014-04-16T08:40:53.000Z</time>
      </trkpt>
      <trkpt lat="47.73259" lon="5.99996">
        <ele>286.79998779297</ele>
        <time>2014-04-16T08:40:54.000Z</time>
      </trkpt>
      <trkpt lat="47.73265" lon="5.99996">
        <ele>286.60000610352</ele>
        <time>2014-04-16T08:40:55.000Z</time>
      </trkpt>
      <trkpt lat="47.73271" lon="5.99997">
        <ele>286.39999389648</ele>
        <time>2014-04-16T08:40:56.000Z</time>
      </trkpt>
      <trkpt lat="47.73295" lon="6">
        <ele>284</ele>
        <time>2014-04-16T08:41:00.000Z</time>
      </trkpt>
      <trkpt lat="47.73313" lon="6.00005">
        <ele>281.79998779297</ele>
        <time>2014-04-16T08:41:04.000Z</time>
      </trkpt>
      <trkpt lat="47.73318" lon="6.00006">
        <ele>281.20001220703</ele>
        <time>2014-04-16T08:41:05.000Z</time>
      </trkpt>
      <trkpt lat="47.73322" lon="6.00006">
        <ele>280.79998779297</ele>
        <time>2014-04-16T08:41:06.000Z</time>
      </trkpt>
      <trkpt lat="47.73326" lon="6.00007">
        <ele>280.39999389648</ele>
        <time>2014-04-16T08:41:07.000Z</time>
      </trkpt>
      <trkpt lat="47.73329" lon="6.00008">
        <ele>279.79998779297</ele>
        <time>2014-04-16T08:41:08.000Z</time>
      </trkpt>
      <trkpt lat="47.73342" lon="6.00015">
        <ele>278.39999389648</ele>
        <time>2014-04-16T08:41:12.000Z</time>
      </trkpt>
      <trkpt lat="47.73355" lon="6.00019">
        <ele>277.79998779297</ele>
        <time>2014-04-16T08:41:17.000Z</time>
      </trkpt>
      <trkpt lat="47.73367" lon="6.00023">
        <ele>277</ele>
        <time>2014-04-16T08:41:21.000Z</time>
      </trkpt>
      <trkpt lat="47.73369" lon="6.00024">
        <ele>277</ele>
        <time>2014-04-16T08:41:22.000Z</time>
      </trkpt>
      <trkpt lat="47.73372" lon="6.00025">
        <ele>276.79998779297</ele>
        <time>2014-04-16T08:41:23.000Z</time>
      </trkpt>
      <trkpt lat="47.73374" lon="6.00025">
        <ele>276.60000610352</ele>
        <time>2014-04-16T08:41:24.000Z</time>
      </trkpt>
      <trkpt lat="47.73376" lon="6.00026">
        <ele>276.60000610352</ele>
        <time>2014-04-16T08:41:25.000Z</time>
      </trkpt>
      <trkpt lat="47.73385" lon="6.00023">
        <ele>276.39999389648</ele>
        <time>2014-04-16T08:41:28.000Z</time>
      </trkpt>
      <trkpt lat="47.73399" lon="6.00019">
        <ele>276</ele>
        <time>2014-04-16T08:41:32.000Z</time>
      </trkpt>
      <trkpt lat="47.73402" lon="6.00019">
        <ele>275.79998779297</ele>
        <time>2014-04-16T08:41:33.000Z</time>
      </trkpt>
      <trkpt lat="47.73406" lon="6.00019">
        <ele>275.60000610352</ele>
        <time>2014-04-16T08:41:34.000Z</time>
      </trkpt>
      <trkpt lat="47.73409" lon="6.00019">
        <ele>275.39999389648</ele>
        <time>2014-04-16T08:41:35.000Z</time>
      </trkpt>
      <trkpt lat="47.73413" lon="6.00018">
        <ele>275.20001220703</ele>
        <time>2014-04-16T08:41:36.000Z</time>
      </trkpt>
      <trkpt lat="47.73423" lon="6.00019">
        <ele>275</ele>
        <time>2014-04-16T08:41:39.000Z</time>
      </trkpt>
      <trkpt lat="47.73445" lon="6.00023">
        <ele>274.60000610352</ele>
        <time>2014-04-16T08:41:45.000Z</time>
      </trkpt>
      <trkpt lat="47.73476" lon="6.00029">
        <ele>274.39999389648</ele>
        <time>2014-04-16T08:41:54.000Z</time>
      </trkpt>
      <trkpt lat="47.73502" lon="6.00034">
        <ele>274.39999389648</ele>
        <time>2014-04-16T08:42:03.000Z</time>
      </trkpt>
      <trkpt lat="47.73518" lon="6.0004">
        <ele>274.20001220703</ele>
        <time>2014-04-16T08:42:10.000Z</time>
      </trkpt>
      <trkpt lat="47.73526" lon="6.00049">
        <ele>273.60000610352</ele>
        <time>2014-04-16T08:42:15.000Z</time>
      </trkpt>
      <trkpt lat="47.73528" lon="6.00053">
        <ele>273.39999389648</ele>
        <time>2014-04-16T08:42:17.000Z</time>
      </trkpt>
      <trkpt lat="47.73528" lon="6.00055">
        <ele>273.20001220703</ele>
        <time>2014-04-16T08:42:19.000Z</time>
      </trkpt>
      <trkpt lat="47.73527" lon="6.00055">
        <ele>273.20001220703</ele>
        <time>2014-04-16T08:43:52.000Z</time>
      </trkpt>
      <trkpt lat="47.73527" lon="6.00058">
        <ele>273</ele>
        <time>2014-04-16T08:43:53.000Z</time>
      </trkpt>
      <trkpt lat="47.73531" lon="6.00072">
        <ele>272.60000610352</ele>
        <time>2014-04-16T08:43:58.000Z</time>
      </trkpt>
      <trkpt lat="47.73531" lon="6.00078">
        <ele>272.60000610352</ele>
        <time>2014-04-16T08:44:00.000Z</time>
      </trkpt>
      <trkpt lat="47.73531" lon="6.00086">
        <ele>272.39999389648</ele>
        <time>2014-04-16T08:44:02.000Z</time>
      </trkpt>
      <trkpt lat="47.73533" lon="6.00094">
        <ele>272</ele>
        <time>2014-04-16T08:44:04.000Z</time>
      </trkpt>
      <trkpt lat="47.73533" lon="6.00105">
        <ele>271.60000610352</ele>
        <time>2014-04-16T08:44:07.000Z</time>
      </trkpt>
      <trkpt lat="47.73534" lon="6.0011">
        <ele>271.39999389648</ele>
        <time>2014-04-16T08:44:09.000Z</time>
      </trkpt>
      <trkpt lat="47.73537" lon="6.00119">
        <ele>271.20001220703</ele>
        <time>2014-04-16T08:44:13.000Z</time>
      </trkpt>
      <trkpt lat="47.7354" lon="6.00127">
        <ele>271</ele>
        <time>2014-04-16T08:44:16.000Z</time>
      </trkpt>
      <trkpt lat="47.73542" lon="6.00129">
        <ele>271</ele>
        <time>2014-04-16T08:44:17.000Z</time>
      </trkpt>
      <trkpt lat="47.73556" lon="6.00142">
        <ele>270.60000610352</ele>
        <time>2014-04-16T08:44:23.000Z</time>
      </trkpt>
      <trkpt lat="47.73563" lon="6.00147">
        <ele>270.39999389648</ele>
        <time>2014-04-16T08:44:25.000Z</time>
      </trkpt>
      <trkpt lat="47.73566" lon="6.00149">
        <ele>270.39999389648</ele>
        <time>2014-04-16T08:44:26.000Z</time>
      </trkpt>
      <trkpt lat="47.7357" lon="6.00151">
        <ele>270.20001220703</ele>
        <time>2014-04-16T08:44:27.000Z</time>
      </trkpt>
      <trkpt lat="47.73573" lon="6.00154">
        <ele>270.20001220703</ele>
        <time>2014-04-16T08:44:28.000Z</time>
      </trkpt>
      <trkpt lat="47.73577" lon="6.00156">
        <ele>270</ele>
        <time>2014-04-16T08:44:29.000Z</time>
      </trkpt>
      <trkpt lat="47.73581" lon="6.00158">
        <ele>270</ele>
        <time>2014-04-16T08:44:30.000Z</time>
      </trkpt>
      <trkpt lat="47.73602" lon="6.00174">
        <ele>268.79998779297</ele>
        <time>2014-04-16T08:44:35.000Z</time>
      </trkpt>
      <trkpt lat="47.73605" lon="6.00178">
        <ele>268.60000610352</ele>
        <time>2014-04-16T08:44:36.000Z</time>
      </trkpt>
      <trkpt lat="47.73609" lon="6.00182">
        <ele>268.39999389648</ele>
        <time>2014-04-16T08:44:37.000Z</time>
      </trkpt>
      <trkpt lat="47.73612" lon="6.00186">
        <ele>268</ele>
        <time>2014-04-16T08:44:38.000Z</time>
      </trkpt>
      <trkpt lat="47.73616" lon="6.00189">
        <ele>267.79998779297</ele>
        <time>2014-04-16T08:44:39.000Z</time>
      </trkpt>
      <trkpt lat="47.7363" lon="6.00203">
        <ele>266.79998779297</ele>
        <time>2014-04-16T08:44:43.000Z</time>
      </trkpt>
      <trkpt lat="47.73636" lon="6.00209">
        <ele>266.39999389648</ele>
        <time>2014-04-16T08:44:45.000Z</time>
      </trkpt>
      <trkpt lat="47.7364" lon="6.00212">
        <ele>266.20001220703</ele>
        <time>2014-04-16T08:44:46.000Z</time>
      </trkpt>
      <trkpt lat="47.73643" lon="6.00215">
        <ele>266</ele>
        <time>2014-04-16T08:44:47.000Z</time>
      </trkpt>
      <trkpt lat="47.73646" lon="6.00218">
        <ele>265.79998779297</ele>
        <time>2014-04-16T08:44:48.000Z</time>
      </trkpt>
      <trkpt lat="47.73648" lon="6.00218">
        <ele>265.60000610352</ele>
        <time>2014-04-16T08:44:49.000Z</time>
      </trkpt>
      <trkpt lat="47.73649" lon="6.0022">
        <ele>265.60000610352</ele>
        <time>2014-04-16T08:44:50.000Z</time>
      </trkpt>
      <trkpt lat="47.7365" lon="6.00222">
        <ele>265.39999389648</ele>
        <time>2014-04-16T08:44:51.000Z</time>
      </trkpt>
      <trkpt lat="47.7365" lon="6.00225">
        <ele>265.20001220703</ele>
        <time>2014-04-16T08:44:52.000Z</time>
      </trkpt>
      <trkpt lat="47.73647" lon="6.00229">
        <ele>265</ele>
        <time>2014-04-16T08:44:53.000Z</time>
      </trkpt>
      <trkpt lat="47.73644" lon="6.00233">
        <ele>264.79998779297</ele>
        <time>2014-04-16T08:44:54.000Z</time>
      </trkpt>
      <trkpt lat="47.73639" lon="6.00244">
        <ele>264.20001220703</ele>
        <time>2014-04-16T08:44:56.000Z</time>
      </trkpt>
      <trkpt lat="47.73633" lon="6.00255">
        <ele>263.60000610352</ele>
        <time>2014-04-16T08:44:58.000Z</time>
      </trkpt>
      <trkpt lat="47.73629" lon="6.0026">
        <ele>263.39999389648</ele>
        <time>2014-04-16T08:44:59.000Z</time>
      </trkpt>
      <trkpt lat="47.73626" lon="6.00266">
        <ele>263</ele>
        <time>2014-04-16T08:45:00.000Z</time>
      </trkpt>
      <trkpt lat="47.73622" lon="6.0027">
        <ele>262.79998779297</ele>
        <time>2014-04-16T08:45:01.000Z</time>
      </trkpt>
      <trkpt lat="47.73619" lon="6.00275">
        <ele>262.39999389648</ele>
        <time>2014-04-16T08:45:02.000Z</time>
      </trkpt>
      <trkpt lat="47.73609" lon="6.00287">
        <ele>261.60000610352</ele>
        <time>2014-04-16T08:45:05.000Z</time>
      </trkpt>
      <trkpt lat="47.73605" lon="6.00291">
        <ele>261.20001220703</ele>
        <time>2014-04-16T08:45:07.000Z</time>
      </trkpt>
      <trkpt lat="47.73604" lon="6.00292">
        <ele>261.20001220703</ele>
        <time>2014-04-16T08:45:08.000Z</time>
      </trkpt>
      <trkpt lat="47.73602" lon="6.00293">
        <ele>261.20001220703</ele>
        <time>2014-04-16T08:45:09.000Z</time>
      </trkpt>
      <trkpt lat="47.73601" lon="6.00293">
        <ele>261.20001220703</ele>
        <time>2014-04-16T08:45:10.000Z</time>
      </trkpt>
      <trkpt lat="47.73599" lon="6.00293">
        <ele>261</ele>
        <time>2014-04-16T08:45:11.000Z</time>
      </trkpt>
      <trkpt lat="47.73589" lon="6.00296">
        <ele>261</ele>
        <time>2014-04-16T08:45:18.000Z</time>
      </trkpt>
      <trkpt lat="47.73586" lon="6.00297">
        <ele>260.79998779297</ele>
        <time>2014-04-16T08:45:20.000Z</time>
      </trkpt>
      <trkpt lat="47.73586" lon="6.00297">
        <ele>260.79998779297</ele>
        <time>2014-04-16T08:45:21.000Z</time>
      </trkpt>
      <trkpt lat="47.7358" lon="6.00291">
        <ele>261</ele>
        <time>2014-04-16T08:53:15.000Z</time>
      </trkpt>
      <trkpt lat="47.73577" lon="6.0029">
        <ele>261</ele>
        <time>2014-04-16T08:53:16.000Z</time>
      </trkpt>
      <trkpt lat="47.73568" lon="6.00291">
        <ele>260.60000610352</ele>
        <time>2014-04-16T08:53:19.000Z</time>
      </trkpt>
      <trkpt lat="47.73551" lon="6.00292">
        <ele>260.39999389648</ele>
        <time>2014-04-16T08:53:25.000Z</time>
      </trkpt>
      <trkpt lat="47.73543" lon="6.00295">
        <ele>260.20001220703</ele>
        <time>2014-04-16T08:53:28.000Z</time>
      </trkpt>
      <trkpt lat="47.73537" lon="6.00294">
        <ele>260</ele>
        <time>2014-04-16T08:53:30.000Z</time>
      </trkpt>
      <trkpt lat="47.73528" lon="6.00302">
        <ele>259.60000610352</ele>
        <time>2014-04-16T08:53:34.000Z</time>
      </trkpt>
      <trkpt lat="47.73526" lon="6.00304">
        <ele>259.39999389648</ele>
        <time>2014-04-16T08:53:35.000Z</time>
      </trkpt>
      <trkpt lat="47.73518" lon="6.00323">
        <ele>258.39999389648</ele>
        <time>2014-04-16T08:53:41.000Z</time>
      </trkpt>
      <trkpt lat="47.73511" lon="6.0035">
        <ele>257.60000610352</ele>
        <time>2014-04-16T08:53:45.000Z</time>
      </trkpt>
      <trkpt lat="47.7351" lon="6.00357">
        <ele>257.20001220703</ele>
        <time>2014-04-16T08:53:46.000Z</time>
      </trkpt>
      <trkpt lat="47.73506" lon="6.00387">
        <ele>256.20001220703</ele>
        <time>2014-04-16T08:53:50.000Z</time>
      </trkpt>
      <trkpt lat="47.73504" lon="6.00394">
        <ele>256</ele>
        <time>2014-04-16T08:53:51.000Z</time>
      </trkpt>
      <trkpt lat="47.73503" lon="6.00402">
        <ele>255.80000305176</ele>
        <time>2014-04-16T08:53:52.000Z</time>
      </trkpt>
      <trkpt lat="47.73503" lon="6.0041">
        <ele>255.80000305176</ele>
        <time>2014-04-16T08:53:53.000Z</time>
      </trkpt>
      <trkpt lat="47.73502" lon="6.00418">
        <ele>255.60000610352</ele>
        <time>2014-04-16T08:53:54.000Z</time>
      </trkpt>
      <trkpt lat="47.735" lon="6.00434">
        <ele>255.39999389648</ele>
        <time>2014-04-16T08:53:56.000Z</time>
      </trkpt>
      <trkpt lat="47.73499" lon="6.00442">
        <ele>255.19999694824</ele>
        <time>2014-04-16T08:53:57.000Z</time>
      </trkpt>
      <trkpt lat="47.73499" lon="6.0045">
        <ele>255.19999694824</ele>
        <time>2014-04-16T08:53:58.000Z</time>
      </trkpt>
      <trkpt lat="47.73497" lon="6.00458">
        <ele>255</ele>
        <time>2014-04-16T08:53:59.000Z</time>
      </trkpt>
      <trkpt lat="47.73496" lon="6.00466">
        <ele>254.80000305176</ele>
        <time>2014-04-16T08:54:00.000Z</time>
      </trkpt>
      <trkpt lat="47.73484" lon="6.00533">
        <ele>252.80000305176</ele>
        <time>2014-04-16T08:54:08.000Z</time>
      </trkpt>
      <trkpt lat="47.73483" lon="6.00542">
        <ele>252.60000610352</ele>
        <time>2014-04-16T08:54:09.000Z</time>
      </trkpt>
      <trkpt lat="47.73481" lon="6.00551">
        <ele>252.60000610352</ele>
        <time>2014-04-16T08:54:10.000Z</time>
      </trkpt>
      <trkpt lat="47.7348" lon="6.0056">
        <ele>252.39999389648</ele>
        <time>2014-04-16T08:54:11.000Z</time>
      </trkpt>
      <trkpt lat="47.73481" lon="6.0057">
        <ele>252.39999389648</ele>
        <time>2014-04-16T08:54:12.000Z</time>
      </trkpt>
      <trkpt lat="47.7348" lon="6.00589">
        <ele>252</ele>
        <time>2014-04-16T08:54:14.000Z</time>
      </trkpt>
      <trkpt lat="47.73479" lon="6.00607">
        <ele>251.80000305176</ele>
        <time>2014-04-16T08:54:16.000Z</time>
      </trkpt>
      <trkpt lat="47.73475" lon="6.00641">
        <ele>251.60000610352</ele>
        <time>2014-04-16T08:54:20.000Z</time>
      </trkpt>
      <trkpt lat="47.73474" lon="6.00648">
        <ele>251.80000305176</ele>
        <time>2014-04-16T08:54:21.000Z</time>
      </trkpt>
      <trkpt lat="47.73473" lon="6.00656">
        <ele>252</ele>
        <time>2014-04-16T08:54:22.000Z</time>
      </trkpt>
      <trkpt lat="47.73472" lon="6.00664">
        <ele>252.19999694824</ele>
        <time>2014-04-16T08:54:23.000Z</time>
      </trkpt>
      <trkpt lat="47.7347" lon="6.00671">
        <ele>252.39999389648</ele>
        <time>2014-04-16T08:54:24.000Z</time>
      </trkpt>
      <trkpt lat="47.7347" lon="6.00679">
        <ele>252.39999389648</ele>
        <time>2014-04-16T08:54:25.000Z</time>
      </trkpt>
      <trkpt lat="47.73465" lon="6.00724">
        <ele>251.60000610352</ele>
        <time>2014-04-16T08:54:31.000Z</time>
      </trkpt>
      <trkpt lat="47.73464" lon="6.00731">
        <ele>251.60000610352</ele>
        <time>2014-04-16T08:54:32.000Z</time>
      </trkpt>
      <trkpt lat="47.73463" lon="6.00738">
        <ele>251.60000610352</ele>
        <time>2014-04-16T08:54:33.000Z</time>
      </trkpt>
      <trkpt lat="47.73462" lon="6.00744">
        <ele>251.39999389648</ele>
        <time>2014-04-16T08:54:34.000Z</time>
      </trkpt>
      <trkpt lat="47.73461" lon="6.00749">
        <ele>251.39999389648</ele>
        <time>2014-04-16T08:54:35.000Z</time>
      </trkpt>
      <trkpt lat="47.73459" lon="6.00769">
        <ele>251.39999389648</ele>
        <time>2014-04-16T08:54:39.000Z</time>
      </trkpt>
      <trkpt lat="47.73451" lon="6.00812">
        <ele>251.39999389648</ele>
        <time>2014-04-16T08:54:48.000Z</time>
      </trkpt>
      <trkpt lat="47.73442" lon="6.00849">
        <ele>251</ele>
        <time>2014-04-16T08:54:55.000Z</time>
      </trkpt>
      <trkpt lat="47.73434" lon="6.00877">
        <ele>250.60000610352</ele>
        <time>2014-04-16T08:55:01.000Z</time>
      </trkpt>
      <trkpt lat="47.73426" lon="6.00898">
        <ele>250.19999694824</ele>
        <time>2014-04-16T08:55:06.000Z</time>
      </trkpt>
      <trkpt lat="47.73414" lon="6.00922">
        <ele>249.39999389648</ele>
        <time>2014-04-16T08:55:12.000Z</time>
      </trkpt>
      <trkpt lat="47.73404" lon="6.00951">
        <ele>249</ele>
        <time>2014-04-16T08:55:18.000Z</time>
      </trkpt>
      <trkpt lat="47.73394" lon="6.00983">
        <ele>248.39999389648</ele>
        <time>2014-04-16T08:55:25.000Z</time>
      </trkpt>
      <trkpt lat="47.73382" lon="6.01021">
        <ele>248.60000610352</ele>
        <time>2014-04-16T08:55:33.000Z</time>
      </trkpt>
      <trkpt lat="47.73368" lon="6.01057">
        <ele>248.80000305176</ele>
        <time>2014-04-16T08:55:40.000Z</time>
      </trkpt>
      <trkpt lat="47.73366" lon="6.01062">
        <ele>248.80000305176</ele>
        <time>2014-04-16T08:55:41.000Z</time>
      </trkpt>
      <trkpt lat="47.73364" lon="6.01067">
        <ele>249</ele>
        <time>2014-04-16T08:55:42.000Z</time>
      </trkpt>
      <trkpt lat="47.73362" lon="6.01072">
        <ele>249</ele>
        <time>2014-04-16T08:55:43.000Z</time>
      </trkpt>
      <trkpt lat="47.7336" lon="6.01076">
        <ele>249.19999694824</ele>
        <time>2014-04-16T08:55:44.000Z</time>
      </trkpt>
      <trkpt lat="47.73353" lon="6.01093">
        <ele>249.39999389648</ele>
        <time>2014-04-16T08:55:48.000Z</time>
      </trkpt>
      <trkpt lat="47.7334" lon="6.01128">
        <ele>249.80000305176</ele>
        <time>2014-04-16T08:55:56.000Z</time>
      </trkpt>
      <trkpt lat="47.73332" lon="6.01167">
        <ele>251</ele>
        <time>2014-04-16T08:56:04.000Z</time>
      </trkpt>
      <trkpt lat="47.73332" lon="6.01178">
        <ele>251.39999389648</ele>
        <time>2014-04-16T08:56:06.000Z</time>
      </trkpt>
      <trkpt lat="47.73332" lon="6.01183">
        <ele>251.60000610352</ele>
        <time>2014-04-16T08:56:07.000Z</time>
      </trkpt>
      <trkpt lat="47.73332" lon="6.01189">
        <ele>251.80000305176</ele>
        <time>2014-04-16T08:56:08.000Z</time>
      </trkpt>
      <trkpt lat="47.73333" lon="6.01194">
        <ele>252</ele>
        <time>2014-04-16T08:56:09.000Z</time>
      </trkpt>
      <trkpt lat="47.73333" lon="6.01199">
        <ele>252.19999694824</ele>
        <time>2014-04-16T08:56:10.000Z</time>
      </trkpt>
      <trkpt lat="47.73333" lon="6.01204">
        <ele>252.19999694824</ele>
        <time>2014-04-16T08:56:11.000Z</time>
      </trkpt>
      <trkpt lat="47.7334" lon="6.01239">
        <ele>253.39999389648</ele>
        <time>2014-04-16T08:56:18.000Z</time>
      </trkpt>
      <trkpt lat="47.73342" lon="6.0125">
        <ele>253.60000610352</ele>
        <time>2014-04-16T08:56:20.000Z</time>
      </trkpt>
      <trkpt lat="47.73343" lon="6.01255">
        <ele>253.80000305176</ele>
        <time>2014-04-16T08:56:21.000Z</time>
      </trkpt>
      <trkpt lat="47.73344" lon="6.01261">
        <ele>254</ele>
        <time>2014-04-16T08:56:22.000Z</time>
      </trkpt>
      <trkpt lat="47.73345" lon="6.01266">
        <ele>254</ele>
        <time>2014-04-16T08:56:23.000Z</time>
      </trkpt>
      <trkpt lat="47.73346" lon="6.01271">
        <ele>254.19999694824</ele>
        <time>2014-04-16T08:56:24.000Z</time>
      </trkpt>
      <trkpt lat="47.73348" lon="6.01287">
        <ele>254.60000610352</ele>
        <time>2014-04-16T08:56:27.000Z</time>
      </trkpt>
      <trkpt lat="47.7335" lon="6.0132">
        <ele>255.19999694824</ele>
        <time>2014-04-16T08:56:34.000Z</time>
      </trkpt>
      <trkpt lat="47.7335" lon="6.01325">
        <ele>255.19999694824</ele>
        <time>2014-04-16T08:56:35.000Z</time>
      </trkpt>
      <trkpt lat="47.7335" lon="6.0133">
        <ele>255</ele>
        <time>2014-04-16T08:56:36.000Z</time>
      </trkpt>
      <trkpt lat="47.73349" lon="6.01335">
        <ele>255</ele>
        <time>2014-04-16T08:56:37.000Z</time>
      </trkpt>
      <trkpt lat="47.73349" lon="6.01339">
        <ele>254.80000305176</ele>
        <time>2014-04-16T08:56:38.000Z</time>
      </trkpt>
      <trkpt lat="47.73348" lon="6.01344">
        <ele>254.60000610352</ele>
        <time>2014-04-16T08:56:39.000Z</time>
      </trkpt>
      <trkpt lat="47.73347" lon="6.01354">
        <ele>254.39999389648</ele>
        <time>2014-04-16T08:56:41.000Z</time>
      </trkpt>
      <trkpt lat="47.73342" lon="6.01385">
        <ele>253.39999389648</ele>
        <time>2014-04-16T08:56:48.000Z</time>
      </trkpt>
      <trkpt lat="47.73338" lon="6.01412">
        <ele>252.60000610352</ele>
        <time>2014-04-16T08:56:54.000Z</time>
      </trkpt>
      <trkpt lat="47.73338" lon="6.01453">
        <ele>251.60000610352</ele>
        <time>2014-04-16T08:57:02.000Z</time>
      </trkpt>
      <trkpt lat="47.73343" lon="6.01506">
        <ele>250.80000305176</ele>
        <time>2014-04-16T08:57:12.000Z</time>
      </trkpt>
      <trkpt lat="47.73344" lon="6.01548">
        <ele>250.39999389648</ele>
        <time>2014-04-16T08:57:18.000Z</time>
      </trkpt>
      <trkpt lat="47.73344" lon="6.01556">
        <ele>250.39999389648</ele>
        <time>2014-04-16T08:57:19.000Z</time>
      </trkpt>
      <trkpt lat="47.73343" lon="6.01564">
        <ele>250.19999694824</ele>
        <time>2014-04-16T08:57:20.000Z</time>
      </trkpt>
      <trkpt lat="47.73343" lon="6.01571">
        <ele>250.19999694824</ele>
        <time>2014-04-16T08:57:21.000Z</time>
      </trkpt>
      <trkpt lat="47.73342" lon="6.01579">
        <ele>250</ele>
        <time>2014-04-16T08:57:22.000Z</time>
      </trkpt>
      <trkpt lat="47.73339" lon="6.01617">
        <ele>249.39999389648</ele>
        <time>2014-04-16T08:57:27.000Z</time>
      </trkpt>
      <trkpt lat="47.73334" lon="6.01654">
        <ele>249</ele>
        <time>2014-04-16T08:57:32.000Z</time>
      </trkpt>
      <trkpt lat="47.73332" lon="6.01661">
        <ele>249.19999694824</ele>
        <time>2014-04-16T08:57:33.000Z</time>
      </trkpt>
      <trkpt lat="47.73331" lon="6.01668">
        <ele>249.19999694824</ele>
        <time>2014-04-16T08:57:34.000Z</time>
      </trkpt>
      <trkpt lat="47.73329" lon="6.01674">
        <ele>249.19999694824</ele>
        <time>2014-04-16T08:57:35.000Z</time>
      </trkpt>
      <trkpt lat="47.73327" lon="6.01681">
        <ele>249.19999694824</ele>
        <time>2014-04-16T08:57:36.000Z</time>
      </trkpt>
      <trkpt lat="47.73314" lon="6.01733">
        <ele>249.39999389648</ele>
        <time>2014-04-16T08:57:44.000Z</time>
      </trkpt>
      <trkpt lat="47.73308" lon="6.01774">
        <ele>249.19999694824</ele>
        <time>2014-04-16T08:57:50.000Z</time>
      </trkpt>
      <trkpt lat="47.73299" lon="6.0183">
        <ele>249.80000305176</ele>
        <time>2014-04-16T08:57:59.000Z</time>
      </trkpt>
      <trkpt lat="47.7329" lon="6.01878">
        <ele>250</ele>
        <time>2014-04-16T08:58:08.000Z</time>
      </trkpt>
      <trkpt lat="47.73276" lon="6.0192">
        <ele>249</ele>
        <time>2014-04-16T08:58:17.000Z</time>
      </trkpt>
      <trkpt lat="47.7326" lon="6.01957">
        <ele>249.80000305176</ele>
        <time>2014-04-16T08:58:25.000Z</time>
      </trkpt>
      <trkpt lat="47.73245" lon="6.01992">
        <ele>249.80000305176</ele>
        <time>2014-04-16T08:58:32.000Z</time>
      </trkpt>
      <trkpt lat="47.73228" lon="6.0204">
        <ele>248.80000305176</ele>
        <time>2014-04-16T08:58:40.000Z</time>
      </trkpt>
      <trkpt lat="47.73205" lon="6.02096">
        <ele>248.39999389648</ele>
        <time>2014-04-16T08:58:50.000Z</time>
      </trkpt>
      <trkpt lat="47.7318" lon="6.02142">
        <ele>248.60000610352</ele>
        <time>2014-04-16T08:58:59.000Z</time>
      </trkpt>
      <trkpt lat="47.73177" lon="6.02146">
        <ele>248.39999389648</ele>
        <time>2014-04-16T08:59:00.000Z</time>
      </trkpt>
      <trkpt lat="47.73156" lon="6.02176">
        <ele>248.39999389648</ele>
        <time>2014-04-16T08:59:06.000Z</time>
      </trkpt>
      <trkpt lat="47.73129" lon="6.02217">
        <ele>249</ele>
        <time>2014-04-16T08:59:14.000Z</time>
      </trkpt>
      <trkpt lat="47.73116" lon="6.02239">
        <ele>249.19999694824</ele>
        <time>2014-04-16T08:59:18.000Z</time>
      </trkpt>
      <trkpt lat="47.73109" lon="6.02248">
        <ele>249.19999694824</ele>
        <time>2014-04-16T08:59:20.000Z</time>
      </trkpt>
      <trkpt lat="47.73103" lon="6.02259">
        <ele>249.19999694824</ele>
        <time>2014-04-16T08:59:22.000Z</time>
      </trkpt>
      <trkpt lat="47.73091" lon="6.02279">
        <ele>249.39999389648</ele>
        <time>2014-04-16T08:59:26.000Z</time>
      </trkpt>
      <trkpt lat="47.73085" lon="6.02289">
        <ele>249.39999389648</ele>
        <time>2014-04-16T08:59:28.000Z</time>
      </trkpt>
      <trkpt lat="47.73075" lon="6.02304">
        <ele>249</ele>
        <time>2014-04-16T08:59:31.000Z</time>
      </trkpt>
      <trkpt lat="47.73064" lon="6.02324">
        <ele>248.60000610352</ele>
        <time>2014-04-16T08:59:35.000Z</time>
      </trkpt>
      <trkpt lat="47.73061" lon="6.02329">
        <ele>248.60000610352</ele>
        <time>2014-04-16T08:59:36.000Z</time>
      </trkpt>
      <trkpt lat="47.73031" lon="6.02378">
        <ele>247.80000305176</ele>
        <time>2014-04-16T08:59:45.000Z</time>
      </trkpt>
      <trkpt lat="47.73021" lon="6.02395">
        <ele>247.60000610352</ele>
        <time>2014-04-16T08:59:48.000Z</time>
      </trkpt>
      <trkpt lat="47.73018" lon="6.024">
        <ele>247.39999389648</ele>
        <time>2014-04-16T08:59:49.000Z</time>
      </trkpt>
      <trkpt lat="47.73014" lon="6.02406">
        <ele>247.19999694824</ele>
        <time>2014-04-16T08:59:50.000Z</time>
      </trkpt>
      <trkpt lat="47.73011" lon="6.02412">
        <ele>247.19999694824</ele>
        <time>2014-04-16T08:59:51.000Z</time>
      </trkpt>
      <trkpt lat="47.73007" lon="6.02418">
        <ele>247.19999694824</ele>
        <time>2014-04-16T08:59:52.000Z</time>
      </trkpt>
      <trkpt lat="47.73004" lon="6.02423">
        <ele>247.19999694824</ele>
        <time>2014-04-16T08:59:53.000Z</time>
      </trkpt>
      <trkpt lat="47.72973" lon="6.02476">
        <ele>246</ele>
        <time>2014-04-16T09:00:02.000Z</time>
      </trkpt>
      <trkpt lat="47.72955" lon="6.02507">
        <ele>245.19999694824</ele>
        <time>2014-04-16T09:00:07.000Z</time>
      </trkpt>
      <trkpt lat="47.72951" lon="6.02513">
        <ele>245.19999694824</ele>
        <time>2014-04-16T09:00:08.000Z</time>
      </trkpt>
      <trkpt lat="47.72948" lon="6.02519">
        <ele>245.19999694824</ele>
        <time>2014-04-16T09:00:09.000Z</time>
      </trkpt>
      <trkpt lat="47.72944" lon="6.02526">
        <ele>245.19999694824</ele>
        <time>2014-04-16T09:00:10.000Z</time>
      </trkpt>
      <trkpt lat="47.72941" lon="6.02533">
        <ele>245</ele>
        <time>2014-04-16T09:00:11.000Z</time>
      </trkpt>
      <trkpt lat="47.72938" lon="6.02539">
        <ele>245</ele>
        <time>2014-04-16T09:00:12.000Z</time>
      </trkpt>
      <trkpt lat="47.72912" lon="6.02592">
        <ele>244.80000305176</ele>
        <time>2014-04-16T09:00:20.000Z</time>
      </trkpt>
      <trkpt lat="47.72899" lon="6.02623">
        <ele>244.39999389648</ele>
        <time>2014-04-16T09:00:24.000Z</time>
      </trkpt>
      <trkpt lat="47.72894" lon="6.02631">
        <ele>244.39999389648</ele>
        <time>2014-04-16T09:00:25.000Z</time>
      </trkpt>
      <trkpt lat="47.7289" lon="6.0264">
        <ele>244.19999694824</ele>
        <time>2014-04-16T09:00:26.000Z</time>
      </trkpt>
      <trkpt lat="47.72887" lon="6.02648">
        <ele>244.19999694824</ele>
        <time>2014-04-16T09:00:27.000Z</time>
      </trkpt>
      <trkpt lat="47.72883" lon="6.02656">
        <ele>244</ele>
        <time>2014-04-16T09:00:28.000Z</time>
      </trkpt>
      <trkpt lat="47.72866" lon="6.02695">
        <ele>243.80000305176</ele>
        <time>2014-04-16T09:00:33.000Z</time>
      </trkpt>
      <trkpt lat="47.72862" lon="6.02709">
        <ele>243.60000610352</ele>
        <time>2014-04-16T09:00:35.000Z</time>
      </trkpt>
      <trkpt lat="47.72854" lon="6.02731">
        <ele>243.19999694824</ele>
        <time>2014-04-16T09:00:39.000Z</time>
      </trkpt>
      <trkpt lat="47.72854" lon="6.02735">
        <ele>242.80000305176</ele>
        <time>2014-04-16T09:00:40.000Z</time>
      </trkpt>
      <trkpt lat="47.72853" lon="6.02738">
        <ele>242.60000610352</ele>
        <time>2014-04-16T09:00:41.000Z</time>
      </trkpt>
      <trkpt lat="47.72853" lon="6.02741">
        <ele>242.39999389648</ele>
        <time>2014-04-16T09:00:42.000Z</time>
      </trkpt>
      <trkpt lat="47.72853" lon="6.02744">
        <ele>242.39999389648</ele>
        <time>2014-04-16T09:00:43.000Z</time>
      </trkpt>
      <trkpt lat="47.72853" lon="6.02747">
        <ele>242.60000610352</ele>
        <time>2014-04-16T09:00:44.000Z</time>
      </trkpt>
      <trkpt lat="47.72855" lon="6.02774">
        <ele>242.80000305176</ele>
        <time>2014-04-16T09:00:51.000Z</time>
      </trkpt>
      <trkpt lat="47.72856" lon="6.02778">
        <ele>242.80000305176</ele>
        <time>2014-04-16T09:00:52.000Z</time>
      </trkpt>
      <trkpt lat="47.72856" lon="6.02783">
        <ele>242.80000305176</ele>
        <time>2014-04-16T09:00:53.000Z</time>
      </trkpt>
      <trkpt lat="47.72857" lon="6.02788">
        <ele>242.80000305176</ele>
        <time>2014-04-16T09:00:54.000Z</time>
      </trkpt>
      <trkpt lat="47.72858" lon="6.02794">
        <ele>242.80000305176</ele>
        <time>2014-04-16T09:00:55.000Z</time>
      </trkpt>
      <trkpt lat="47.72859" lon="6.02806">
        <ele>243</ele>
        <time>2014-04-16T09:00:57.000Z</time>
      </trkpt>
      <trkpt lat="47.72861" lon="6.02828">
        <ele>241</ele>
        <time>2014-04-16T09:01:00.000Z</time>
      </trkpt>
      <trkpt lat="47.72862" lon="6.02836">
        <ele>240.39999389648</ele>
        <time>2014-04-16T09:01:01.000Z</time>
      </trkpt>
      <trkpt lat="47.72864" lon="6.02843">
        <ele>240.19999694824</ele>
        <time>2014-04-16T09:01:02.000Z</time>
      </trkpt>
      <trkpt lat="47.72866" lon="6.02851">
        <ele>240</ele>
        <time>2014-04-16T09:01:03.000Z</time>
      </trkpt>
      <trkpt lat="47.72868" lon="6.02859">
        <ele>239.80000305176</ele>
        <time>2014-04-16T09:01:04.000Z</time>
      </trkpt>
      <trkpt lat="47.72871" lon="6.02866">
        <ele>239.39999389648</ele>
        <time>2014-04-16T09:01:05.000Z</time>
      </trkpt>
      <trkpt lat="47.72873" lon="6.02874">
        <ele>239.19999694824</ele>
        <time>2014-04-16T09:01:06.000Z</time>
      </trkpt>
      <trkpt lat="47.72877" lon="6.02881">
        <ele>238.60000610352</ele>
        <time>2014-04-16T09:01:07.000Z</time>
      </trkpt>
      <trkpt lat="47.72881" lon="6.02888">
        <ele>238.19999694824</ele>
        <time>2014-04-16T09:01:08.000Z</time>
      </trkpt>
      <trkpt lat="47.72885" lon="6.02895">
        <ele>237.39999389648</ele>
        <time>2014-04-16T09:01:09.000Z</time>
      </trkpt>
      <trkpt lat="47.72889" lon="6.02904">
        <ele>236.39999389648</ele>
        <time>2014-04-16T09:01:10.000Z</time>
      </trkpt>
      <trkpt lat="47.72893" lon="6.02914">
        <ele>235.60000610352</ele>
        <time>2014-04-16T09:01:11.000Z</time>
      </trkpt>
      <trkpt lat="47.72895" lon="6.02926">
        <ele>234.80000305176</ele>
        <time>2014-04-16T09:01:12.000Z</time>
      </trkpt>
      <trkpt lat="47.72896" lon="6.02938">
        <ele>234.19999694824</ele>
        <time>2014-04-16T09:01:13.000Z</time>
      </trkpt>
      <trkpt lat="47.72897" lon="6.02951">
        <ele>233.60000610352</ele>
        <time>2014-04-16T09:01:14.000Z</time>
      </trkpt>
      <trkpt lat="47.72897" lon="6.02963">
        <ele>233.39999389648</ele>
        <time>2014-04-16T09:01:15.000Z</time>
      </trkpt>
      <trkpt lat="47.72897" lon="6.02975">
        <ele>233.39999389648</ele>
        <time>2014-04-16T09:01:16.000Z</time>
      </trkpt>
      <trkpt lat="47.72897" lon="6.02988">
        <ele>233.19999694824</ele>
        <time>2014-04-16T09:01:17.000Z</time>
      </trkpt>
      <trkpt lat="47.72893" lon="6.03058">
        <ele>231</ele>
        <time>2014-04-16T09:01:23.000Z</time>
      </trkpt>
      <trkpt lat="47.7289" lon="6.03077">
        <ele>231.60000610352</ele>
        <time>2014-04-16T09:01:25.000Z</time>
      </trkpt>
      <trkpt lat="47.72888" lon="6.03087">
        <ele>232</ele>
        <time>2014-04-16T09:01:26.000Z</time>
      </trkpt>
      <trkpt lat="47.72887" lon="6.03096">
        <ele>232.39999389648</ele>
        <time>2014-04-16T09:01:27.000Z</time>
      </trkpt>
      <trkpt lat="47.72884" lon="6.03105">
        <ele>232.80000305176</ele>
        <time>2014-04-16T09:01:28.000Z</time>
      </trkpt>
      <trkpt lat="47.72882" lon="6.03114">
        <ele>232.39999389648</ele>
        <time>2014-04-16T09:01:29.000Z</time>
      </trkpt>
      <trkpt lat="47.72861" lon="6.03191">
        <ele>230.60000610352</ele>
        <time>2014-04-16T09:01:38.000Z</time>
      </trkpt>
      <trkpt lat="47.72856" lon="6.03208">
        <ele>229.60000610352</ele>
        <time>2014-04-16T09:01:40.000Z</time>
      </trkpt>
      <trkpt lat="47.72854" lon="6.03216">
        <ele>229</ele>
        <time>2014-04-16T09:01:41.000Z</time>
      </trkpt>
      <trkpt lat="47.72852" lon="6.03225">
        <ele>228.39999389648</ele>
        <time>2014-04-16T09:01:42.000Z</time>
      </trkpt>
      <trkpt lat="47.7285" lon="6.03234">
        <ele>228.39999389648</ele>
        <time>2014-04-16T09:01:43.000Z</time>
      </trkpt>
      <trkpt lat="47.72848" lon="6.03242">
        <ele>228</ele>
        <time>2014-04-16T09:01:44.000Z</time>
      </trkpt>
      <trkpt lat="47.72846" lon="6.03251">
        <ele>227.60000610352</ele>
        <time>2014-04-16T09:01:45.000Z</time>
      </trkpt>
      <trkpt lat="47.72844" lon="6.0326">
        <ele>227.19999694824</ele>
        <time>2014-04-16T09:01:46.000Z</time>
      </trkpt>
      <trkpt lat="47.72837" lon="6.03287">
        <ele>225.80000305176</ele>
        <time>2014-04-16T09:01:49.000Z</time>
      </trkpt>
      <trkpt lat="47.72836" lon="6.03296">
        <ele>225.80000305176</ele>
        <time>2014-04-16T09:01:50.000Z</time>
      </trkpt>
      <trkpt lat="47.72834" lon="6.03304">
        <ele>225.80000305176</ele>
        <time>2014-04-16T09:01:51.000Z</time>
      </trkpt>
      <trkpt lat="47.72832" lon="6.03313">
        <ele>225.80000305176</ele>
        <time>2014-04-16T09:01:52.000Z</time>
      </trkpt>
      <trkpt lat="47.7283" lon="6.03321">
        <ele>225.80000305176</ele>
        <time>2014-04-16T09:01:53.000Z</time>
      </trkpt>
      <trkpt lat="47.72827" lon="6.03337">
        <ele>226</ele>
        <time>2014-04-16T09:01:55.000Z</time>
      </trkpt>
      <trkpt lat="47.72826" lon="6.03352">
        <ele>225.80000305176</ele>
        <time>2014-04-16T09:01:57.000Z</time>
      </trkpt>
      <trkpt lat="47.72826" lon="6.0336">
        <ele>225.80000305176</ele>
        <time>2014-04-16T09:01:58.000Z</time>
      </trkpt>
      <trkpt lat="47.72827" lon="6.03401">
        <ele>223.80000305176</ele>
        <time>2014-04-16T09:02:04.000Z</time>
      </trkpt>
      <trkpt lat="47.7283" lon="6.0342">
        <ele>223.60000610352</ele>
        <time>2014-04-16T09:02:07.000Z</time>
      </trkpt>
      <trkpt lat="47.72833" lon="6.03439">
        <ele>223.39999389648</ele>
        <time>2014-04-16T09:02:10.000Z</time>
      </trkpt>
      <trkpt lat="47.72838" lon="6.03493">
        <ele>223.60000610352</ele>
        <time>2014-04-16T09:02:19.000Z</time>
      </trkpt>
      <trkpt lat="47.72839" lon="6.03529">
        <ele>224.39999389648</ele>
        <time>2014-04-16T09:02:25.000Z</time>
      </trkpt>
      <trkpt lat="47.72833" lon="6.0356">
        <ele>224.80000305176</ele>
        <time>2014-04-16T09:02:31.000Z</time>
      </trkpt>
      <trkpt lat="47.72819" lon="6.03579">
        <ele>224.60000610352</ele>
        <time>2014-04-16T09:02:36.000Z</time>
      </trkpt>
      <trkpt lat="47.72813" lon="6.03586">
        <ele>224.39999389648</ele>
        <time>2014-04-16T09:02:38.000Z</time>
      </trkpt>
      <trkpt lat="47.72798" lon="6.03599">
        <ele>224.19999694824</ele>
        <time>2014-04-16T09:02:42.000Z</time>
      </trkpt>
      <trkpt lat="47.72775" lon="6.03623">
        <ele>224.60000610352</ele>
        <time>2014-04-16T09:02:49.000Z</time>
      </trkpt>
      <trkpt lat="47.72754" lon="6.03648">
        <ele>225.39999389648</ele>
        <time>2014-04-16T09:02:56.000Z</time>
      </trkpt>
      <trkpt lat="47.72735" lon="6.03676">
        <ele>225.19999694824</ele>
        <time>2014-04-16T09:03:03.000Z</time>
      </trkpt>
      <trkpt lat="47.72708" lon="6.03722">
        <ele>226</ele>
        <time>2014-04-16T09:03:13.000Z</time>
      </trkpt>
      <trkpt lat="47.72688" lon="6.03757">
        <ele>226.19999694824</ele>
        <time>2014-04-16T09:03:21.000Z</time>
      </trkpt>
      <trkpt lat="47.72669" lon="6.03792">
        <ele>226</ele>
        <time>2014-04-16T09:03:29.000Z</time>
      </trkpt>
      <trkpt lat="47.72657" lon="6.03833">
        <ele>224.80000305176</ele>
        <time>2014-04-16T09:03:36.000Z</time>
      </trkpt>
      <trkpt lat="47.72648" lon="6.03888">
        <ele>223.60000610352</ele>
        <time>2014-04-16T09:03:44.000Z</time>
      </trkpt>
      <trkpt lat="47.72644" lon="6.03938">
        <ele>222.39999389648</ele>
        <time>2014-04-16T09:03:51.000Z</time>
      </trkpt>
      <trkpt lat="47.72644" lon="6.03945">
        <ele>222.19999694824</ele>
        <time>2014-04-16T09:03:52.000Z</time>
      </trkpt>
      <trkpt lat="47.72643" lon="6.03952">
        <ele>222.19999694824</ele>
        <time>2014-04-16T09:03:53.000Z</time>
      </trkpt>
      <trkpt lat="47.72643" lon="6.03958">
        <ele>222</ele>
        <time>2014-04-16T09:03:54.000Z</time>
      </trkpt>
      <trkpt lat="47.72643" lon="6.03965">
        <ele>222</ele>
        <time>2014-04-16T09:03:55.000Z</time>
      </trkpt>
      <trkpt lat="47.72643" lon="6.04003">
        <ele>221</ele>
        <time>2014-04-16T09:04:00.000Z</time>
      </trkpt>
      <trkpt lat="47.72646" lon="6.04025">
        <ele>220.60000610352</ele>
        <time>2014-04-16T09:04:03.000Z</time>
      </trkpt>
      <trkpt lat="47.72646" lon="6.04029">
        <ele>220.60000610352</ele>
        <time>2014-04-16T09:04:04.000Z</time>
      </trkpt>
      <trkpt lat="47.72647" lon="6.04034">
        <ele>220.60000610352</ele>
        <time>2014-04-16T09:04:05.000Z</time>
      </trkpt>
      <trkpt lat="47.72648" lon="6.04038">
        <ele>220.60000610352</ele>
        <time>2014-04-16T09:04:06.000Z</time>
      </trkpt>
      <trkpt lat="47.72648" lon="6.04042">
        <ele>220.60000610352</ele>
        <time>2014-04-16T09:04:07.000Z</time>
      </trkpt>
      <trkpt lat="47.72646" lon="6.04057">
        <ele>220.19999694824</ele>
        <time>2014-04-16T09:04:10.000Z</time>
      </trkpt>
      <trkpt lat="47.72649" lon="6.04079">
        <ele>219.19999694824</ele>
        <time>2014-04-16T09:04:14.000Z</time>
      </trkpt>
      <trkpt lat="47.72651" lon="6.04084">
        <ele>219.19999694824</ele>
        <time>2014-04-16T09:04:15.000Z</time>
      </trkpt>
      <trkpt lat="47.72652" lon="6.0409">
        <ele>219</ele>
        <time>2014-04-16T09:04:16.000Z</time>
      </trkpt>
      <trkpt lat="47.72654" lon="6.04096">
        <ele>218.80000305176</ele>
        <time>2014-04-16T09:04:17.000Z</time>
      </trkpt>
      <trkpt lat="47.72655" lon="6.04101">
        <ele>218.60000610352</ele>
        <time>2014-04-16T09:04:18.000Z</time>
      </trkpt>
      <trkpt lat="47.72659" lon="6.04128">
        <ele>217.60000610352</ele>
        <time>2014-04-16T09:04:22.000Z</time>
      </trkpt>
      <trkpt lat="47.72661" lon="6.04148">
        <ele>217</ele>
        <time>2014-04-16T09:04:25.000Z</time>
      </trkpt>
      <trkpt lat="47.72655" lon="6.0416">
        <ele>215.80000305176</ele>
        <time>2014-04-16T09:04:27.000Z</time>
      </trkpt>
      <trkpt lat="47.72646" lon="6.04169">
        <ele>214.60000610352</ele>
        <time>2014-04-16T09:04:29.000Z</time>
      </trkpt>
      <trkpt lat="47.72641" lon="6.04174">
        <ele>214</ele>
        <time>2014-04-16T09:04:30.000Z</time>
      </trkpt>
      <trkpt lat="47.72636" lon="6.04179">
        <ele>213.39999389648</ele>
        <time>2014-04-16T09:04:31.000Z</time>
      </trkpt>
      <trkpt lat="47.72631" lon="6.04184">
        <ele>212.60000610352</ele>
        <time>2014-04-16T09:04:32.000Z</time>
      </trkpt>
      <trkpt lat="47.72626" lon="6.04189">
        <ele>212.19999694824</ele>
        <time>2014-04-16T09:04:33.000Z</time>
      </trkpt>
      <trkpt lat="47.72621" lon="6.04194">
        <ele>211.60000610352</ele>
        <time>2014-04-16T09:04:34.000Z</time>
      </trkpt>
      <trkpt lat="47.72604" lon="6.0421">
        <ele>209.80000305176</ele>
        <time>2014-04-16T09:04:37.000Z</time>
      </trkpt>
      <trkpt lat="47.72599" lon="6.04215">
        <ele>209.19999694824</ele>
        <time>2014-04-16T09:04:38.000Z</time>
      </trkpt>
      <trkpt lat="47.72594" lon="6.04221">
        <ele>208.60000610352</ele>
        <time>2014-04-16T09:04:39.000Z</time>
      </trkpt>
      <trkpt lat="47.72588" lon="6.04227">
        <ele>208</ele>
        <time>2014-04-16T09:04:40.000Z</time>
      </trkpt>
      <trkpt lat="47.72582" lon="6.04232">
        <ele>207.80000305176</ele>
        <time>2014-04-16T09:04:41.000Z</time>
      </trkpt>
      <trkpt lat="47.72577" lon="6.04238">
        <ele>207.60000610352</ele>
        <time>2014-04-16T09:04:42.000Z</time>
      </trkpt>
      <trkpt lat="47.7257" lon="6.04244">
        <ele>207.39999389648</ele>
        <time>2014-04-16T09:04:43.000Z</time>
      </trkpt>
      <trkpt lat="47.72565" lon="6.04251">
        <ele>207.19999694824</ele>
        <time>2014-04-16T09:04:44.000Z</time>
      </trkpt>
      <trkpt lat="47.7256" lon="6.04258">
        <ele>207</ele>
        <time>2014-04-16T09:04:45.000Z</time>
      </trkpt>
      <trkpt lat="47.72557" lon="6.04266">
        <ele>206.80000305176</ele>
        <time>2014-04-16T09:04:46.000Z</time>
      </trkpt>
      <trkpt lat="47.72557" lon="6.04293">
        <ele>206.60000610352</ele>
        <time>2014-04-16T09:04:49.000Z</time>
      </trkpt>
      <trkpt lat="47.72562" lon="6.04309">
        <ele>206.60000610352</ele>
        <time>2014-04-16T09:04:51.000Z</time>
      </trkpt>
      <trkpt lat="47.72565" lon="6.04317">
        <ele>206.60000610352</ele>
        <time>2014-04-16T09:04:52.000Z</time>
      </trkpt>
      <trkpt lat="47.72567" lon="6.04324">
        <ele>206.60000610352</ele>
        <time>2014-04-16T09:04:53.000Z</time>
      </trkpt>
      <trkpt lat="47.72569" lon="6.04331">
        <ele>206.60000610352</ele>
        <time>2014-04-16T09:04:54.000Z</time>
      </trkpt>
      <trkpt lat="47.72572" lon="6.04338">
        <ele>206.39999389648</ele>
        <time>2014-04-16T09:04:55.000Z</time>
      </trkpt>
      <trkpt lat="47.72591" lon="6.04389">
        <ele>206.19999694824</ele>
        <time>2014-04-16T09:05:03.000Z</time>
      </trkpt>
      <trkpt lat="47.72608" lon="6.04424">
        <ele>207</ele>
        <time>2014-04-16T09:05:09.000Z</time>
      </trkpt>
      <trkpt lat="47.72621" lon="6.04446">
        <ele>207.60000610352</ele>
        <time>2014-04-16T09:05:13.000Z</time>
      </trkpt>
      <trkpt lat="47.72635" lon="6.04466">
        <ele>208.39999389648</ele>
        <time>2014-04-16T09:05:17.000Z</time>
      </trkpt>
      <trkpt lat="47.72653" lon="6.04495">
        <ele>209.19999694824</ele>
        <time>2014-04-16T09:05:23.000Z</time>
      </trkpt>
      <trkpt lat="47.72658" lon="6.04504">
        <ele>209.60000610352</ele>
        <time>2014-04-16T09:05:25.000Z</time>
      </trkpt>
      <trkpt lat="47.72679" lon="6.0454">
        <ele>210.60000610352</ele>
        <time>2014-04-16T09:05:33.000Z</time>
      </trkpt>
      <trkpt lat="47.72698" lon="6.04575">
        <ele>211.19999694824</ele>
        <time>2014-04-16T09:05:41.000Z</time>
      </trkpt>
      <trkpt lat="47.72716" lon="6.04607">
        <ele>211</ele>
        <time>2014-04-16T09:05:48.000Z</time>
      </trkpt>
      <trkpt lat="47.72738" lon="6.04641">
        <ele>210.80000305176</ele>
        <time>2014-04-16T09:05:56.000Z</time>
      </trkpt>
      <trkpt lat="47.7275" lon="6.04657">
        <ele>210.80000305176</ele>
        <time>2014-04-16T09:06:00.000Z</time>
      </trkpt>
      <trkpt lat="47.72756" lon="6.04665">
        <ele>210.80000305176</ele>
        <time>2014-04-16T09:06:02.000Z</time>
      </trkpt>
      <trkpt lat="47.72776" lon="6.0469">
        <ele>210.60000610352</ele>
        <time>2014-04-16T09:06:08.000Z</time>
      </trkpt>
      <trkpt lat="47.72802" lon="6.04712">
        <ele>210.80000305176</ele>
        <time>2014-04-16T09:06:15.000Z</time>
      </trkpt>
      <trkpt lat="47.72813" lon="6.0472">
        <ele>210.80000305176</ele>
        <time>2014-04-16T09:06:18.000Z</time>
      </trkpt>
      <trkpt lat="47.72823" lon="6.04726">
        <ele>210.80000305176</ele>
        <time>2014-04-16T09:06:21.000Z</time>
      </trkpt>
      <trkpt lat="47.72829" lon="6.04726">
        <ele>211</ele>
        <time>2014-04-16T09:06:23.000Z</time>
      </trkpt>
      <trkpt lat="47.72835" lon="6.04721">
        <ele>211</ele>
        <time>2014-04-16T09:06:25.000Z</time>
      </trkpt>
      <trkpt lat="47.72842" lon="6.0471">
        <ele>211.80000305176</ele>
        <time>2014-04-16T09:06:27.000Z</time>
      </trkpt>
      <trkpt lat="47.72853" lon="6.04693">
        <ele>213</ele>
        <time>2014-04-16T09:06:31.000Z</time>
      </trkpt>
      <trkpt lat="47.72861" lon="6.04689">
        <ele>213.39999389648</ele>
        <time>2014-04-16T09:06:34.000Z</time>
      </trkpt>
      <trkpt lat="47.72864" lon="6.0469">
        <ele>213.60000610352</ele>
        <time>2014-04-16T09:06:35.000Z</time>
      </trkpt>
      <trkpt lat="47.72873" lon="6.04698">
        <ele>213.80000305176</ele>
        <time>2014-04-16T09:06:39.000Z</time>
      </trkpt>
      <trkpt lat="47.72875" lon="6.047">
        <ele>213.80000305176</ele>
        <time>2014-04-16T09:06:40.000Z</time>
      </trkpt>
      <trkpt lat="47.72877" lon="6.04702">
        <ele>213.80000305176</ele>
        <time>2014-04-16T09:06:41.000Z</time>
      </trkpt>
      <trkpt lat="47.72879" lon="6.04705">
        <ele>213.80000305176</ele>
        <time>2014-04-16T09:06:42.000Z</time>
      </trkpt>
      <trkpt lat="47.72887" lon="6.04713">
        <ele>213.80000305176</ele>
        <time>2014-04-16T09:06:45.000Z</time>
      </trkpt>
      <trkpt lat="47.72907" lon="6.04722">
        <ele>214.60000610352</ele>
        <time>2014-04-16T09:06:51.000Z</time>
      </trkpt>
      <trkpt lat="47.72928" lon="6.04715">
        <ele>215.60000610352</ele>
        <time>2014-04-16T09:06:57.000Z</time>
      </trkpt>
      <trkpt lat="47.72936" lon="6.04714">
        <ele>215.60000610352</ele>
        <time>2014-04-16T09:07:01.000Z</time>
      </trkpt>
      <trkpt lat="47.72944" lon="6.04733">
        <ele>215.19999694824</ele>
        <time>2014-04-16T09:07:36.000Z</time>
      </trkpt>
      <trkpt lat="47.72946" lon="6.0474">
        <ele>215.60000610352</ele>
        <time>2014-04-16T09:07:39.000Z</time>
      </trkpt>
      <trkpt lat="47.72954" lon="6.04757">
        <ele>216.19999694824</ele>
        <time>2014-04-16T09:07:46.000Z</time>
      </trkpt>
      <trkpt lat="47.72956" lon="6.0476">
        <ele>216.19999694824</ele>
        <time>2014-04-16T09:07:48.000Z</time>
      </trkpt>
      <trkpt lat="47.72964" lon="6.04781">
        <ele>216.80000305176</ele>
        <time>2014-04-16T09:08:25.000Z</time>
      </trkpt>
      <trkpt lat="47.72971" lon="6.04786">
        <ele>217</ele>
        <time>2014-04-16T09:08:28.000Z</time>
      </trkpt>
      <trkpt lat="47.72984" lon="6.04796">
        <ele>217.39999389648</ele>
        <time>2014-04-16T09:08:33.000Z</time>
      </trkpt>
      <trkpt lat="47.73008" lon="6.04813">
        <ele>217.80000305176</ele>
        <time>2014-04-16T09:08:39.000Z</time>
      </trkpt>
      <trkpt lat="47.7303" lon="6.04827">
        <ele>216.19999694824</ele>
        <time>2014-04-16T09:08:45.000Z</time>
      </trkpt>
      <trkpt lat="47.73046" lon="6.04834">
        <ele>215.19999694824</ele>
        <time>2014-04-16T09:08:50.000Z</time>
      </trkpt>
      <trkpt lat="47.73052" lon="6.04837">
        <ele>214.80000305176</ele>
        <time>2014-04-16T09:08:53.000Z</time>
      </trkpt>
      <trkpt lat="47.73057" lon="6.04843">
        <ele>214.39999389648</ele>
        <time>2014-04-16T09:08:55.000Z</time>
      </trkpt>
      <trkpt lat="47.73068" lon="6.04859">
        <ele>213.60000610352</ele>
        <time>2014-04-16T09:09:00.000Z</time>
      </trkpt>
      <trkpt lat="47.73084" lon="6.04883">
        <ele>212.39999389648</ele>
        <time>2014-04-16T09:09:07.000Z</time>
      </trkpt>
      <trkpt lat="47.73093" lon="6.04898">
        <ele>212</ele>
        <time>2014-04-16T09:09:13.000Z</time>
      </trkpt>
      <trkpt lat="47.73103" lon="6.04917">
        <ele>211.80000305176</ele>
        <time>2014-04-16T09:09:19.000Z</time>
      </trkpt>
      <trkpt lat="47.73112" lon="6.04932">
        <ele>211.60000610352</ele>
        <time>2014-04-16T09:09:25.000Z</time>
      </trkpt>
      <trkpt lat="47.73123" lon="6.04952">
        <ele>211.19999694824</ele>
        <time>2014-04-16T09:09:33.000Z</time>
      </trkpt>
      <trkpt lat="47.7313" lon="6.04971">
        <ele>211</ele>
        <time>2014-04-16T09:09:40.000Z</time>
      </trkpt>
      <trkpt lat="47.73135" lon="6.04999">
        <ele>210.80000305176</ele>
        <time>2014-04-16T09:09:47.000Z</time>
      </trkpt>
      <trkpt lat="47.73133" lon="6.05029">
        <ele>210.39999389648</ele>
        <time>2014-04-16T09:09:53.000Z</time>
      </trkpt>
      <trkpt lat="47.73128" lon="6.05076">
        <ele>210.80000305176</ele>
        <time>2014-04-16T09:10:02.000Z</time>
      </trkpt>
      <trkpt lat="47.73124" lon="6.05104">
        <ele>211</ele>
        <time>2014-04-16T09:10:08.000Z</time>
      </trkpt>
      <trkpt lat="47.73118" lon="6.0514">
        <ele>211</ele>
        <time>2014-04-16T09:10:16.000Z</time>
      </trkpt>
      <trkpt lat="47.73111" lon="6.05177">
        <ele>211.39999389648</ele>
        <time>2014-04-16T09:10:24.000Z</time>
      </trkpt>
      <trkpt lat="47.73106" lon="6.05205">
        <ele>211.80000305176</ele>
        <time>2014-04-16T09:10:30.000Z</time>
      </trkpt>
      <trkpt lat="47.73098" lon="6.05243">
        <ele>211.60000610352</ele>
        <time>2014-04-16T09:10:37.000Z</time>
      </trkpt>
      <trkpt lat="47.73093" lon="6.05267">
        <ele>210.60000610352</ele>
        <time>2014-04-16T09:10:41.000Z</time>
      </trkpt>
      <trkpt lat="47.73091" lon="6.05273">
        <ele>210.39999389648</ele>
        <time>2014-04-16T09:10:42.000Z</time>
      </trkpt>
      <trkpt lat="47.7309" lon="6.05279">
        <ele>210.19999694824</ele>
        <time>2014-04-16T09:10:43.000Z</time>
      </trkpt>
      <trkpt lat="47.73089" lon="6.05285">
        <ele>210</ele>
        <time>2014-04-16T09:10:44.000Z</time>
      </trkpt>
      <trkpt lat="47.73088" lon="6.05291">
        <ele>209.60000610352</ele>
        <time>2014-04-16T09:10:45.000Z</time>
      </trkpt>
      <trkpt lat="47.73079" lon="6.05326">
        <ele>208.60000610352</ele>
        <time>2014-04-16T09:10:51.000Z</time>
      </trkpt>
      <trkpt lat="47.73075" lon="6.05343">
        <ele>208.39999389648</ele>
        <time>2014-04-16T09:10:54.000Z</time>
      </trkpt>
      <trkpt lat="47.73071" lon="6.05361">
        <ele>208.19999694824</ele>
        <time>2014-04-16T09:10:57.000Z</time>
      </trkpt>
      <trkpt lat="47.73063" lon="6.05394">
        <ele>208.60000610352</ele>
        <time>2014-04-16T09:11:03.000Z</time>
      </trkpt>
      <trkpt lat="47.73048" lon="6.05444">
        <ele>210.19999694824</ele>
        <time>2014-04-16T09:11:12.000Z</time>
      </trkpt>
      <trkpt lat="47.7303" lon="6.05475">
        <ele>211.39999389648</ele>
        <time>2014-04-16T09:11:19.000Z</time>
      </trkpt>
      <trkpt lat="47.73012" lon="6.05495">
        <ele>213.60000610352</ele>
        <time>2014-04-16T09:11:26.000Z</time>
      </trkpt>
      <trkpt lat="47.72996" lon="6.05501">
        <ele>214.80000305176</ele>
        <time>2014-04-16T09:11:32.000Z</time>
      </trkpt>
      <trkpt lat="47.7298" lon="6.05514">
        <ele>217.80000305176</ele>
        <time>2014-04-16T09:11:38.000Z</time>
      </trkpt>
      <trkpt lat="47.72977" lon="6.05519">
        <ele>218.80000305176</ele>
        <time>2014-04-16T09:11:40.000Z</time>
      </trkpt>
      <trkpt lat="47.72975" lon="6.05522">
        <ele>219.19999694824</ele>
        <time>2014-04-16T09:11:41.000Z</time>
      </trkpt>
      <trkpt lat="47.72973" lon="6.05526">
        <ele>219.60000610352</ele>
        <time>2014-04-16T09:11:42.000Z</time>
      </trkpt>
      <trkpt lat="47.72971" lon="6.05528">
        <ele>220.19999694824</ele>
        <time>2014-04-16T09:11:43.000Z</time>
      </trkpt>
      <trkpt lat="47.72969" lon="6.05531">
        <ele>220.80000305176</ele>
        <time>2014-04-16T09:11:44.000Z</time>
      </trkpt>
      <trkpt lat="47.72968" lon="6.05535">
        <ele>221.39999389648</ele>
        <time>2014-04-16T09:11:45.000Z</time>
      </trkpt>
      <trkpt lat="47.72958" lon="6.05563">
        <ele>226.39999389648</ele>
        <time>2014-04-16T09:11:52.000Z</time>
      </trkpt>
      <trkpt lat="47.72949" lon="6.05594">
        <ele>232.39999389648</ele>
        <time>2014-04-16T09:11:59.000Z</time>
      </trkpt>
      <trkpt lat="47.72944" lon="6.05613">
        <ele>233.39999389648</ele>
        <time>2014-04-16T09:12:04.000Z</time>
      </trkpt>
      <trkpt lat="47.72943" lon="6.0563">
        <ele>234.39999389648</ele>
        <time>2014-04-16T09:12:09.000Z</time>
      </trkpt>
      <trkpt lat="47.72942" lon="6.05633">
        <ele>234.39999389648</ele>
        <time>2014-04-16T09:12:10.000Z</time>
      </trkpt>
      <trkpt lat="47.72942" lon="6.05636">
        <ele>234.60000610352</ele>
        <time>2014-04-16T09:12:11.000Z</time>
      </trkpt>
      <trkpt lat="47.72941" lon="6.05639">
        <ele>234.80000305176</ele>
        <time>2014-04-16T09:12:12.000Z</time>
      </trkpt>
      <trkpt lat="47.72941" lon="6.05642">
        <ele>235</ele>
        <time>2014-04-16T09:12:13.000Z</time>
      </trkpt>
      <trkpt lat="47.72939" lon="6.05646">
        <ele>235.39999389648</ele>
        <time>2014-04-16T09:12:15.000Z</time>
      </trkpt>
      <trkpt lat="47.72937" lon="6.05665">
        <ele>237.19999694824</ele>
        <time>2014-04-16T09:12:21.000Z</time>
      </trkpt>
      <trkpt lat="47.72937" lon="6.05689">
        <ele>239</ele>
        <time>2014-04-16T09:12:27.000Z</time>
      </trkpt>
      <trkpt lat="47.72935" lon="6.05717">
        <ele>241</ele>
        <time>2014-04-16T09:12:32.000Z</time>
      </trkpt>
      <trkpt lat="47.72936" lon="6.05726">
        <ele>241.60000610352</ele>
        <time>2014-04-16T09:12:34.000Z</time>
      </trkpt>
      <trkpt lat="47.72938" lon="6.05733">
        <ele>241.60000610352</ele>
        <time>2014-04-16T09:12:36.000Z</time>
      </trkpt>
      <trkpt lat="47.72938" lon="6.05737">
        <ele>241.80000305176</ele>
        <time>2014-04-16T09:12:37.000Z</time>
      </trkpt>
      <trkpt lat="47.72939" lon="6.05741">
        <ele>241.80000305176</ele>
        <time>2014-04-16T09:12:38.000Z</time>
      </trkpt>
      <trkpt lat="47.72938" lon="6.05746">
        <ele>241.80000305176</ele>
        <time>2014-04-16T09:12:39.000Z</time>
      </trkpt>
      <trkpt lat="47.72939" lon="6.0575">
        <ele>241.80000305176</ele>
        <time>2014-04-16T09:12:40.000Z</time>
      </trkpt>
      <trkpt lat="47.72939" lon="6.05754">
        <ele>242</ele>
        <time>2014-04-16T09:12:41.000Z</time>
      </trkpt>
      <trkpt lat="47.72941" lon="6.05767">
        <ele>242</ele>
        <time>2014-04-16T09:12:44.000Z</time>
      </trkpt>
      <trkpt lat="47.72942" lon="6.05776">
        <ele>242</ele>
        <time>2014-04-16T09:12:46.000Z</time>
      </trkpt>
      <trkpt lat="47.72943" lon="6.05785">
        <ele>242.19999694824</ele>
        <time>2014-04-16T09:12:49.000Z</time>
      </trkpt>
      <trkpt lat="47.72943" lon="6.05789">
        <ele>242.19999694824</ele>
        <time>2014-04-16T09:12:50.000Z</time>
      </trkpt>
      <trkpt lat="47.72943" lon="6.05793">
        <ele>242.19999694824</ele>
        <time>2014-04-16T09:12:51.000Z</time>
      </trkpt>
      <trkpt lat="47.72943" lon="6.05797">
        <ele>242.39999389648</ele>
        <time>2014-04-16T09:12:52.000Z</time>
      </trkpt>
      <trkpt lat="47.72942" lon="6.05809">
        <ele>242.39999389648</ele>
        <time>2014-04-16T09:12:56.000Z</time>
      </trkpt>
      <trkpt lat="47.72939" lon="6.05827">
        <ele>242.39999389648</ele>
        <time>2014-04-16T09:13:01.000Z</time>
      </trkpt>
      <trkpt lat="47.72932" lon="6.05853">
        <ele>240.60000610352</ele>
        <time>2014-04-16T09:13:07.000Z</time>
      </trkpt>
      <trkpt lat="47.7293" lon="6.05856">
        <ele>240.39999389648</ele>
        <time>2014-04-16T09:13:08.000Z</time>
      </trkpt>
      <trkpt lat="47.72929" lon="6.0586">
        <ele>240.19999694824</ele>
        <time>2014-04-16T09:13:09.000Z</time>
      </trkpt>
      <trkpt lat="47.72928" lon="6.05864">
        <ele>239.80000305176</ele>
        <time>2014-04-16T09:13:10.000Z</time>
      </trkpt>
      <trkpt lat="47.72927" lon="6.05868">
        <ele>239.60000610352</ele>
        <time>2014-04-16T09:13:11.000Z</time>
      </trkpt>
      <trkpt lat="47.72928" lon="6.05871">
        <ele>239.39999389648</ele>
        <time>2014-04-16T09:13:12.000Z</time>
      </trkpt>
      <trkpt lat="47.72928" lon="6.05883">
        <ele>238.80000305176</ele>
        <time>2014-04-16T09:13:15.000Z</time>
      </trkpt>
      <trkpt lat="47.72929" lon="6.0589">
        <ele>238.39999389648</ele>
        <time>2014-04-16T09:13:17.000Z</time>
      </trkpt>
      <trkpt lat="47.72931" lon="6.05901">
        <ele>238.19999694824</ele>
        <time>2014-04-16T09:13:20.000Z</time>
      </trkpt>
      <trkpt lat="47.72932" lon="6.05908">
        <ele>238.19999694824</ele>
        <time>2014-04-16T09:13:22.000Z</time>
      </trkpt>
      <trkpt lat="47.72932" lon="6.05921">
        <ele>238.19999694824</ele>
        <time>2014-04-16T09:13:25.000Z</time>
      </trkpt>
      <trkpt lat="47.72932" lon="6.0593">
        <ele>238.19999694824</ele>
        <time>2014-04-16T09:13:27.000Z</time>
      </trkpt>
      <trkpt lat="47.7293" lon="6.05945">
        <ele>238.19999694824</ele>
        <time>2014-04-16T09:13:31.000Z</time>
      </trkpt>
      <trkpt lat="47.72929" lon="6.05949">
        <ele>238.19999694824</ele>
        <time>2014-04-16T09:13:32.000Z</time>
      </trkpt>
      <trkpt lat="47.72928" lon="6.05954">
        <ele>238.19999694824</ele>
        <time>2014-04-16T09:13:33.000Z</time>
      </trkpt>
      <trkpt lat="47.72927" lon="6.0596">
        <ele>238.19999694824</ele>
        <time>2014-04-16T09:13:34.000Z</time>
      </trkpt>
      <trkpt lat="47.72926" lon="6.05964">
        <ele>238.19999694824</ele>
        <time>2014-04-16T09:13:35.000Z</time>
      </trkpt>
      <trkpt lat="47.72922" lon="6.05977">
        <ele>238</ele>
        <time>2014-04-16T09:13:38.000Z</time>
      </trkpt>
      <trkpt lat="47.7292" lon="6.0599">
        <ele>238.60000610352</ele>
        <time>2014-04-16T09:13:41.000Z</time>
      </trkpt>
      <trkpt lat="47.72919" lon="6.05993">
        <ele>238.80000305176</ele>
        <time>2014-04-16T09:13:42.000Z</time>
      </trkpt>
      <trkpt lat="47.72908" lon="6.06036">
        <ele>240.80000305176</ele>
        <time>2014-04-16T09:15:20.000Z</time>
      </trkpt>
      <trkpt lat="47.72905" lon="6.06045">
        <ele>241.19999694824</ele>
        <time>2014-04-16T09:15:23.000Z</time>
      </trkpt>
      <trkpt lat="47.72897" lon="6.06064">
        <ele>242.19999694824</ele>
        <time>2014-04-16T09:15:28.000Z</time>
      </trkpt>
      <trkpt lat="47.7289" lon="6.06077">
        <ele>242.80000305176</ele>
        <time>2014-04-16T09:15:31.000Z</time>
      </trkpt>
      <trkpt lat="47.72885" lon="6.0609">
        <ele>243.39999389648</ele>
        <time>2014-04-16T09:15:34.000Z</time>
      </trkpt>
      <trkpt lat="47.72873" lon="6.06118">
        <ele>243.60000610352</ele>
        <time>2014-04-16T09:15:41.000Z</time>
      </trkpt>
      <trkpt lat="47.72865" lon="6.06133">
        <ele>243.19999694824</ele>
        <time>2014-04-16T09:15:46.000Z</time>
      </trkpt>
      <trkpt lat="47.72858" lon="6.0615">
        <ele>243</ele>
        <time>2014-04-16T09:15:51.000Z</time>
      </trkpt>
      <trkpt lat="47.72851" lon="6.06167">
        <ele>242.80000305176</ele>
        <time>2014-04-16T09:15:56.000Z</time>
      </trkpt>
      <trkpt lat="47.7285" lon="6.06169">
        <ele>242.60000610352</ele>
        <time>2014-04-16T09:15:57.000Z</time>
      </trkpt>
      <trkpt lat="47.72844" lon="6.0618">
        <ele>242.19999694824</ele>
        <time>2014-04-16T09:16:00.000Z</time>
      </trkpt>
      <trkpt lat="47.72843" lon="6.06184">
        <ele>242.19999694824</ele>
        <time>2014-04-16T09:16:01.000Z</time>
      </trkpt>
      <trkpt lat="47.72841" lon="6.06189">
        <ele>242</ele>
        <time>2014-04-16T09:16:02.000Z</time>
      </trkpt>
      <trkpt lat="47.72838" lon="6.062">
        <ele>241.60000610352</ele>
        <time>2014-04-16T09:16:05.000Z</time>
      </trkpt>
      <trkpt lat="47.72835" lon="6.06208">
        <ele>241.39999389648</ele>
        <time>2014-04-16T09:16:07.000Z</time>
      </trkpt>
      <trkpt lat="47.72833" lon="6.06212">
        <ele>241.39999389648</ele>
        <time>2014-04-16T09:16:08.000Z</time>
      </trkpt>
      <trkpt lat="47.72831" lon="6.06216">
        <ele>241.39999389648</ele>
        <time>2014-04-16T09:16:09.000Z</time>
      </trkpt>
      <trkpt lat="47.7283" lon="6.0622">
        <ele>241.39999389648</ele>
        <time>2014-04-16T09:16:10.000Z</time>
      </trkpt>
      <trkpt lat="47.72829" lon="6.06224">
        <ele>241.60000610352</ele>
        <time>2014-04-16T09:16:11.000Z</time>
      </trkpt>
      <trkpt lat="47.72827" lon="6.06228">
        <ele>241.60000610352</ele>
        <time>2014-04-16T09:16:12.000Z</time>
      </trkpt>
      <trkpt lat="47.72825" lon="6.06235">
        <ele>241.80000305176</ele>
        <time>2014-04-16T09:16:14.000Z</time>
      </trkpt>
      <trkpt lat="47.72819" lon="6.06261">
        <ele>241.80000305176</ele>
        <time>2014-04-16T09:16:20.000Z</time>
      </trkpt>
      <trkpt lat="47.72813" lon="6.06288">
        <ele>242</ele>
        <time>2014-04-16T09:16:26.000Z</time>
      </trkpt>
      <trkpt lat="47.7281" lon="6.06314">
        <ele>241.39999389648</ele>
        <time>2014-04-16T09:16:32.000Z</time>
      </trkpt>
      <trkpt lat="47.72809" lon="6.06339">
        <ele>242</ele>
        <time>2014-04-16T09:16:38.000Z</time>
      </trkpt>
      <trkpt lat="47.72808" lon="6.06362">
        <ele>242.60000610352</ele>
        <time>2014-04-16T09:16:44.000Z</time>
      </trkpt>
      <trkpt lat="47.72808" lon="6.06365">
        <ele>242.60000610352</ele>
        <time>2014-04-16T09:16:45.000Z</time>
      </trkpt>
      <trkpt lat="47.72809" lon="6.06369">
        <ele>242.60000610352</ele>
        <time>2014-04-16T09:16:46.000Z</time>
      </trkpt>
      <trkpt lat="47.72809" lon="6.06373">
        <ele>242.60000610352</ele>
        <time>2014-04-16T09:16:47.000Z</time>
      </trkpt>
      <trkpt lat="47.72809" lon="6.06376">
        <ele>242.60000610352</ele>
        <time>2014-04-16T09:16:48.000Z</time>
      </trkpt>
      <trkpt lat="47.72808" lon="6.06378">
        <ele>242.60000610352</ele>
        <time>2014-04-16T09:16:49.000Z</time>
      </trkpt>
      <trkpt lat="47.72806" lon="6.06381">
        <ele>242.80000305176</ele>
        <time>2014-04-16T09:16:51.000Z</time>
      </trkpt>
      <trkpt lat="47.72796" lon="6.06389">
        <ele>243</ele>
        <time>2014-04-16T09:16:56.000Z</time>
      </trkpt>
      <trkpt lat="47.72794" lon="6.06391">
        <ele>243</ele>
        <time>2014-04-16T09:16:57.000Z</time>
      </trkpt>
      <trkpt lat="47.72792" lon="6.06392">
        <ele>243</ele>
        <time>2014-04-16T09:16:58.000Z</time>
      </trkpt>
      <trkpt lat="47.72789" lon="6.06394">
        <ele>243.19999694824</ele>
        <time>2014-04-16T09:16:59.000Z</time>
      </trkpt>
      <trkpt lat="47.72787" lon="6.06395">
        <ele>243.19999694824</ele>
        <time>2014-04-16T09:17:00.000Z</time>
      </trkpt>
      <trkpt lat="47.72783" lon="6.06397">
        <ele>243.39999389648</ele>
        <time>2014-04-16T09:17:02.000Z</time>
      </trkpt>
      <trkpt lat="47.72771" lon="6.06402">
        <ele>243.80000305176</ele>
        <time>2014-04-16T09:17:08.000Z</time>
      </trkpt>
      <trkpt lat="47.72766" lon="6.06402">
        <ele>243.80000305176</ele>
        <time>2014-04-16T09:17:10.000Z</time>
      </trkpt>
      <trkpt lat="47.72764" lon="6.06402">
        <ele>243.80000305176</ele>
        <time>2014-04-16T09:17:11.000Z</time>
      </trkpt>
      <trkpt lat="47.72761" lon="6.06403">
        <ele>244</ele>
        <time>2014-04-16T09:17:12.000Z</time>
      </trkpt>
      <trkpt lat="47.72759" lon="6.06402">
        <ele>244</ele>
        <time>2014-04-16T09:17:13.000Z</time>
      </trkpt>
      <trkpt lat="47.72757" lon="6.06402">
        <ele>244</ele>
        <time>2014-04-16T09:17:14.000Z</time>
      </trkpt>
      <trkpt lat="47.72755" lon="6.06402">
        <ele>244</ele>
        <time>2014-04-16T09:17:15.000Z</time>
      </trkpt>
      <trkpt lat="47.72746" lon="6.06399">
        <ele>244.19999694824</ele>
        <time>2014-04-16T09:17:20.000Z</time>
      </trkpt>
      <trkpt lat="47.72744" lon="6.06398">
        <ele>244.19999694824</ele>
        <time>2014-04-16T09:17:21.000Z</time>
      </trkpt>
      <trkpt lat="47.72742" lon="6.06397">
        <ele>244.19999694824</ele>
        <time>2014-04-16T09:17:22.000Z</time>
      </trkpt>
      <trkpt lat="47.7274" lon="6.06396">
        <ele>244.19999694824</ele>
        <time>2014-04-16T09:17:23.000Z</time>
      </trkpt>
      <trkpt lat="47.72739" lon="6.06397">
        <ele>244.19999694824</ele>
        <time>2014-04-16T09:17:24.000Z</time>
      </trkpt>
      <trkpt lat="47.72735" lon="6.06399">
        <ele>244.39999389648</ele>
        <time>2014-04-16T09:17:26.000Z</time>
      </trkpt>
      <trkpt lat="47.72731" lon="6.06399">
        <ele>244.39999389648</ele>
        <time>2014-04-16T09:17:28.000Z</time>
      </trkpt>
      <trkpt lat="47.72729" lon="6.06398">
        <ele>244.39999389648</ele>
        <time>2014-04-16T09:17:29.000Z</time>
      </trkpt>
      <trkpt lat="47.72727" lon="6.06398">
        <ele>244.39999389648</ele>
        <time>2014-04-16T09:17:30.000Z</time>
      </trkpt>
      <trkpt lat="47.72725" lon="6.06397">
        <ele>244.39999389648</ele>
        <time>2014-04-16T09:17:31.000Z</time>
      </trkpt>
      <trkpt lat="47.72715" lon="6.06397">
        <ele>244.60000610352</ele>
        <time>2014-04-16T09:17:35.000Z</time>
      </trkpt>
      <trkpt lat="47.72713" lon="6.06396">
        <ele>244.60000610352</ele>
        <time>2014-04-16T09:17:36.000Z</time>
      </trkpt>
      <trkpt lat="47.72711" lon="6.06395">
        <ele>244.60000610352</ele>
        <time>2014-04-16T09:17:37.000Z</time>
      </trkpt>
      <trkpt lat="47.72709" lon="6.06394">
        <ele>244.60000610352</ele>
        <time>2014-04-16T09:17:38.000Z</time>
      </trkpt>
      <trkpt lat="47.72707" lon="6.06394">
        <ele>244.60000610352</ele>
        <time>2014-04-16T09:17:39.000Z</time>
      </trkpt>
      <trkpt lat="47.72706" lon="6.06393">
        <ele>244.60000610352</ele>
        <time>2014-04-16T09:17:41.000Z</time>
      </trkpt>
      <trkpt lat="47.72702" lon="6.06391">
        <ele>244.60000610352</ele>
        <time>2014-04-16T09:18:29.000Z</time>
      </trkpt>
      <trkpt lat="47.72687" lon="6.06383">
        <ele>245.19999694824</ele>
        <time>2014-04-16T09:18:36.000Z</time>
      </trkpt>
      <trkpt lat="47.72685" lon="6.06382">
        <ele>245.39999389648</ele>
        <time>2014-04-16T09:18:37.000Z</time>
      </trkpt>
      <trkpt lat="47.72683" lon="6.06381">
        <ele>245.39999389648</ele>
        <time>2014-04-16T09:18:38.000Z</time>
      </trkpt>
      <trkpt lat="47.72681" lon="6.0638">
        <ele>245.60000610352</ele>
        <time>2014-04-16T09:18:39.000Z</time>
      </trkpt>
      <trkpt lat="47.72679" lon="6.06379">
        <ele>245.60000610352</ele>
        <time>2014-04-16T09:18:40.000Z</time>
      </trkpt>
      <trkpt lat="47.72671" lon="6.06375">
        <ele>245.80000305176</ele>
        <time>2014-04-16T09:18:44.000Z</time>
      </trkpt>
      <trkpt lat="47.72652" lon="6.06364">
        <ele>246.60000610352</ele>
        <time>2014-04-16T09:18:52.000Z</time>
      </trkpt>
      <trkpt lat="47.72647" lon="6.0636">
        <ele>246.80000305176</ele>
        <time>2014-04-16T09:18:54.000Z</time>
      </trkpt>
      <trkpt lat="47.72645" lon="6.06357">
        <ele>247</ele>
        <time>2014-04-16T09:18:55.000Z</time>
      </trkpt>
      <trkpt lat="47.72642" lon="6.06355">
        <ele>247.19999694824</ele>
        <time>2014-04-16T09:18:56.000Z</time>
      </trkpt>
      <trkpt lat="47.7264" lon="6.06352">
        <ele>247.39999389648</ele>
        <time>2014-04-16T09:18:57.000Z</time>
      </trkpt>
      <trkpt lat="47.72638" lon="6.06349">
        <ele>247.39999389648</ele>
        <time>2014-04-16T09:18:58.000Z</time>
      </trkpt>
      <trkpt lat="47.72626" lon="6.06335">
        <ele>248.39999389648</ele>
        <time>2014-04-16T09:19:04.000Z</time>
      </trkpt>
      <trkpt lat="47.72624" lon="6.06332">
        <ele>248.39999389648</ele>
        <time>2014-04-16T09:19:05.000Z</time>
      </trkpt>
      <trkpt lat="47.72622" lon="6.0633">
        <ele>248.60000610352</ele>
        <time>2014-04-16T09:19:06.000Z</time>
      </trkpt>
      <trkpt lat="47.7262" lon="6.06328">
        <ele>248.80000305176</ele>
        <time>2014-04-16T09:19:07.000Z</time>
      </trkpt>
      <trkpt lat="47.72618" lon="6.06326">
        <ele>248.80000305176</ele>
        <time>2014-04-16T09:19:08.000Z</time>
      </trkpt>
      <trkpt lat="47.7261" lon="6.06317">
        <ele>249.39999389648</ele>
        <time>2014-04-16T09:19:12.000Z</time>
      </trkpt>
      <trkpt lat="47.72604" lon="6.0631">
        <ele>249.80000305176</ele>
        <time>2014-04-16T09:19:15.000Z</time>
      </trkpt>
      <trkpt lat="47.72602" lon="6.06308">
        <ele>250</ele>
        <time>2014-04-16T09:19:16.000Z</time>
      </trkpt>
      <trkpt lat="47.726" lon="6.06306">
        <ele>250</ele>
        <time>2014-04-16T09:19:17.000Z</time>
      </trkpt>
      <trkpt lat="47.72598" lon="6.06304">
        <ele>250.19999694824</ele>
        <time>2014-04-16T09:19:18.000Z</time>
      </trkpt>
      <trkpt lat="47.72596" lon="6.06303">
        <ele>250.19999694824</ele>
        <time>2014-04-16T09:19:19.000Z</time>
      </trkpt>
      <trkpt lat="47.72587" lon="6.06296">
        <ele>250.60000610352</ele>
        <time>2014-04-16T09:19:24.000Z</time>
      </trkpt>
      <trkpt lat="47.72573" lon="6.06283">
        <ele>250.80000305176</ele>
        <time>2014-04-16T09:19:31.000Z</time>
      </trkpt>
      <trkpt lat="47.72571" lon="6.06281">
        <ele>250.80000305176</ele>
        <time>2014-04-16T09:19:32.000Z</time>
      </trkpt>
      <trkpt lat="47.72568" lon="6.06279">
        <ele>250.80000305176</ele>
        <time>2014-04-16T09:19:33.000Z</time>
      </trkpt>
      <trkpt lat="47.72566" lon="6.06278">
        <ele>250.80000305176</ele>
        <time>2014-04-16T09:19:34.000Z</time>
      </trkpt>
      <trkpt lat="47.72564" lon="6.06275">
        <ele>250.80000305176</ele>
        <time>2014-04-16T09:19:35.000Z</time>
      </trkpt>
      <trkpt lat="47.72559" lon="6.06271">
        <ele>250.80000305176</ele>
        <time>2014-04-16T09:19:37.000Z</time>
      </trkpt>
      <trkpt lat="47.72536" lon="6.06254">
        <ele>250.80000305176</ele>
        <time>2014-04-16T09:19:45.000Z</time>
      </trkpt>
      <trkpt lat="47.72507" lon="6.06236">
        <ele>251</ele>
        <time>2014-04-16T09:19:53.000Z</time>
      </trkpt>
      <trkpt lat="47.7248" lon="6.06219">
        <ele>250.39999389648</ele>
        <time>2014-04-16T09:20:00.000Z</time>
      </trkpt>
      <trkpt lat="47.72463" lon="6.06208">
        <ele>249.80000305176</ele>
        <time>2014-04-16T09:20:04.000Z</time>
      </trkpt>
      <trkpt lat="47.72459" lon="6.06206">
        <ele>249.80000305176</ele>
        <time>2014-04-16T09:20:05.000Z</time>
      </trkpt>
      <trkpt lat="47.72455" lon="6.06204">
        <ele>249.60000610352</ele>
        <time>2014-04-16T09:20:06.000Z</time>
      </trkpt>
      <trkpt lat="47.72451" lon="6.06201">
        <ele>249.39999389648</ele>
        <time>2014-04-16T09:20:07.000Z</time>
      </trkpt>
      <trkpt lat="47.72447" lon="6.06199">
        <ele>249.39999389648</ele>
        <time>2014-04-16T09:20:08.000Z</time>
      </trkpt>
      <trkpt lat="47.72422" lon="6.06183">
        <ele>248.39999389648</ele>
        <time>2014-04-16T09:20:15.000Z</time>
      </trkpt>
      <trkpt lat="47.72405" lon="6.0617">
        <ele>248.19999694824</ele>
        <time>2014-04-16T09:20:20.000Z</time>
      </trkpt>
      <trkpt lat="47.72398" lon="6.06165">
        <ele>248</ele>
        <time>2014-04-16T09:20:22.000Z</time>
      </trkpt>
      <trkpt lat="47.7239" lon="6.06161">
        <ele>248</ele>
        <time>2014-04-16T09:20:24.000Z</time>
      </trkpt>
      <trkpt lat="47.72379" lon="6.06157">
        <ele>248</ele>
        <time>2014-04-16T09:20:27.000Z</time>
      </trkpt>
      <trkpt lat="47.72357" lon="6.06153">
        <ele>248.19999694824</ele>
        <time>2014-04-16T09:20:33.000Z</time>
      </trkpt>
      <trkpt lat="47.72331" lon="6.06149">
        <ele>248</ele>
        <time>2014-04-16T09:20:40.000Z</time>
      </trkpt>
      <trkpt lat="47.7231" lon="6.06146">
        <ele>247.39999389648</ele>
        <time>2014-04-16T09:20:46.000Z</time>
      </trkpt>
      <trkpt lat="47.72306" lon="6.06145">
        <ele>247.19999694824</ele>
        <time>2014-04-16T09:20:47.000Z</time>
      </trkpt>
      <trkpt lat="47.72303" lon="6.06144">
        <ele>247.19999694824</ele>
        <time>2014-04-16T09:20:48.000Z</time>
      </trkpt>
      <trkpt lat="47.72299" lon="6.06144">
        <ele>247.19999694824</ele>
        <time>2014-04-16T09:20:49.000Z</time>
      </trkpt>
      <trkpt lat="47.72278" lon="6.06144">
        <ele>246.60000610352</ele>
        <time>2014-04-16T09:20:55.000Z</time>
      </trkpt>
      <trkpt lat="47.72272" lon="6.0615">
        <ele>246.60000610352</ele>
        <time>2014-04-16T09:20:59.000Z</time>
      </trkpt>
      <trkpt lat="47.72271" lon="6.06151">
        <ele>246.60000610352</ele>
        <time>2014-04-16T09:21:00.000Z</time>
      </trkpt>
      <trkpt lat="47.72269" lon="6.06151">
        <ele>246.39999389648</ele>
        <time>2014-04-16T09:21:01.000Z</time>
      </trkpt>
      <trkpt lat="47.72266" lon="6.0615">
        <ele>246.39999389648</ele>
        <time>2014-04-16T09:21:03.000Z</time>
      </trkpt>
      <trkpt lat="47.72256" lon="6.06152">
        <ele>246</ele>
        <time>2014-04-16T09:21:06.000Z</time>
      </trkpt>
      <trkpt lat="47.72254" lon="6.06153">
        <ele>245.80000305176</ele>
        <time>2014-04-16T09:21:07.000Z</time>
      </trkpt>
      <trkpt lat="47.7224" lon="6.06156">
        <ele>244.80000305176</ele>
        <time>2014-04-16T09:21:12.000Z</time>
      </trkpt>
      <trkpt lat="47.72236" lon="6.06156">
        <ele>244.60000610352</ele>
        <time>2014-04-16T09:21:13.000Z</time>
      </trkpt>
      <trkpt lat="47.72233" lon="6.06156">
        <ele>244.39999389648</ele>
        <time>2014-04-16T09:21:14.000Z</time>
      </trkpt>
      <trkpt lat="47.72229" lon="6.06156">
        <ele>244</ele>
        <time>2014-04-16T09:21:15.000Z</time>
      </trkpt>
      <trkpt lat="47.72225" lon="6.06156">
        <ele>243.80000305176</ele>
        <time>2014-04-16T09:21:16.000Z</time>
      </trkpt>
      <trkpt lat="47.72217" lon="6.06152">
        <ele>243.19999694824</ele>
        <time>2014-04-16T09:21:18.000Z</time>
      </trkpt>
      <trkpt lat="47.72213" lon="6.06149">
        <ele>243</ele>
        <time>2014-04-16T09:21:19.000Z</time>
      </trkpt>
      <trkpt lat="47.72202" lon="6.06143">
        <ele>242.19999694824</ele>
        <time>2014-04-16T09:21:22.000Z</time>
      </trkpt>
      <trkpt lat="47.72199" lon="6.06141">
        <ele>242.19999694824</ele>
        <time>2014-04-16T09:21:23.000Z</time>
      </trkpt>
      <trkpt lat="47.72194" lon="6.06139">
        <ele>241.80000305176</ele>
        <time>2014-04-16T09:21:24.000Z</time>
      </trkpt>
      <trkpt lat="47.72189" lon="6.06136">
        <ele>241.60000610352</ele>
        <time>2014-04-16T09:21:25.000Z</time>
      </trkpt>
      <trkpt lat="47.72184" lon="6.06133">
        <ele>241.19999694824</ele>
        <time>2014-04-16T09:21:26.000Z</time>
      </trkpt>
      <trkpt lat="47.72179" lon="6.0613">
        <ele>241</ele>
        <time>2014-04-16T09:21:27.000Z</time>
      </trkpt>
      <trkpt lat="47.72175" lon="6.06126">
        <ele>241</ele>
        <time>2014-04-16T09:21:28.000Z</time>
      </trkpt>
      <trkpt lat="47.72171" lon="6.06122">
        <ele>240.80000305176</ele>
        <time>2014-04-16T09:21:29.000Z</time>
      </trkpt>
      <trkpt lat="47.72168" lon="6.06118">
        <ele>240.80000305176</ele>
        <time>2014-04-16T09:21:30.000Z</time>
      </trkpt>
      <trkpt lat="47.72164" lon="6.06114">
        <ele>241</ele>
        <time>2014-04-16T09:21:31.000Z</time>
      </trkpt>
      <trkpt lat="47.72162" lon="6.0611">
        <ele>241</ele>
        <time>2014-04-16T09:21:32.000Z</time>
      </trkpt>
      <trkpt lat="47.72157" lon="6.06106">
        <ele>241.19999694824</ele>
        <time>2014-04-16T09:21:34.000Z</time>
      </trkpt>
      <trkpt lat="47.7215" lon="6.06095">
        <ele>241.39999389648</ele>
        <time>2014-04-16T09:21:38.000Z</time>
      </trkpt>
      <trkpt lat="47.72149" lon="6.06093">
        <ele>241.60000610352</ele>
        <time>2014-04-16T09:21:39.000Z</time>
      </trkpt>
      <trkpt lat="47.72141" lon="6.06081">
        <ele>241.80000305176</ele>
        <time>2014-04-16T09:21:44.000Z</time>
      </trkpt>
      <trkpt lat="47.72131" lon="6.06072">
        <ele>242</ele>
        <time>2014-04-16T09:21:49.000Z</time>
      </trkpt>
      <trkpt lat="47.72117" lon="6.06057">
        <ele>242.60000610352</ele>
        <time>2014-04-16T09:21:55.000Z</time>
      </trkpt>
      <trkpt lat="47.72111" lon="6.06049">
        <ele>243.19999694824</ele>
        <time>2014-04-16T09:21:58.000Z</time>
      </trkpt>
      <trkpt lat="47.72109" lon="6.06047">
        <ele>243.39999389648</ele>
        <time>2014-04-16T09:21:59.000Z</time>
      </trkpt>
      <trkpt lat="47.72107" lon="6.06044">
        <ele>243.60000610352</ele>
        <time>2014-04-16T09:22:00.000Z</time>
      </trkpt>
      <trkpt lat="47.72105" lon="6.06041">
        <ele>244</ele>
        <time>2014-04-16T09:22:01.000Z</time>
      </trkpt>
      <trkpt lat="47.72102" lon="6.06038">
        <ele>244.19999694824</ele>
        <time>2014-04-16T09:22:02.000Z</time>
      </trkpt>
      <trkpt lat="47.72092" lon="6.06025">
        <ele>245.39999389648</ele>
        <time>2014-04-16T09:22:06.000Z</time>
      </trkpt>
      <trkpt lat="47.7208" lon="6.06012">
        <ele>247.19999694824</ele>
        <time>2014-04-16T09:22:11.000Z</time>
      </trkpt>
      <trkpt lat="47.72078" lon="6.0601">
        <ele>247.80000305176</ele>
        <time>2014-04-16T09:22:12.000Z</time>
      </trkpt>
      <trkpt lat="47.72075" lon="6.06008">
        <ele>248.19999694824</ele>
        <time>2014-04-16T09:22:13.000Z</time>
      </trkpt>
      <trkpt lat="47.72073" lon="6.06006">
        <ele>248.60000610352</ele>
        <time>2014-04-16T09:22:14.000Z</time>
      </trkpt>
      <trkpt lat="47.7207" lon="6.06003">
        <ele>249.19999694824</ele>
        <time>2014-04-16T09:22:15.000Z</time>
      </trkpt>
      <trkpt lat="47.72063" lon="6.05996">
        <ele>250.60000610352</ele>
        <time>2014-04-16T09:22:18.000Z</time>
      </trkpt>
      <trkpt lat="47.72046" lon="6.05986">
        <ele>253.60000610352</ele>
        <time>2014-04-16T09:22:25.000Z</time>
      </trkpt>
      <trkpt lat="47.72043" lon="6.05985">
        <ele>254</ele>
        <time>2014-04-16T09:22:26.000Z</time>
      </trkpt>
      <trkpt lat="47.7204" lon="6.05984">
        <ele>254.39999389648</ele>
        <time>2014-04-16T09:22:27.000Z</time>
      </trkpt>
      <trkpt lat="47.72037" lon="6.05983">
        <ele>254.80000305176</ele>
        <time>2014-04-16T09:22:28.000Z</time>
      </trkpt>
      <trkpt lat="47.7203" lon="6.05979">
        <ele>255.80000305176</ele>
        <time>2014-04-16T09:22:31.000Z</time>
      </trkpt>
      <trkpt lat="47.72022" lon="6.05972">
        <ele>257.39999389648</ele>
        <time>2014-04-16T09:22:35.000Z</time>
      </trkpt>
      <trkpt lat="47.7202" lon="6.0597">
        <ele>257.79998779297</ele>
        <time>2014-04-16T09:22:36.000Z</time>
      </trkpt>
      <trkpt lat="47.72018" lon="6.05968">
        <ele>258.20001220703</ele>
        <time>2014-04-16T09:22:37.000Z</time>
      </trkpt>
      <trkpt lat="47.72015" lon="6.05966">
        <ele>258.60000610352</ele>
        <time>2014-04-16T09:22:38.000Z</time>
      </trkpt>
      <trkpt lat="47.72013" lon="6.05965">
        <ele>259</ele>
        <time>2014-04-16T09:22:39.000Z</time>
      </trkpt>
      <trkpt lat="47.72006" lon="6.05961">
        <ele>260</ele>
        <time>2014-04-16T09:22:42.000Z</time>
      </trkpt>
      <trkpt lat="47.72004" lon="6.05958">
        <ele>260.39999389648</ele>
        <time>2014-04-16T09:22:43.000Z</time>
      </trkpt>
      <trkpt lat="47.72002" lon="6.05957">
        <ele>260.60000610352</ele>
        <time>2014-04-16T09:22:44.000Z</time>
      </trkpt>
      <trkpt lat="47.72" lon="6.05955">
        <ele>260.79998779297</ele>
        <time>2014-04-16T09:22:45.000Z</time>
      </trkpt>
      <trkpt lat="47.71997" lon="6.05955">
        <ele>261</ele>
        <time>2014-04-16T09:22:46.000Z</time>
      </trkpt>
      <trkpt lat="47.71995" lon="6.05956">
        <ele>260.79998779297</ele>
        <time>2014-04-16T09:22:47.000Z</time>
      </trkpt>
      <trkpt lat="47.71994" lon="6.05957">
        <ele>260.79998779297</ele>
        <time>2014-04-16T09:22:48.000Z</time>
      </trkpt>
      <trkpt lat="47.7198" lon="6.05946">
        <ele>262.20001220703</ele>
        <time>2014-04-16T09:23:18.000Z</time>
      </trkpt>
      <trkpt lat="47.71978" lon="6.05944">
        <ele>262.20001220703</ele>
        <time>2014-04-16T09:23:19.000Z</time>
      </trkpt>
      <trkpt lat="47.71977" lon="6.0594">
        <ele>262.60000610352</ele>
        <time>2014-04-16T09:23:21.000Z</time>
      </trkpt>
      <trkpt lat="47.71976" lon="6.05939">
        <ele>262.79998779297</ele>
        <time>2014-04-16T09:23:22.000Z</time>
      </trkpt>
      <trkpt lat="47.7196" lon="6.05931">
        <ele>263.79998779297</ele>
        <time>2014-04-16T09:23:40.000Z</time>
      </trkpt>
      <trkpt lat="47.71958" lon="6.05931">
        <ele>264</ele>
        <time>2014-04-16T09:23:41.000Z</time>
      </trkpt>
      <trkpt lat="47.71946" lon="6.05929">
        <ele>265.20001220703</ele>
        <time>2014-04-16T09:23:47.000Z</time>
      </trkpt>
      <trkpt lat="47.71936" lon="6.05925">
        <ele>266.39999389648</ele>
        <time>2014-04-16T09:23:52.000Z</time>
      </trkpt>
      <trkpt lat="47.71928" lon="6.05922">
        <ele>267.20001220703</ele>
        <time>2014-04-16T09:23:56.000Z</time>
      </trkpt>
      <trkpt lat="47.71925" lon="6.0592">
        <ele>267.39999389648</ele>
        <time>2014-04-16T09:24:22.000Z</time>
      </trkpt>
      <trkpt lat="47.71922" lon="6.05918">
        <ele>267.79998779297</ele>
        <time>2014-04-16T09:24:23.000Z</time>
      </trkpt>
      <trkpt lat="47.71907" lon="6.05906">
        <ele>268</ele>
        <time>2014-04-16T09:24:28.000Z</time>
      </trkpt>
      <trkpt lat="47.71883" lon="6.05888">
        <ele>267.79998779297</ele>
        <time>2014-04-16T09:24:34.000Z</time>
      </trkpt>
      <trkpt lat="47.71858" lon="6.05861">
        <ele>266.60000610352</ele>
        <time>2014-04-16T09:24:41.000Z</time>
      </trkpt>
      <trkpt lat="47.71839" lon="6.05837">
        <ele>265.39999389648</ele>
        <time>2014-04-16T09:24:47.000Z</time>
      </trkpt>
      <trkpt lat="47.71836" lon="6.05834">
        <ele>265.20001220703</ele>
        <time>2014-04-16T09:24:48.000Z</time>
      </trkpt>
      <trkpt lat="47.71834" lon="6.05831">
        <ele>264.79998779297</ele>
        <time>2014-04-16T09:24:49.000Z</time>
      </trkpt>
      <trkpt lat="47.71831" lon="6.05828">
        <ele>264.60000610352</ele>
        <time>2014-04-16T09:24:50.000Z</time>
      </trkpt>
      <trkpt lat="47.71829" lon="6.05825">
        <ele>264.39999389648</ele>
        <time>2014-04-16T09:24:51.000Z</time>
      </trkpt>
      <trkpt lat="47.71826" lon="6.05822">
        <ele>264.20001220703</ele>
        <time>2014-04-16T09:24:52.000Z</time>
      </trkpt>
      <trkpt lat="47.71823" lon="6.0582">
        <ele>263.79998779297</ele>
        <time>2014-04-16T09:24:53.000Z</time>
      </trkpt>
      <trkpt lat="47.71808" lon="6.05813">
        <ele>262.79998779297</ele>
        <time>2014-04-16T09:24:58.000Z</time>
      </trkpt>
      <trkpt lat="47.71794" lon="6.05804">
        <ele>262.20001220703</ele>
        <time>2014-04-16T09:25:04.000Z</time>
      </trkpt>
      <trkpt lat="47.71783" lon="6.05798">
        <ele>261.79998779297</ele>
        <time>2014-04-16T09:25:10.000Z</time>
      </trkpt>
      <trkpt lat="47.71771" lon="6.0579">
        <ele>261.39999389648</ele>
        <time>2014-04-16T09:25:16.000Z</time>
      </trkpt>
      <trkpt lat="47.71755" lon="6.05785">
        <ele>261</ele>
        <time>2014-04-16T09:25:22.000Z</time>
      </trkpt>
      <trkpt lat="47.71739" lon="6.05775">
        <ele>260.39999389648</ele>
        <time>2014-04-16T09:25:28.000Z</time>
      </trkpt>
      <trkpt lat="47.71719" lon="6.05766">
        <ele>259.60000610352</ele>
        <time>2014-04-16T09:25:35.000Z</time>
      </trkpt>
      <trkpt lat="47.71707" lon="6.05761">
        <ele>259</ele>
        <time>2014-04-16T09:25:40.000Z</time>
      </trkpt>
      <trkpt lat="47.71693" lon="6.05752">
        <ele>258.20001220703</ele>
        <time>2014-04-16T09:25:45.000Z</time>
      </trkpt>
      <trkpt lat="47.71683" lon="6.05747">
        <ele>257.79998779297</ele>
        <time>2014-04-16T09:25:49.000Z</time>
      </trkpt>
      <trkpt lat="47.71668" lon="6.05746">
        <ele>256.60000610352</ele>
        <time>2014-04-16T09:25:54.000Z</time>
      </trkpt>
      <trkpt lat="47.71649" lon="6.05744">
        <ele>255.60000610352</ele>
        <time>2014-04-16T09:26:00.000Z</time>
      </trkpt>
      <trkpt lat="47.71639" lon="6.05743">
        <ele>255</ele>
        <time>2014-04-16T09:26:04.000Z</time>
      </trkpt>
      <trkpt lat="47.71623" lon="6.05738">
        <ele>254.39999389648</ele>
        <time>2014-04-16T09:26:10.000Z</time>
      </trkpt>
      <trkpt lat="47.7161" lon="6.05735">
        <ele>253.80000305176</ele>
        <time>2014-04-16T09:26:15.000Z</time>
      </trkpt>
      <trkpt lat="47.71602" lon="6.05735">
        <ele>253.39999389648</ele>
        <time>2014-04-16T09:26:20.000Z</time>
      </trkpt>
      <trkpt lat="47.7159" lon="6.05737">
        <ele>252.80000305176</ele>
        <time>2014-04-16T09:26:25.000Z</time>
      </trkpt>
      <trkpt lat="47.71588" lon="6.05737">
        <ele>252.80000305176</ele>
        <time>2014-04-16T09:26:26.000Z</time>
      </trkpt>
      <trkpt lat="47.7158" lon="6.05734">
        <ele>252.80000305176</ele>
        <time>2014-04-16T09:26:29.000Z</time>
      </trkpt>
      <trkpt lat="47.71566" lon="6.05733">
        <ele>253</ele>
        <time>2014-04-16T09:26:35.000Z</time>
      </trkpt>
      <trkpt lat="47.71546" lon="6.05729">
        <ele>253.39999389648</ele>
        <time>2014-04-16T09:26:41.000Z</time>
      </trkpt>
      <trkpt lat="47.71522" lon="6.05726">
        <ele>253.80000305176</ele>
        <time>2014-04-16T09:26:47.000Z</time>
      </trkpt>
      <trkpt lat="47.71503" lon="6.05717">
        <ele>254.60000610352</ele>
        <time>2014-04-16T09:26:52.000Z</time>
      </trkpt>
      <trkpt lat="47.71484" lon="6.05705">
        <ele>255</ele>
        <time>2014-04-16T09:26:58.000Z</time>
      </trkpt>
      <trkpt lat="47.71468" lon="6.05691">
        <ele>255.60000610352</ele>
        <time>2014-04-16T09:27:04.000Z</time>
      </trkpt>
      <trkpt lat="47.71453" lon="6.05679">
        <ele>256</ele>
        <time>2014-04-16T09:27:10.000Z</time>
      </trkpt>
      <trkpt lat="47.71436" lon="6.05663">
        <ele>256.79998779297</ele>
        <time>2014-04-16T09:27:17.000Z</time>
      </trkpt>
      <trkpt lat="47.71427" lon="6.05656">
        <ele>257</ele>
        <time>2014-04-16T09:27:21.000Z</time>
      </trkpt>
      <trkpt lat="47.71424" lon="6.05654">
        <ele>257</ele>
        <time>2014-04-16T09:27:22.000Z</time>
      </trkpt>
      <trkpt lat="47.71421" lon="6.05653">
        <ele>257</ele>
        <time>2014-04-16T09:27:23.000Z</time>
      </trkpt>
      <trkpt lat="47.71419" lon="6.05651">
        <ele>257</ele>
        <time>2014-04-16T09:27:24.000Z</time>
      </trkpt>
      <trkpt lat="47.71418" lon="6.05648">
        <ele>257.20001220703</ele>
        <time>2014-04-16T09:27:25.000Z</time>
      </trkpt>
      <trkpt lat="47.7141" lon="6.05641">
        <ele>257.39999389648</ele>
        <time>2014-04-16T09:27:29.000Z</time>
      </trkpt>
      <trkpt lat="47.71398" lon="6.05632">
        <ele>257.79998779297</ele>
        <time>2014-04-16T09:27:36.000Z</time>
      </trkpt>
      <trkpt lat="47.71384" lon="6.05624">
        <ele>257.60000610352</ele>
        <time>2014-04-16T09:27:42.000Z</time>
      </trkpt>
      <trkpt lat="47.71382" lon="6.05623">
        <ele>257.60000610352</ele>
        <time>2014-04-16T09:27:43.000Z</time>
      </trkpt>
      <trkpt lat="47.7138" lon="6.05621">
        <ele>257.79998779297</ele>
        <time>2014-04-16T09:27:44.000Z</time>
      </trkpt>
      <trkpt lat="47.71378" lon="6.05618">
        <ele>257.79998779297</ele>
        <time>2014-04-16T09:27:45.000Z</time>
      </trkpt>
      <trkpt lat="47.71376" lon="6.05616">
        <ele>258</ele>
        <time>2014-04-16T09:27:46.000Z</time>
      </trkpt>
      <trkpt lat="47.7137" lon="6.05611">
        <ele>258.20001220703</ele>
        <time>2014-04-16T09:27:49.000Z</time>
      </trkpt>
      <trkpt lat="47.71357" lon="6.056">
        <ele>258.60000610352</ele>
        <time>2014-04-16T09:27:55.000Z</time>
      </trkpt>
      <trkpt lat="47.71344" lon="6.05592">
        <ele>258.60000610352</ele>
        <time>2014-04-16T09:28:01.000Z</time>
      </trkpt>
      <trkpt lat="47.71326" lon="6.05582">
        <ele>260.60000610352</ele>
        <time>2014-04-16T09:28:09.000Z</time>
      </trkpt>
      <trkpt lat="47.71317" lon="6.05575">
        <ele>262.79998779297</ele>
        <time>2014-04-16T09:28:14.000Z</time>
      </trkpt>
      <trkpt lat="47.71305" lon="6.05564">
        <ele>265.60000610352</ele>
        <time>2014-04-16T09:28:20.000Z</time>
      </trkpt>
      <trkpt lat="47.71302" lon="6.05563">
        <ele>266.20001220703</ele>
        <time>2014-04-16T09:28:21.000Z</time>
      </trkpt>
      <trkpt lat="47.713" lon="6.05562">
        <ele>266.60000610352</ele>
        <time>2014-04-16T09:28:22.000Z</time>
      </trkpt>
      <trkpt lat="47.71297" lon="6.05562">
        <ele>267</ele>
        <time>2014-04-16T09:28:23.000Z</time>
      </trkpt>
      <trkpt lat="47.71295" lon="6.05561">
        <ele>267.39999389648</ele>
        <time>2014-04-16T09:28:24.000Z</time>
      </trkpt>
      <trkpt lat="47.7129" lon="6.05557">
        <ele>268.20001220703</ele>
        <time>2014-04-16T09:28:26.000Z</time>
      </trkpt>
      <trkpt lat="47.71281" lon="6.05553">
        <ele>269.79998779297</ele>
        <time>2014-04-16T09:28:31.000Z</time>
      </trkpt>
      <trkpt lat="47.71279" lon="6.05552">
        <ele>270</ele>
        <time>2014-04-16T09:28:32.000Z</time>
      </trkpt>
      <trkpt lat="47.71277" lon="6.05551">
        <ele>270.39999389648</ele>
        <time>2014-04-16T09:28:33.000Z</time>
      </trkpt>
      <trkpt lat="47.71274" lon="6.05551">
        <ele>270.60000610352</ele>
        <time>2014-04-16T09:28:34.000Z</time>
      </trkpt>
      <trkpt lat="47.71273" lon="6.0555">
        <ele>270.79998779297</ele>
        <time>2014-04-16T09:28:35.000Z</time>
      </trkpt>
      <trkpt lat="47.71268" lon="6.05549">
        <ele>271.60000610352</ele>
        <time>2014-04-16T09:28:38.000Z</time>
      </trkpt>
      <trkpt lat="47.71266" lon="6.05547">
        <ele>272</ele>
        <time>2014-04-16T09:28:40.000Z</time>
      </trkpt>
      <trkpt lat="47.71263" lon="6.05545">
        <ele>272.39999389648</ele>
        <time>2014-04-16T09:28:42.000Z</time>
      </trkpt>
      <trkpt lat="47.71262" lon="6.05544">
        <ele>272.60000610352</ele>
        <time>2014-04-16T09:28:43.000Z</time>
      </trkpt>
      <trkpt lat="47.7126" lon="6.05543">
        <ele>273</ele>
        <time>2014-04-16T09:28:44.000Z</time>
      </trkpt>
      <trkpt lat="47.71258" lon="6.05541">
        <ele>273.20001220703</ele>
        <time>2014-04-16T09:28:45.000Z</time>
      </trkpt>
      <trkpt lat="47.71257" lon="6.0554">
        <ele>273.39999389648</ele>
        <time>2014-04-16T09:28:46.000Z</time>
      </trkpt>
      <trkpt lat="47.71255" lon="6.05538">
        <ele>273.79998779297</ele>
        <time>2014-04-16T09:28:47.000Z</time>
      </trkpt>
      <trkpt lat="47.71254" lon="6.05537">
        <ele>274</ele>
        <time>2014-04-16T09:28:48.000Z</time>
      </trkpt>
      <trkpt lat="47.71252" lon="6.05536">
        <ele>274</ele>
        <time>2014-04-16T09:28:49.000Z</time>
      </trkpt>
      <trkpt lat="47.71247" lon="6.05536">
        <ele>274.20001220703</ele>
        <time>2014-04-16T09:28:52.000Z</time>
      </trkpt>
      <trkpt lat="47.71246" lon="6.05535">
        <ele>274.20001220703</ele>
        <time>2014-04-16T09:28:53.000Z</time>
      </trkpt>
      <trkpt lat="47.71244" lon="6.05535">
        <ele>274.20001220703</ele>
        <time>2014-04-16T09:28:54.000Z</time>
      </trkpt>
      <trkpt lat="47.71242" lon="6.05534">
        <ele>274.20001220703</ele>
        <time>2014-04-16T09:28:55.000Z</time>
      </trkpt>
      <trkpt lat="47.7124" lon="6.05534">
        <ele>274.20001220703</ele>
        <time>2014-04-16T09:28:56.000Z</time>
      </trkpt>
      <trkpt lat="47.71239" lon="6.05532">
        <ele>274.39999389648</ele>
        <time>2014-04-16T09:28:57.000Z</time>
      </trkpt>
      <trkpt lat="47.71236" lon="6.0553">
        <ele>274.39999389648</ele>
        <time>2014-04-16T09:28:59.000Z</time>
      </trkpt>
      <trkpt lat="47.71235" lon="6.05529">
        <ele>274.39999389648</ele>
        <time>2014-04-16T09:29:00.000Z</time>
      </trkpt>
      <trkpt lat="47.71234" lon="6.05528">
        <ele>274.39999389648</ele>
        <time>2014-04-16T09:29:01.000Z</time>
      </trkpt>
      <trkpt lat="47.71232" lon="6.05528">
        <ele>274.60000610352</ele>
        <time>2014-04-16T09:29:02.000Z</time>
      </trkpt>
      <trkpt lat="47.71231" lon="6.05527">
        <ele>274.60000610352</ele>
        <time>2014-04-16T09:29:03.000Z</time>
      </trkpt>
      <trkpt lat="47.71226" lon="6.05525">
        <ele>274.60000610352</ele>
        <time>2014-04-16T09:29:06.000Z</time>
      </trkpt>
      <trkpt lat="47.7122" lon="6.05523">
        <ele>274.79998779297</ele>
        <time>2014-04-16T09:29:09.000Z</time>
      </trkpt>
      <trkpt lat="47.71218" lon="6.05522">
        <ele>274.79998779297</ele>
        <time>2014-04-16T09:29:10.000Z</time>
      </trkpt>
      <trkpt lat="47.71217" lon="6.05521">
        <ele>274.79998779297</ele>
        <time>2014-04-16T09:29:11.000Z</time>
      </trkpt>
      <trkpt lat="47.71216" lon="6.0552">
        <ele>274.79998779297</ele>
        <time>2014-04-16T09:29:12.000Z</time>
      </trkpt>
      <trkpt lat="47.71206" lon="6.05516">
        <ele>275.39999389648</ele>
        <time>2014-04-16T09:29:19.000Z</time>
      </trkpt>
      <trkpt lat="47.71204" lon="6.05516">
        <ele>275.60000610352</ele>
        <time>2014-04-16T09:29:20.000Z</time>
      </trkpt>
      <trkpt lat="47.71202" lon="6.05515">
        <ele>275.60000610352</ele>
        <time>2014-04-16T09:29:21.000Z</time>
      </trkpt>
      <trkpt lat="47.71201" lon="6.05514">
        <ele>275.60000610352</ele>
        <time>2014-04-16T09:29:22.000Z</time>
      </trkpt>
      <trkpt lat="47.71199" lon="6.05513">
        <ele>275.79998779297</ele>
        <time>2014-04-16T09:29:23.000Z</time>
      </trkpt>
      <trkpt lat="47.71198" lon="6.05513">
        <ele>276</ele>
        <time>2014-04-16T09:29:24.000Z</time>
      </trkpt>
      <trkpt lat="47.71196" lon="6.05513">
        <ele>276</ele>
        <time>2014-04-16T09:29:25.000Z</time>
      </trkpt>
      <trkpt lat="47.71191" lon="6.05512">
        <ele>276.39999389648</ele>
        <time>2014-04-16T09:29:28.000Z</time>
      </trkpt>
      <trkpt lat="47.71181" lon="6.0551">
        <ele>277</ele>
        <time>2014-04-16T09:29:33.000Z</time>
      </trkpt>
      <trkpt lat="47.71165" lon="6.05506">
        <ele>277.60000610352</ele>
        <time>2014-04-16T09:29:39.000Z</time>
      </trkpt>
      <trkpt lat="47.71162" lon="6.05505">
        <ele>277.39999389648</ele>
        <time>2014-04-16T09:29:40.000Z</time>
      </trkpt>
      <trkpt lat="47.71161" lon="6.05504">
        <ele>277.39999389648</ele>
        <time>2014-04-16T09:29:41.000Z</time>
      </trkpt>
      <trkpt lat="47.71158" lon="6.05503">
        <ele>277.20001220703</ele>
        <time>2014-04-16T09:29:42.000Z</time>
      </trkpt>
      <trkpt lat="47.71156" lon="6.05503">
        <ele>277.20001220703</ele>
        <time>2014-04-16T09:29:43.000Z</time>
      </trkpt>
      <trkpt lat="47.71154" lon="6.05504">
        <ele>277</ele>
        <time>2014-04-16T09:29:44.000Z</time>
      </trkpt>
      <trkpt lat="47.71153" lon="6.05504">
        <ele>277</ele>
        <time>2014-04-16T09:29:45.000Z</time>
      </trkpt>
      <trkpt lat="47.7115" lon="6.05506">
        <ele>277</ele>
        <time>2014-04-16T09:29:47.000Z</time>
      </trkpt>
      <trkpt lat="47.71149" lon="6.05507">
        <ele>277</ele>
        <time>2014-04-16T09:29:48.000Z</time>
      </trkpt>
      <trkpt lat="47.71141" lon="6.05508">
        <ele>276.79998779297</ele>
        <time>2014-04-16T09:30:32.000Z</time>
      </trkpt>
      <trkpt lat="47.71138" lon="6.05508">
        <ele>276.60000610352</ele>
        <time>2014-04-16T09:30:33.000Z</time>
      </trkpt>
      <trkpt lat="47.71125" lon="6.05508">
        <ele>276.20001220703</ele>
        <time>2014-04-16T09:30:38.000Z</time>
      </trkpt>
      <trkpt lat="47.7112" lon="6.05509">
        <ele>276</ele>
        <time>2014-04-16T09:30:40.000Z</time>
      </trkpt>
      <trkpt lat="47.71118" lon="6.05509">
        <ele>276</ele>
        <time>2014-04-16T09:30:41.000Z</time>
      </trkpt>
      <trkpt lat="47.71115" lon="6.05509">
        <ele>276.20001220703</ele>
        <time>2014-04-16T09:30:42.000Z</time>
      </trkpt>
      <trkpt lat="47.71113" lon="6.05509">
        <ele>276.20001220703</ele>
        <time>2014-04-16T09:30:43.000Z</time>
      </trkpt>
      <trkpt lat="47.7111" lon="6.05509">
        <ele>276.39999389648</ele>
        <time>2014-04-16T09:30:44.000Z</time>
      </trkpt>
      <trkpt lat="47.71095" lon="6.05511">
        <ele>277.20001220703</ele>
        <time>2014-04-16T09:30:51.000Z</time>
      </trkpt>
      <trkpt lat="47.71084" lon="6.05512">
        <ele>277.39999389648</ele>
        <time>2014-04-16T09:30:56.000Z</time>
      </trkpt>
      <trkpt lat="47.71068" lon="6.05515">
        <ele>277.20001220703</ele>
        <time>2014-04-16T09:31:03.000Z</time>
      </trkpt>
      <trkpt lat="47.71051" lon="6.0552">
        <ele>277</ele>
        <time>2014-04-16T09:31:10.000Z</time>
      </trkpt>
      <trkpt lat="47.71032" lon="6.05522">
        <ele>275.60000610352</ele>
        <time>2014-04-16T09:31:17.000Z</time>
      </trkpt>
      <trkpt lat="47.71011" lon="6.05516">
        <ele>273.60000610352</ele>
        <time>2014-04-16T09:31:24.000Z</time>
      </trkpt>
      <trkpt lat="47.70987" lon="6.05509">
        <ele>271.60000610352</ele>
        <time>2014-04-16T09:31:31.000Z</time>
      </trkpt>
      <trkpt lat="47.70965" lon="6.05504">
        <ele>270</ele>
        <time>2014-04-16T09:31:37.000Z</time>
      </trkpt>
      <trkpt lat="47.70952" lon="6.055">
        <ele>269</ele>
        <time>2014-04-16T09:31:40.000Z</time>
      </trkpt>
      <trkpt lat="47.70947" lon="6.05499">
        <ele>268.60000610352</ele>
        <time>2014-04-16T09:31:41.000Z</time>
      </trkpt>
      <trkpt lat="47.70942" lon="6.05497">
        <ele>268.39999389648</ele>
        <time>2014-04-16T09:31:42.000Z</time>
      </trkpt>
      <trkpt lat="47.70938" lon="6.05496">
        <ele>268</ele>
        <time>2014-04-16T09:31:43.000Z</time>
      </trkpt>
      <trkpt lat="47.70933" lon="6.05494">
        <ele>267.60000610352</ele>
        <time>2014-04-16T09:31:44.000Z</time>
      </trkpt>
      <trkpt lat="47.70907" lon="6.05483">
        <ele>265.60000610352</ele>
        <time>2014-04-16T09:31:49.000Z</time>
      </trkpt>
      <trkpt lat="47.70902" lon="6.05481">
        <ele>265.20001220703</ele>
        <time>2014-04-16T09:31:50.000Z</time>
      </trkpt>
      <trkpt lat="47.70896" lon="6.05478">
        <ele>265</ele>
        <time>2014-04-16T09:31:51.000Z</time>
      </trkpt>
      <trkpt lat="47.70891" lon="6.05475">
        <ele>264.60000610352</ele>
        <time>2014-04-16T09:31:52.000Z</time>
      </trkpt>
      <trkpt lat="47.70885" lon="6.05472">
        <ele>264.20001220703</ele>
        <time>2014-04-16T09:31:53.000Z</time>
      </trkpt>
      <trkpt lat="47.70879" lon="6.05469">
        <ele>264</ele>
        <time>2014-04-16T09:31:54.000Z</time>
      </trkpt>
      <trkpt lat="47.70874" lon="6.05465">
        <ele>263.60000610352</ele>
        <time>2014-04-16T09:31:55.000Z</time>
      </trkpt>
      <trkpt lat="47.70862" lon="6.05458">
        <ele>263</ele>
        <time>2014-04-16T09:31:57.000Z</time>
      </trkpt>
      <trkpt lat="47.70855" lon="6.05455">
        <ele>262.60000610352</ele>
        <time>2014-04-16T09:31:58.000Z</time>
      </trkpt>
      <trkpt lat="47.70848" lon="6.05452">
        <ele>262.20001220703</ele>
        <time>2014-04-16T09:31:59.000Z</time>
      </trkpt>
      <trkpt lat="47.70842" lon="6.05449">
        <ele>262</ele>
        <time>2014-04-16T09:32:00.000Z</time>
      </trkpt>
      <trkpt lat="47.70835" lon="6.05446">
        <ele>261.60000610352</ele>
        <time>2014-04-16T09:32:01.000Z</time>
      </trkpt>
      <trkpt lat="47.70828" lon="6.05443">
        <ele>261</ele>
        <time>2014-04-16T09:32:02.000Z</time>
      </trkpt>
      <trkpt lat="47.70822" lon="6.0544">
        <ele>260.60000610352</ele>
        <time>2014-04-16T09:32:03.000Z</time>
      </trkpt>
      <trkpt lat="47.70815" lon="6.05436">
        <ele>260.20001220703</ele>
        <time>2014-04-16T09:32:04.000Z</time>
      </trkpt>
      <trkpt lat="47.70809" lon="6.05433">
        <ele>259.79998779297</ele>
        <time>2014-04-16T09:32:05.000Z</time>
      </trkpt>
      <trkpt lat="47.70803" lon="6.05429">
        <ele>259.39999389648</ele>
        <time>2014-04-16T09:32:06.000Z</time>
      </trkpt>
      <trkpt lat="47.70797" lon="6.05425">
        <ele>259</ele>
        <time>2014-04-16T09:32:07.000Z</time>
      </trkpt>
      <trkpt lat="47.70791" lon="6.05421">
        <ele>258.60000610352</ele>
        <time>2014-04-16T09:32:08.000Z</time>
      </trkpt>
      <trkpt lat="47.70784" lon="6.05419">
        <ele>258.20001220703</ele>
        <time>2014-04-16T09:32:09.000Z</time>
      </trkpt>
      <trkpt lat="47.70777" lon="6.05417">
        <ele>257.79998779297</ele>
        <time>2014-04-16T09:32:10.000Z</time>
      </trkpt>
      <trkpt lat="47.70764" lon="6.05413">
        <ele>256.39999389648</ele>
        <time>2014-04-16T09:32:12.000Z</time>
      </trkpt>
      <trkpt lat="47.70757" lon="6.05413">
        <ele>255.80000305176</ele>
        <time>2014-04-16T09:32:13.000Z</time>
      </trkpt>
      <trkpt lat="47.70751" lon="6.05412">
        <ele>255.60000610352</ele>
        <time>2014-04-16T09:32:14.000Z</time>
      </trkpt>
      <trkpt lat="47.70745" lon="6.05412">
        <ele>255.80000305176</ele>
        <time>2014-04-16T09:32:15.000Z</time>
      </trkpt>
      <trkpt lat="47.70739" lon="6.05412">
        <ele>255.80000305176</ele>
        <time>2014-04-16T09:32:16.000Z</time>
      </trkpt>
      <trkpt lat="47.70712" lon="6.05411">
        <ele>256.60000610352</ele>
        <time>2014-04-16T09:32:21.000Z</time>
      </trkpt>
      <trkpt lat="47.7069" lon="6.05412">
        <ele>257</ele>
        <time>2014-04-16T09:32:26.000Z</time>
      </trkpt>
      <trkpt lat="47.70668" lon="6.0541">
        <ele>257.20001220703</ele>
        <time>2014-04-16T09:32:32.000Z</time>
      </trkpt>
      <trkpt lat="47.70647" lon="6.05407">
        <ele>257.79998779297</ele>
        <time>2014-04-16T09:32:39.000Z</time>
      </trkpt>
      <trkpt lat="47.70625" lon="6.05401">
        <ele>258.60000610352</ele>
        <time>2014-04-16T09:32:46.000Z</time>
      </trkpt>
      <trkpt lat="47.70608" lon="6.05394">
        <ele>259.39999389648</ele>
        <time>2014-04-16T09:32:51.000Z</time>
      </trkpt>
      <trkpt lat="47.70581" lon="6.05381">
        <ele>260</ele>
        <time>2014-04-16T09:32:59.000Z</time>
      </trkpt>
      <trkpt lat="47.70558" lon="6.05374">
        <ele>260.39999389648</ele>
        <time>2014-04-16T09:33:06.000Z</time>
      </trkpt>
      <trkpt lat="47.70534" lon="6.05367">
        <ele>261</ele>
        <time>2014-04-16T09:33:13.000Z</time>
      </trkpt>
      <trkpt lat="47.70508" lon="6.05357">
        <ele>261.39999389648</ele>
        <time>2014-04-16T09:33:21.000Z</time>
      </trkpt>
      <trkpt lat="47.70486" lon="6.05342">
        <ele>262</ele>
        <time>2014-04-16T09:33:28.000Z</time>
      </trkpt>
      <trkpt lat="47.70472" lon="6.05327">
        <ele>262.39999389648</ele>
        <time>2014-04-16T09:33:33.000Z</time>
      </trkpt>
      <trkpt lat="47.70453" lon="6.05307">
        <ele>262.60000610352</ele>
        <time>2014-04-16T09:33:40.000Z</time>
      </trkpt>
      <trkpt lat="47.70437" lon="6.05299">
        <ele>262.79998779297</ele>
        <time>2014-04-16T09:33:45.000Z</time>
      </trkpt>
      <trkpt lat="47.70418" lon="6.05293">
        <ele>263</ele>
        <time>2014-04-16T09:33:50.000Z</time>
      </trkpt>
      <trkpt lat="47.70398" lon="6.05285">
        <ele>261.79998779297</ele>
        <time>2014-04-16T09:33:55.000Z</time>
      </trkpt>
      <trkpt lat="47.7039" lon="6.05283">
        <ele>261.39999389648</ele>
        <time>2014-04-16T09:33:57.000Z</time>
      </trkpt>
      <trkpt lat="47.70359" lon="6.05277">
        <ele>259.39999389648</ele>
        <time>2014-04-16T09:34:04.000Z</time>
      </trkpt>
      <trkpt lat="47.70325" lon="6.05272">
        <ele>257.39999389648</ele>
        <time>2014-04-16T09:34:10.000Z</time>
      </trkpt>
      <trkpt lat="47.70319" lon="6.05271">
        <ele>256.79998779297</ele>
        <time>2014-04-16T09:34:11.000Z</time>
      </trkpt>
      <trkpt lat="47.70312" lon="6.05271">
        <ele>256.39999389648</ele>
        <time>2014-04-16T09:34:12.000Z</time>
      </trkpt>
      <trkpt lat="47.70306" lon="6.05271">
        <ele>256</ele>
        <time>2014-04-16T09:34:13.000Z</time>
      </trkpt>
      <trkpt lat="47.70298" lon="6.05271">
        <ele>255.39999389648</ele>
        <time>2014-04-16T09:34:14.000Z</time>
      </trkpt>
      <trkpt lat="47.70291" lon="6.05271">
        <ele>254.39999389648</ele>
        <time>2014-04-16T09:34:15.000Z</time>
      </trkpt>
      <trkpt lat="47.70284" lon="6.05271">
        <ele>253.39999389648</ele>
        <time>2014-04-16T09:34:16.000Z</time>
      </trkpt>
      <trkpt lat="47.70276" lon="6.05272">
        <ele>252.39999389648</ele>
        <time>2014-04-16T09:34:17.000Z</time>
      </trkpt>
      <trkpt lat="47.70267" lon="6.05272">
        <ele>251.19999694824</ele>
        <time>2014-04-16T09:34:18.000Z</time>
      </trkpt>
      <trkpt lat="47.70259" lon="6.05273">
        <ele>250.19999694824</ele>
        <time>2014-04-16T09:34:19.000Z</time>
      </trkpt>
      <trkpt lat="47.7025" lon="6.05273">
        <ele>249.19999694824</ele>
        <time>2014-04-16T09:34:20.000Z</time>
      </trkpt>
      <trkpt lat="47.70242" lon="6.05276">
        <ele>248.19999694824</ele>
        <time>2014-04-16T09:34:21.000Z</time>
      </trkpt>
      <trkpt lat="47.70234" lon="6.05279">
        <ele>247.19999694824</ele>
        <time>2014-04-16T09:34:22.000Z</time>
      </trkpt>
      <trkpt lat="47.70226" lon="6.05283">
        <ele>246.39999389648</ele>
        <time>2014-04-16T09:34:23.000Z</time>
      </trkpt>
      <trkpt lat="47.70218" lon="6.05288">
        <ele>246.19999694824</ele>
        <time>2014-04-16T09:34:24.000Z</time>
      </trkpt>
      <trkpt lat="47.7021" lon="6.05294">
        <ele>245.80000305176</ele>
        <time>2014-04-16T09:34:25.000Z</time>
      </trkpt>
      <trkpt lat="47.70203" lon="6.05301">
        <ele>245.60000610352</ele>
        <time>2014-04-16T09:34:26.000Z</time>
      </trkpt>
      <trkpt lat="47.70196" lon="6.05309">
        <ele>245.60000610352</ele>
        <time>2014-04-16T09:34:27.000Z</time>
      </trkpt>
      <trkpt lat="47.70189" lon="6.05316">
        <ele>245.19999694824</ele>
        <time>2014-04-16T09:34:28.000Z</time>
      </trkpt>
      <trkpt lat="47.70184" lon="6.05321">
        <ele>244.80000305176</ele>
        <time>2014-04-16T09:34:29.000Z</time>
      </trkpt>
      <trkpt lat="47.7018" lon="6.05324">
        <ele>244.80000305176</ele>
        <time>2014-04-16T09:34:30.000Z</time>
      </trkpt>
      <trkpt lat="47.70172" lon="6.05331">
        <ele>244.80000305176</ele>
        <time>2014-04-16T09:34:32.000Z</time>
      </trkpt>
      <trkpt lat="47.70167" lon="6.05334">
        <ele>245</ele>
        <time>2014-04-16T09:34:33.000Z</time>
      </trkpt>
      <trkpt lat="47.70163" lon="6.05337">
        <ele>245</ele>
        <time>2014-04-16T09:34:34.000Z</time>
      </trkpt>
      <trkpt lat="47.70157" lon="6.0534">
        <ele>245.19999694824</ele>
        <time>2014-04-16T09:34:35.000Z</time>
      </trkpt>
      <trkpt lat="47.70153" lon="6.05343">
        <ele>245.39999389648</ele>
        <time>2014-04-16T09:34:36.000Z</time>
      </trkpt>
      <trkpt lat="47.70123" lon="6.0536">
        <ele>246.19999694824</ele>
        <time>2014-04-16T09:34:42.000Z</time>
      </trkpt>
      <trkpt lat="47.70085" lon="6.05377">
        <ele>246.60000610352</ele>
        <time>2014-04-16T09:34:50.000Z</time>
      </trkpt>
      <trkpt lat="47.70072" lon="6.0538">
        <ele>247.39999389648</ele>
        <time>2014-04-16T09:34:53.000Z</time>
      </trkpt>
      <trkpt lat="47.70068" lon="6.0538">
        <ele>247.60000610352</ele>
        <time>2014-04-16T09:34:54.000Z</time>
      </trkpt>
      <trkpt lat="47.70063" lon="6.05381">
        <ele>247.80000305176</ele>
        <time>2014-04-16T09:34:55.000Z</time>
      </trkpt>
      <trkpt lat="47.70059" lon="6.05381">
        <ele>247.80000305176</ele>
        <time>2014-04-16T09:34:56.000Z</time>
      </trkpt>
      <trkpt lat="47.70054" lon="6.0538">
        <ele>248</ele>
        <time>2014-04-16T09:34:57.000Z</time>
      </trkpt>
      <trkpt lat="47.70028" lon="6.05378">
        <ele>249</ele>
        <time>2014-04-16T09:35:03.000Z</time>
      </trkpt>
      <trkpt lat="47.70024" lon="6.05378">
        <ele>249</ele>
        <time>2014-04-16T09:35:04.000Z</time>
      </trkpt>
      <trkpt lat="47.70019" lon="6.05378">
        <ele>249.19999694824</ele>
        <time>2014-04-16T09:35:05.000Z</time>
      </trkpt>
      <trkpt lat="47.70015" lon="6.05379">
        <ele>249.39999389648</ele>
        <time>2014-04-16T09:35:06.000Z</time>
      </trkpt>
      <trkpt lat="47.70007" lon="6.0538">
        <ele>249.80000305176</ele>
        <time>2014-04-16T09:35:08.000Z</time>
      </trkpt>
      <trkpt lat="47.69999" lon="6.0538">
        <ele>249.80000305176</ele>
        <time>2014-04-16T09:35:10.000Z</time>
      </trkpt>
      <trkpt lat="47.69991" lon="6.05381">
        <ele>249.80000305176</ele>
        <time>2014-04-16T09:35:12.000Z</time>
      </trkpt>
      <trkpt lat="47.69987" lon="6.05381">
        <ele>249.80000305176</ele>
        <time>2014-04-16T09:35:13.000Z</time>
      </trkpt>
      <trkpt lat="47.69983" lon="6.05382">
        <ele>249.60000610352</ele>
        <time>2014-04-16T09:35:14.000Z</time>
      </trkpt>
      <trkpt lat="47.6998" lon="6.05383">
        <ele>249.60000610352</ele>
        <time>2014-04-16T09:35:15.000Z</time>
      </trkpt>
      <trkpt lat="47.69976" lon="6.05383">
        <ele>249.39999389648</ele>
        <time>2014-04-16T09:35:16.000Z</time>
      </trkpt>
      <trkpt lat="47.69965" lon="6.05387">
        <ele>249.19999694824</ele>
        <time>2014-04-16T09:35:19.000Z</time>
      </trkpt>
      <trkpt lat="47.69942" lon="6.05397">
        <ele>248.39999389648</ele>
        <time>2014-04-16T09:35:26.000Z</time>
      </trkpt>
      <trkpt lat="47.69914" lon="6.0541">
        <ele>247.19999694824</ele>
        <time>2014-04-16T09:35:34.000Z</time>
      </trkpt>
      <trkpt lat="47.69889" lon="6.05423">
        <ele>247</ele>
        <time>2014-04-16T09:35:39.000Z</time>
      </trkpt>
      <trkpt lat="47.69883" lon="6.05426">
        <ele>246.80000305176</ele>
        <time>2014-04-16T09:35:40.000Z</time>
      </trkpt>
      <trkpt lat="47.69876" lon="6.0543">
        <ele>246.80000305176</ele>
        <time>2014-04-16T09:35:41.000Z</time>
      </trkpt>
      <trkpt lat="47.6987" lon="6.05434">
        <ele>246.19999694824</ele>
        <time>2014-04-16T09:35:42.000Z</time>
      </trkpt>
      <trkpt lat="47.69863" lon="6.05438">
        <ele>245.39999389648</ele>
        <time>2014-04-16T09:35:43.000Z</time>
      </trkpt>
      <trkpt lat="47.69857" lon="6.05441">
        <ele>244.60000610352</ele>
        <time>2014-04-16T09:35:44.000Z</time>
      </trkpt>
      <trkpt lat="47.69849" lon="6.05445">
        <ele>244</ele>
        <time>2014-04-16T09:35:45.000Z</time>
      </trkpt>
      <trkpt lat="47.69842" lon="6.05449">
        <ele>243.19999694824</ele>
        <time>2014-04-16T09:35:46.000Z</time>
      </trkpt>
      <trkpt lat="47.69834" lon="6.05451">
        <ele>242.39999389648</ele>
        <time>2014-04-16T09:35:47.000Z</time>
      </trkpt>
      <trkpt lat="47.69826" lon="6.05452">
        <ele>241.39999389648</ele>
        <time>2014-04-16T09:35:48.000Z</time>
      </trkpt>
      <trkpt lat="47.69817" lon="6.05453">
        <ele>240.60000610352</ele>
        <time>2014-04-16T09:35:49.000Z</time>
      </trkpt>
      <trkpt lat="47.69808" lon="6.05453">
        <ele>240.19999694824</ele>
        <time>2014-04-16T09:35:50.000Z</time>
      </trkpt>
      <trkpt lat="47.69798" lon="6.05453">
        <ele>240</ele>
        <time>2014-04-16T09:35:51.000Z</time>
      </trkpt>
      <trkpt lat="47.69789" lon="6.05455">
        <ele>240</ele>
        <time>2014-04-16T09:35:52.000Z</time>
      </trkpt>
      <trkpt lat="47.69781" lon="6.05459">
        <ele>239.80000305176</ele>
        <time>2014-04-16T09:35:53.000Z</time>
      </trkpt>
      <trkpt lat="47.69774" lon="6.05465">
        <ele>239.60000610352</ele>
        <time>2014-04-16T09:35:54.000Z</time>
      </trkpt>
      <trkpt lat="47.69756" lon="6.05486">
        <ele>239.19999694824</ele>
        <time>2014-04-16T09:35:57.000Z</time>
      </trkpt>
      <trkpt lat="47.69735" lon="6.05518">
        <ele>241.19999694824</ele>
        <time>2014-04-16T09:36:02.000Z</time>
      </trkpt>
      <trkpt lat="47.69732" lon="6.05522">
        <ele>241.60000610352</ele>
        <time>2014-04-16T09:36:03.000Z</time>
      </trkpt>
      <trkpt lat="47.6972" lon="6.05536">
        <ele>242.60000610352</ele>
        <time>2014-04-16T09:36:06.000Z</time>
      </trkpt>
      <trkpt lat="47.69694" lon="6.05565">
        <ele>245</ele>
        <time>2014-04-16T09:36:13.000Z</time>
      </trkpt>
      <trkpt lat="47.69666" lon="6.05584">
        <ele>246.80000305176</ele>
        <time>2014-04-16T09:36:20.000Z</time>
      </trkpt>
      <trkpt lat="47.69661" lon="6.05586">
        <ele>247.19999694824</ele>
        <time>2014-04-16T09:36:21.000Z</time>
      </trkpt>
      <trkpt lat="47.69657" lon="6.05588">
        <ele>247.60000610352</ele>
        <time>2014-04-16T09:36:22.000Z</time>
      </trkpt>
      <trkpt lat="47.69653" lon="6.05588">
        <ele>247.80000305176</ele>
        <time>2014-04-16T09:36:23.000Z</time>
      </trkpt>
      <trkpt lat="47.6965" lon="6.05588">
        <ele>248.19999694824</ele>
        <time>2014-04-16T09:36:24.000Z</time>
      </trkpt>
      <trkpt lat="47.69646" lon="6.05588">
        <ele>248.39999389648</ele>
        <time>2014-04-16T09:36:25.000Z</time>
      </trkpt>
      <trkpt lat="47.69643" lon="6.05587">
        <ele>248.60000610352</ele>
        <time>2014-04-16T09:36:26.000Z</time>
      </trkpt>
      <trkpt lat="47.69621" lon="6.05576">
        <ele>249.80000305176</ele>
        <time>2014-04-16T09:36:32.000Z</time>
      </trkpt>
      <trkpt lat="47.69605" lon="6.05564">
        <ele>250.80000305176</ele>
        <time>2014-04-16T09:36:37.000Z</time>
      </trkpt>
      <trkpt lat="47.69602" lon="6.05561">
        <ele>251</ele>
        <time>2014-04-16T09:36:38.000Z</time>
      </trkpt>
      <trkpt lat="47.69598" lon="6.05559">
        <ele>251.19999694824</ele>
        <time>2014-04-16T09:36:39.000Z</time>
      </trkpt>
      <trkpt lat="47.69595" lon="6.05556">
        <ele>251.39999389648</ele>
        <time>2014-04-16T09:36:40.000Z</time>
      </trkpt>
      <trkpt lat="47.69592" lon="6.05554">
        <ele>251.60000610352</ele>
        <time>2014-04-16T09:36:41.000Z</time>
      </trkpt>
      <trkpt lat="47.69589" lon="6.05551">
        <ele>252</ele>
        <time>2014-04-16T09:36:42.000Z</time>
      </trkpt>
      <trkpt lat="47.69583" lon="6.05546">
        <ele>252.19999694824</ele>
        <time>2014-04-16T09:36:44.000Z</time>
      </trkpt>
      <trkpt lat="47.69573" lon="6.05539">
        <ele>252</ele>
        <time>2014-04-16T09:36:48.000Z</time>
      </trkpt>
      <trkpt lat="47.6957" lon="6.05538">
        <ele>252</ele>
        <time>2014-04-16T09:36:49.000Z</time>
      </trkpt>
      <trkpt lat="47.69567" lon="6.05537">
        <ele>252</ele>
        <time>2014-04-16T09:36:50.000Z</time>
      </trkpt>
      <trkpt lat="47.69564" lon="6.05536">
        <ele>252</ele>
        <time>2014-04-16T09:36:51.000Z</time>
      </trkpt>
      <trkpt lat="47.69561" lon="6.05535">
        <ele>252</ele>
        <time>2014-04-16T09:36:52.000Z</time>
      </trkpt>
      <trkpt lat="47.69547" lon="6.05531">
        <ele>252.19999694824</ele>
        <time>2014-04-16T09:36:57.000Z</time>
      </trkpt>
      <trkpt lat="47.69544" lon="6.05531">
        <ele>252.19999694824</ele>
        <time>2014-04-16T09:36:58.000Z</time>
      </trkpt>
      <trkpt lat="47.69541" lon="6.05531">
        <ele>252.19999694824</ele>
        <time>2014-04-16T09:36:59.000Z</time>
      </trkpt>
      <trkpt lat="47.69538" lon="6.05531">
        <ele>252.19999694824</ele>
        <time>2014-04-16T09:37:00.000Z</time>
      </trkpt>
      <trkpt lat="47.69536" lon="6.05531">
        <ele>252.19999694824</ele>
        <time>2014-04-16T09:37:01.000Z</time>
      </trkpt>
      <trkpt lat="47.69533" lon="6.0553">
        <ele>252.19999694824</ele>
        <time>2014-04-16T09:37:02.000Z</time>
      </trkpt>
      <trkpt lat="47.69528" lon="6.05529">
        <ele>252.39999389648</ele>
        <time>2014-04-16T09:37:05.000Z</time>
      </trkpt>
      <trkpt lat="47.69527" lon="6.05529">
        <ele>252.39999389648</ele>
        <time>2014-04-16T09:37:39.000Z</time>
      </trkpt>
      <trkpt lat="47.69522" lon="6.05526">
        <ele>252.39999389648</ele>
        <time>2014-04-16T09:37:42.000Z</time>
      </trkpt>
      <trkpt lat="47.69519" lon="6.05525">
        <ele>252.39999389648</ele>
        <time>2014-04-16T09:37:43.000Z</time>
      </trkpt>
      <trkpt lat="47.69505" lon="6.05512">
        <ele>252.39999389648</ele>
        <time>2014-04-16T09:37:48.000Z</time>
      </trkpt>
      <trkpt lat="47.6948" lon="6.0549">
        <ele>251.60000610352</ele>
        <time>2014-04-16T09:37:54.000Z</time>
      </trkpt>
      <trkpt lat="47.69459" lon="6.05472">
        <ele>250.80000305176</ele>
        <time>2014-04-16T09:37:58.000Z</time>
      </trkpt>
      <trkpt lat="47.69453" lon="6.05467">
        <ele>250.39999389648</ele>
        <time>2014-04-16T09:37:59.000Z</time>
      </trkpt>
      <trkpt lat="47.69446" lon="6.05461">
        <ele>250</ele>
        <time>2014-04-16T09:38:00.000Z</time>
      </trkpt>
      <trkpt lat="47.69441" lon="6.05456">
        <ele>249.60000610352</ele>
        <time>2014-04-16T09:38:01.000Z</time>
      </trkpt>
      <trkpt lat="47.69435" lon="6.0545">
        <ele>249.19999694824</ele>
        <time>2014-04-16T09:38:02.000Z</time>
      </trkpt>
      <trkpt lat="47.69404" lon="6.05426">
        <ele>248</ele>
        <time>2014-04-16T09:38:07.000Z</time>
      </trkpt>
      <trkpt lat="47.69393" lon="6.05417">
        <ele>247.80000305176</ele>
        <time>2014-04-16T09:38:09.000Z</time>
      </trkpt>
      <trkpt lat="47.69369" lon="6.05398">
        <ele>247.39999389648</ele>
        <time>2014-04-16T09:38:13.000Z</time>
      </trkpt>
      <trkpt lat="47.6934" lon="6.05376">
        <ele>247.39999389648</ele>
        <time>2014-04-16T09:38:18.000Z</time>
      </trkpt>
      <trkpt lat="47.69334" lon="6.05372">
        <ele>247.19999694824</ele>
        <time>2014-04-16T09:38:19.000Z</time>
      </trkpt>
      <trkpt lat="47.69329" lon="6.05368">
        <ele>247.19999694824</ele>
        <time>2014-04-16T09:38:20.000Z</time>
      </trkpt>
      <trkpt lat="47.69323" lon="6.05363">
        <ele>247.19999694824</ele>
        <time>2014-04-16T09:38:21.000Z</time>
      </trkpt>
      <trkpt lat="47.69294" lon="6.0534">
        <ele>246.60000610352</ele>
        <time>2014-04-16T09:38:27.000Z</time>
      </trkpt>
      <trkpt lat="47.69289" lon="6.05337">
        <ele>246.60000610352</ele>
        <time>2014-04-16T09:38:28.000Z</time>
      </trkpt>
      <trkpt lat="47.6927" lon="6.05318">
        <ele>246.19999694824</ele>
        <time>2014-04-16T09:38:33.000Z</time>
      </trkpt>
      <trkpt lat="47.69244" lon="6.05291">
        <ele>245.80000305176</ele>
        <time>2014-04-16T09:38:40.000Z</time>
      </trkpt>
      <trkpt lat="47.69213" lon="6.05256">
        <ele>245.60000610352</ele>
        <time>2014-04-16T09:38:49.000Z</time>
      </trkpt>
      <trkpt lat="47.69195" lon="6.05237">
        <ele>245.60000610352</ele>
        <time>2014-04-16T09:38:54.000Z</time>
      </trkpt>
      <trkpt lat="47.69175" lon="6.05214">
        <ele>246</ele>
        <time>2014-04-16T09:39:00.000Z</time>
      </trkpt>
      <trkpt lat="47.69143" lon="6.05182">
        <ele>245.60000610352</ele>
        <time>2014-04-16T09:39:09.000Z</time>
      </trkpt>
      <trkpt lat="47.6912" lon="6.05163">
        <ele>245</ele>
        <time>2014-04-16T09:39:15.000Z</time>
      </trkpt>
      <trkpt lat="47.69117" lon="6.05161">
        <ele>244.80000305176</ele>
        <time>2014-04-16T09:39:16.000Z</time>
      </trkpt>
      <trkpt lat="47.69102" lon="6.05149">
        <ele>244.39999389648</ele>
        <time>2014-04-16T09:39:20.000Z</time>
      </trkpt>
      <trkpt lat="47.69094" lon="6.05143">
        <ele>244.19999694824</ele>
        <time>2014-04-16T09:39:22.000Z</time>
      </trkpt>
      <trkpt lat="47.6909" lon="6.05139">
        <ele>244.19999694824</ele>
        <time>2014-04-16T09:39:23.000Z</time>
      </trkpt>
      <trkpt lat="47.69085" lon="6.05136">
        <ele>244</ele>
        <time>2014-04-16T09:39:24.000Z</time>
      </trkpt>
      <trkpt lat="47.69081" lon="6.05133">
        <ele>243.80000305176</ele>
        <time>2014-04-16T09:39:25.000Z</time>
      </trkpt>
      <trkpt lat="47.69076" lon="6.05129">
        <ele>243.39999389648</ele>
        <time>2014-04-16T09:39:26.000Z</time>
      </trkpt>
      <trkpt lat="47.6907" lon="6.05125">
        <ele>243</ele>
        <time>2014-04-16T09:39:27.000Z</time>
      </trkpt>
      <trkpt lat="47.69065" lon="6.05122">
        <ele>242.60000610352</ele>
        <time>2014-04-16T09:39:28.000Z</time>
      </trkpt>
      <trkpt lat="47.69059" lon="6.05118">
        <ele>242.39999389648</ele>
        <time>2014-04-16T09:39:29.000Z</time>
      </trkpt>
      <trkpt lat="47.69052" lon="6.05113">
        <ele>242</ele>
        <time>2014-04-16T09:39:30.000Z</time>
      </trkpt>
      <trkpt lat="47.69038" lon="6.05103">
        <ele>241</ele>
        <time>2014-04-16T09:39:32.000Z</time>
      </trkpt>
      <trkpt lat="47.6903" lon="6.05098">
        <ele>240.60000610352</ele>
        <time>2014-04-16T09:39:33.000Z</time>
      </trkpt>
      <trkpt lat="47.69023" lon="6.05094">
        <ele>240.19999694824</ele>
        <time>2014-04-16T09:39:34.000Z</time>
      </trkpt>
      <trkpt lat="47.69015" lon="6.05088">
        <ele>239.60000610352</ele>
        <time>2014-04-16T09:39:35.000Z</time>
      </trkpt>
      <trkpt lat="47.69006" lon="6.05083">
        <ele>239.19999694824</ele>
        <time>2014-04-16T09:39:36.000Z</time>
      </trkpt>
      <trkpt lat="47.68997" lon="6.05078">
        <ele>238.60000610352</ele>
        <time>2014-04-16T09:39:37.000Z</time>
      </trkpt>
      <trkpt lat="47.68988" lon="6.05072">
        <ele>237.80000305176</ele>
        <time>2014-04-16T09:39:38.000Z</time>
      </trkpt>
      <trkpt lat="47.68979" lon="6.05066">
        <ele>237</ele>
        <time>2014-04-16T09:39:39.000Z</time>
      </trkpt>
      <trkpt lat="47.68969" lon="6.0506">
        <ele>236.19999694824</ele>
        <time>2014-04-16T09:39:40.000Z</time>
      </trkpt>
      <trkpt lat="47.6896" lon="6.05053">
        <ele>235.19999694824</ele>
        <time>2014-04-16T09:39:41.000Z</time>
      </trkpt>
      <trkpt lat="47.6895" lon="6.05047">
        <ele>234.39999389648</ele>
        <time>2014-04-16T09:39:42.000Z</time>
      </trkpt>
      <trkpt lat="47.6894" lon="6.05039">
        <ele>233.39999389648</ele>
        <time>2014-04-16T09:39:43.000Z</time>
      </trkpt>
      <trkpt lat="47.6893" lon="6.05032">
        <ele>232.60000610352</ele>
        <time>2014-04-16T09:39:44.000Z</time>
      </trkpt>
      <trkpt lat="47.6892" lon="6.05024">
        <ele>231.60000610352</ele>
        <time>2014-04-16T09:39:45.000Z</time>
      </trkpt>
      <trkpt lat="47.68911" lon="6.05016">
        <ele>231.19999694824</ele>
        <time>2014-04-16T09:39:46.000Z</time>
      </trkpt>
      <trkpt lat="47.68901" lon="6.05007">
        <ele>231</ele>
        <time>2014-04-16T09:39:47.000Z</time>
      </trkpt>
      <trkpt lat="47.68893" lon="6.04997">
        <ele>230.60000610352</ele>
        <time>2014-04-16T09:39:48.000Z</time>
      </trkpt>
      <trkpt lat="47.68884" lon="6.04986">
        <ele>230.19999694824</ele>
        <time>2014-04-16T09:39:49.000Z</time>
      </trkpt>
      <trkpt lat="47.68877" lon="6.04974">
        <ele>230</ele>
        <time>2014-04-16T09:39:50.000Z</time>
      </trkpt>
      <trkpt lat="47.6887" lon="6.04962">
        <ele>229.60000610352</ele>
        <time>2014-04-16T09:39:51.000Z</time>
      </trkpt>
      <trkpt lat="47.68863" lon="6.04949">
        <ele>229.39999389648</ele>
        <time>2014-04-16T09:39:52.000Z</time>
      </trkpt>
      <trkpt lat="47.68857" lon="6.04936">
        <ele>229</ele>
        <time>2014-04-16T09:39:53.000Z</time>
      </trkpt>
      <trkpt lat="47.6885" lon="6.04924">
        <ele>228.80000305176</ele>
        <time>2014-04-16T09:39:54.000Z</time>
      </trkpt>
      <trkpt lat="47.68844" lon="6.04911">
        <ele>228.39999389648</ele>
        <time>2014-04-16T09:39:55.000Z</time>
      </trkpt>
      <trkpt lat="47.68838" lon="6.04901">
        <ele>228.19999694824</ele>
        <time>2014-04-16T09:39:56.000Z</time>
      </trkpt>
      <trkpt lat="47.68832" lon="6.04893">
        <ele>228.19999694824</ele>
        <time>2014-04-16T09:39:57.000Z</time>
      </trkpt>
      <trkpt lat="47.68827" lon="6.04887">
        <ele>228.39999389648</ele>
        <time>2014-04-16T09:39:58.000Z</time>
      </trkpt>
      <trkpt lat="47.68824" lon="6.04882">
        <ele>228.39999389648</ele>
        <time>2014-04-16T09:39:59.000Z</time>
      </trkpt>
      <trkpt lat="47.68821" lon="6.04879">
        <ele>228.60000610352</ele>
        <time>2014-04-16T09:40:00.000Z</time>
      </trkpt>
      <trkpt lat="47.6882" lon="6.04878">
        <ele>228.60000610352</ele>
        <time>2014-04-16T09:40:01.000Z</time>
      </trkpt>
      <trkpt lat="47.68819" lon="6.04878">
        <ele>228.60000610352</ele>
        <time>2014-04-16T09:40:02.000Z</time>
      </trkpt>
      <trkpt lat="47.68818" lon="6.04876">
        <ele>228.60000610352</ele>
        <time>2014-04-16T09:40:06.000Z</time>
      </trkpt>
      <trkpt lat="47.68815" lon="6.04875">
        <ele>228.80000305176</ele>
        <time>2014-04-16T09:40:07.000Z</time>
      </trkpt>
      <trkpt lat="47.68813" lon="6.04875">
        <ele>228.80000305176</ele>
        <time>2014-04-16T09:40:08.000Z</time>
      </trkpt>
      <trkpt lat="47.6881" lon="6.04874">
        <ele>229</ele>
        <time>2014-04-16T09:40:09.000Z</time>
      </trkpt>
      <trkpt lat="47.68807" lon="6.04874">
        <ele>229</ele>
        <time>2014-04-16T09:40:10.000Z</time>
      </trkpt>
      <trkpt lat="47.68805" lon="6.04874">
        <ele>229.19999694824</ele>
        <time>2014-04-16T09:40:11.000Z</time>
      </trkpt>
      <trkpt lat="47.68791" lon="6.04878">
        <ele>229.60000610352</ele>
        <time>2014-04-16T09:40:16.000Z</time>
      </trkpt>
      <trkpt lat="47.68783" lon="6.04874">
        <ele>230</ele>
        <time>2014-04-16T09:40:19.000Z</time>
      </trkpt>
      <trkpt lat="47.68781" lon="6.0487">
        <ele>230</ele>
        <time>2014-04-16T09:40:20.000Z</time>
      </trkpt>
      <trkpt lat="47.68779" lon="6.04866">
        <ele>230</ele>
        <time>2014-04-16T09:40:21.000Z</time>
      </trkpt>
      <trkpt lat="47.68778" lon="6.04862">
        <ele>230.19999694824</ele>
        <time>2014-04-16T09:40:22.000Z</time>
      </trkpt>
      <trkpt lat="47.68777" lon="6.04857">
        <ele>230.19999694824</ele>
        <time>2014-04-16T09:40:23.000Z</time>
      </trkpt>
      <trkpt lat="47.68773" lon="6.04844">
        <ele>230.19999694824</ele>
        <time>2014-04-16T09:40:26.000Z</time>
      </trkpt>
      <trkpt lat="47.68765" lon="6.04818">
        <ele>230.60000610352</ele>
        <time>2014-04-16T09:40:32.000Z</time>
      </trkpt>
      <trkpt lat="47.68757" lon="6.04789">
        <ele>230.80000305176</ele>
        <time>2014-04-16T09:40:38.000Z</time>
      </trkpt>
      <trkpt lat="47.68756" lon="6.04785">
        <ele>230.80000305176</ele>
        <time>2014-04-16T09:40:39.000Z</time>
      </trkpt>
      <trkpt lat="47.68755" lon="6.0478">
        <ele>231</ele>
        <time>2014-04-16T09:40:40.000Z</time>
      </trkpt>
      <trkpt lat="47.68753" lon="6.04775">
        <ele>231</ele>
        <time>2014-04-16T09:40:41.000Z</time>
      </trkpt>
      <trkpt lat="47.68752" lon="6.04771">
        <ele>231</ele>
        <time>2014-04-16T09:40:42.000Z</time>
      </trkpt>
      <trkpt lat="47.68748" lon="6.04757">
        <ele>231.39999389648</ele>
        <time>2014-04-16T09:40:45.000Z</time>
      </trkpt>
      <trkpt lat="47.68737" lon="6.04718">
        <ele>232</ele>
        <time>2014-04-16T09:40:53.000Z</time>
      </trkpt>
      <trkpt lat="47.68731" lon="6.04703">
        <ele>232</ele>
        <time>2014-04-16T09:40:56.000Z</time>
      </trkpt>
      <trkpt lat="47.68729" lon="6.04698">
        <ele>232.19999694824</ele>
        <time>2014-04-16T09:40:57.000Z</time>
      </trkpt>
      <trkpt lat="47.68726" lon="6.04693">
        <ele>232.39999389648</ele>
        <time>2014-04-16T09:40:58.000Z</time>
      </trkpt>
      <trkpt lat="47.68724" lon="6.04689">
        <ele>232.60000610352</ele>
        <time>2014-04-16T09:40:59.000Z</time>
      </trkpt>
      <trkpt lat="47.68721" lon="6.04684">
        <ele>232.60000610352</ele>
        <time>2014-04-16T09:41:00.000Z</time>
      </trkpt>
      <trkpt lat="47.68717" lon="6.04673">
        <ele>233</ele>
        <time>2014-04-16T09:41:02.000Z</time>
      </trkpt>
      <trkpt lat="47.68698" lon="6.04632">
        <ele>233.80000305176</ele>
        <time>2014-04-16T09:41:10.000Z</time>
      </trkpt>
      <trkpt lat="47.68683" lon="6.04594">
        <ele>234</ele>
        <time>2014-04-16T09:41:17.000Z</time>
      </trkpt>
      <trkpt lat="47.68666" lon="6.04562">
        <ele>233.80000305176</ele>
        <time>2014-04-16T09:41:23.000Z</time>
      </trkpt>
      <trkpt lat="47.68658" lon="6.04552">
        <ele>232.80000305176</ele>
        <time>2014-04-16T09:41:25.000Z</time>
      </trkpt>
      <trkpt lat="47.68642" lon="6.04539">
        <ele>231.19999694824</ele>
        <time>2014-04-16T09:41:28.000Z</time>
      </trkpt>
      <trkpt lat="47.68637" lon="6.04538">
        <ele>230.80000305176</ele>
        <time>2014-04-16T09:41:29.000Z</time>
      </trkpt>
      <trkpt lat="47.68633" lon="6.04537">
        <ele>230.39999389648</ele>
        <time>2014-04-16T09:41:30.000Z</time>
      </trkpt>
      <trkpt lat="47.68631" lon="6.04538">
        <ele>230.39999389648</ele>
        <time>2014-04-16T09:41:31.000Z</time>
      </trkpt>
      <trkpt lat="47.68629" lon="6.04541">
        <ele>230.39999389648</ele>
        <time>2014-04-16T09:41:32.000Z</time>
      </trkpt>
      <trkpt lat="47.68628" lon="6.04545">
        <ele>230.60000610352</ele>
        <time>2014-04-16T09:41:33.000Z</time>
      </trkpt>
      <trkpt lat="47.68627" lon="6.04548">
        <ele>230.80000305176</ele>
        <time>2014-04-16T09:41:34.000Z</time>
      </trkpt>
      <trkpt lat="47.68626" lon="6.04549">
        <ele>230.80000305176</ele>
        <time>2014-04-16T09:41:35.000Z</time>
      </trkpt>
    </trkseg>
  </trk>
</gpx>